<?xml version="1.0" encoding="UTF-8" standalone="no" ?>
<gpx xmlns="http://www.topografix.com/GPX/1/1" xmlns:xsi="http://www.w3.org/2001/XMLSchema-instance" xsi:schemaLocation="http://www.topografix.com/GPX/1/1 http://www.topografix.com/GPX/1/1/gpx.xsd" version="1.1" creator="VisuGPX - https://www.visugpx.com">
  <metadata>
    <name>J3: Brugeyrolles / Le Luc</name>
    <desc><![CDATA[Depuis le gîte des Crémades jusqu'au Luc. Ensuite Taxi jusqu'à Labastide PuyLaurent]]></desc>
  </metadata>
  <trk>
    <name><![CDATA[2016-04-24 15:29:23]]></name>
    <trkseg>
      <trkpt lat="44.70551" lon="3.85944">
        <ele>954.8</ele>
        <time>2016-04-24T06:40:43Z</time>
      </trkpt>
      <trkpt lat="44.70551" lon="3.85943">
        <ele>954.8</ele>
        <time>2016-04-24T06:40:45Z</time>
      </trkpt>
      <trkpt lat="44.70574" lon="3.85926">
        <ele>955.17</ele>
        <time>2016-04-24T06:41:08Z</time>
      </trkpt>
      <trkpt lat="44.7056" lon="3.85924">
        <ele>954.66</ele>
        <time>2016-04-24T06:41:23Z</time>
      </trkpt>
      <trkpt lat="44.70541" lon="3.85928">
        <ele>954.68</ele>
        <time>2016-04-24T06:41:27Z</time>
      </trkpt>
      <trkpt lat="44.70532" lon="3.85925">
        <ele>954.5</ele>
        <time>2016-04-24T06:41:31Z</time>
      </trkpt>
      <trkpt lat="44.70537" lon="3.85922">
        <ele>954.38</ele>
        <time>2016-04-24T06:41:38Z</time>
      </trkpt>
      <trkpt lat="44.70555" lon="3.85908">
        <ele>954.19</ele>
        <time>2016-04-24T06:41:51Z</time>
      </trkpt>
      <trkpt lat="44.70555" lon="3.85891">
        <ele>952.97</ele>
        <time>2016-04-24T06:42:04Z</time>
      </trkpt>
      <trkpt lat="44.70554" lon="3.85887">
        <ele>952.69</ele>
        <time>2016-04-24T06:42:07Z</time>
      </trkpt>
      <trkpt lat="44.70554" lon="3.85874">
        <ele>951.9</ele>
        <time>2016-04-24T06:42:17Z</time>
      </trkpt>
      <trkpt lat="44.70554" lon="3.85867">
        <ele>951.65</ele>
        <time>2016-04-24T06:42:22Z</time>
      </trkpt>
      <trkpt lat="44.70555" lon="3.85855">
        <ele>951.21</ele>
        <time>2016-04-24T06:42:29Z</time>
      </trkpt>
      <trkpt lat="44.70555" lon="3.85848">
        <ele>950.68</ele>
        <time>2016-04-24T06:42:34Z</time>
      </trkpt>
      <trkpt lat="44.70553" lon="3.85844">
        <ele>950.62</ele>
        <time>2016-04-24T06:42:37Z</time>
      </trkpt>
      <trkpt lat="44.70548" lon="3.85836">
        <ele>950.93</ele>
        <time>2016-04-24T06:42:44Z</time>
      </trkpt>
      <trkpt lat="44.70538" lon="3.85822">
        <ele>951.13</ele>
        <time>2016-04-24T06:42:57Z</time>
      </trkpt>
      <trkpt lat="44.70533" lon="3.85817">
        <ele>951.42</ele>
        <time>2016-04-24T06:43:03Z</time>
      </trkpt>
      <trkpt lat="44.70522" lon="3.85801">
        <ele>954.47</ele>
        <time>2016-04-24T06:43:19Z</time>
      </trkpt>
      <trkpt lat="44.70509" lon="3.85784">
        <ele>954.92</ele>
        <time>2016-04-24T06:43:34Z</time>
      </trkpt>
      <trkpt lat="44.70491" lon="3.85769">
        <ele>953.41</ele>
        <time>2016-04-24T06:43:51Z</time>
      </trkpt>
      <trkpt lat="44.70474" lon="3.85753">
        <ele>953.65</ele>
        <time>2016-04-24T06:44:06Z</time>
      </trkpt>
      <trkpt lat="44.70472" lon="3.85751">
        <ele>953.47</ele>
        <time>2016-04-24T06:44:08Z</time>
      </trkpt>
      <trkpt lat="44.70457" lon="3.85729">
        <ele>954.1</ele>
        <time>2016-04-24T06:44:24Z</time>
      </trkpt>
      <trkpt lat="44.70441" lon="3.8571">
        <ele>953.47</ele>
        <time>2016-04-24T06:44:41Z</time>
      </trkpt>
      <trkpt lat="44.70423" lon="3.85697">
        <ele>954.26</ele>
        <time>2016-04-24T06:44:58Z</time>
      </trkpt>
      <trkpt lat="44.70403" lon="3.85687">
        <ele>955.59</ele>
        <time>2016-04-24T06:45:16Z</time>
      </trkpt>
      <trkpt lat="44.70388" lon="3.85676">
        <ele>956.76</ele>
        <time>2016-04-24T06:45:32Z</time>
      </trkpt>
      <trkpt lat="44.70375" lon="3.85675">
        <ele>958.05</ele>
        <time>2016-04-24T06:45:45Z</time>
      </trkpt>
      <trkpt lat="44.70367" lon="3.85676">
        <ele>958.77</ele>
        <time>2016-04-24T06:45:52Z</time>
      </trkpt>
      <trkpt lat="44.7036" lon="3.85678">
        <ele>959.43</ele>
        <time>2016-04-24T06:45:57Z</time>
      </trkpt>
      <trkpt lat="44.70358" lon="3.85678">
        <ele>959.28</ele>
        <time>2016-04-24T06:46:14Z</time>
      </trkpt>
      <trkpt lat="44.70359" lon="3.85678">
        <ele>959.33</ele>
        <time>2016-04-24T06:46:41Z</time>
      </trkpt>
      <trkpt lat="44.70359" lon="3.85679">
        <ele>959.66</ele>
        <time>2016-04-24T06:47:05Z</time>
      </trkpt>
      <trkpt lat="44.70359" lon="3.85678">
        <ele>959.54</ele>
        <time>2016-04-24T06:47:37Z</time>
      </trkpt>
      <trkpt lat="44.70358" lon="3.85678">
        <ele>959.51</ele>
        <time>2016-04-24T06:47:38Z</time>
      </trkpt>
      <trkpt lat="44.70353" lon="3.8568">
        <ele>960.73</ele>
        <time>2016-04-24T06:47:43Z</time>
      </trkpt>
      <trkpt lat="44.70331" lon="3.85688">
        <ele>960.5</ele>
        <time>2016-04-24T06:48:00Z</time>
      </trkpt>
      <trkpt lat="44.70312" lon="3.85694">
        <ele>960.42</ele>
        <time>2016-04-24T06:48:15Z</time>
      </trkpt>
      <trkpt lat="44.70304" lon="3.85698">
        <ele>960.8</ele>
        <time>2016-04-24T06:48:21Z</time>
      </trkpt>
      <trkpt lat="44.70283" lon="3.85706">
        <ele>961.43</ele>
        <time>2016-04-24T06:48:37Z</time>
      </trkpt>
      <trkpt lat="44.70268" lon="3.85714">
        <ele>962.03</ele>
        <time>2016-04-24T06:48:50Z</time>
      </trkpt>
      <trkpt lat="44.7025" lon="3.8572">
        <ele>962.97</ele>
        <time>2016-04-24T06:49:04Z</time>
      </trkpt>
      <trkpt lat="44.70235" lon="3.85724">
        <ele>965.27</ele>
        <time>2016-04-24T06:49:18Z</time>
      </trkpt>
      <trkpt lat="44.70218" lon="3.8573">
        <ele>967.23</ele>
        <time>2016-04-24T06:49:32Z</time>
      </trkpt>
      <trkpt lat="44.70197" lon="3.85738">
        <ele>969.23</ele>
        <time>2016-04-24T06:49:49Z</time>
      </trkpt>
      <trkpt lat="44.70177" lon="3.85746">
        <ele>970.47</ele>
        <time>2016-04-24T06:50:05Z</time>
      </trkpt>
      <trkpt lat="44.7016" lon="3.85752">
        <ele>972.14</ele>
        <time>2016-04-24T06:50:19Z</time>
      </trkpt>
      <trkpt lat="44.70139" lon="3.8576">
        <ele>973.79</ele>
        <time>2016-04-24T06:50:36Z</time>
      </trkpt>
      <trkpt lat="44.7012" lon="3.85767">
        <ele>974.98</ele>
        <time>2016-04-24T06:50:52Z</time>
      </trkpt>
      <trkpt lat="44.70101" lon="3.85773">
        <ele>976.26</ele>
        <time>2016-04-24T06:51:07Z</time>
      </trkpt>
      <trkpt lat="44.70086" lon="3.85776">
        <ele>976.69</ele>
        <time>2016-04-24T06:51:20Z</time>
      </trkpt>
      <trkpt lat="44.70067" lon="3.8578">
        <ele>977.74</ele>
        <time>2016-04-24T06:51:35Z</time>
      </trkpt>
      <trkpt lat="44.70048" lon="3.85785">
        <ele>977.85</ele>
        <time>2016-04-24T06:51:50Z</time>
      </trkpt>
      <trkpt lat="44.70027" lon="3.85788">
        <ele>978.34</ele>
        <time>2016-04-24T06:52:07Z</time>
      </trkpt>
      <trkpt lat="44.70005" lon="3.85793">
        <ele>978.78</ele>
        <time>2016-04-24T06:52:24Z</time>
      </trkpt>
      <trkpt lat="44.69987" lon="3.85797">
        <ele>979.58</ele>
        <time>2016-04-24T06:52:39Z</time>
      </trkpt>
      <trkpt lat="44.69971" lon="3.85801">
        <ele>979.29</ele>
        <time>2016-04-24T06:52:53Z</time>
      </trkpt>
      <trkpt lat="44.69951" lon="3.85808">
        <ele>979.93</ele>
        <time>2016-04-24T06:53:09Z</time>
      </trkpt>
      <trkpt lat="44.69931" lon="3.85813">
        <ele>979.8</ele>
        <time>2016-04-24T06:53:25Z</time>
      </trkpt>
      <trkpt lat="44.69921" lon="3.85816">
        <ele>981.31</ele>
        <time>2016-04-24T06:53:40Z</time>
      </trkpt>
      <trkpt lat="44.6992" lon="3.85817">
        <ele>980.88</ele>
        <time>2016-04-24T06:54:23Z</time>
      </trkpt>
      <trkpt lat="44.69918" lon="3.85818">
        <ele>980.96</ele>
        <time>2016-04-24T06:54:32Z</time>
      </trkpt>
      <trkpt lat="44.69913" lon="3.85821">
        <ele>980.37</ele>
        <time>2016-04-24T06:54:37Z</time>
      </trkpt>
      <trkpt lat="44.69898" lon="3.85831">
        <ele>980.57</ele>
        <time>2016-04-24T06:54:52Z</time>
      </trkpt>
      <trkpt lat="44.69888" lon="3.85836">
        <ele>979.98</ele>
        <time>2016-04-24T06:55:01Z</time>
      </trkpt>
      <trkpt lat="44.69873" lon="3.85846">
        <ele>980.18</ele>
        <time>2016-04-24T06:55:14Z</time>
      </trkpt>
      <trkpt lat="44.69859" lon="3.85853">
        <ele>979.87</ele>
        <time>2016-04-24T06:55:27Z</time>
      </trkpt>
      <trkpt lat="44.69846" lon="3.85858">
        <ele>980.07</ele>
        <time>2016-04-24T06:55:40Z</time>
      </trkpt>
      <trkpt lat="44.69831" lon="3.85868">
        <ele>980.11</ele>
        <time>2016-04-24T06:55:54Z</time>
      </trkpt>
      <trkpt lat="44.69812" lon="3.85878">
        <ele>980.75</ele>
        <time>2016-04-24T06:56:11Z</time>
      </trkpt>
      <trkpt lat="44.69804" lon="3.85883">
        <ele>980.62</ele>
        <time>2016-04-24T06:56:18Z</time>
      </trkpt>
      <trkpt lat="44.6979" lon="3.85892">
        <ele>980.51</ele>
        <time>2016-04-24T06:56:30Z</time>
      </trkpt>
      <trkpt lat="44.69784" lon="3.85895">
        <ele>980.89</ele>
        <time>2016-04-24T06:56:35Z</time>
      </trkpt>
      <trkpt lat="44.69771" lon="3.85904">
        <ele>981.15</ele>
        <time>2016-04-24T06:56:47Z</time>
      </trkpt>
      <trkpt lat="44.69758" lon="3.85912">
        <ele>981.14</ele>
        <time>2016-04-24T06:56:59Z</time>
      </trkpt>
      <trkpt lat="44.69744" lon="3.85922">
        <ele>982</ele>
        <time>2016-04-24T06:57:12Z</time>
      </trkpt>
      <trkpt lat="44.69731" lon="3.85931">
        <ele>982.74</ele>
        <time>2016-04-24T06:57:25Z</time>
      </trkpt>
      <trkpt lat="44.6972" lon="3.85939">
        <ele>982.85</ele>
        <time>2016-04-24T06:57:36Z</time>
      </trkpt>
      <trkpt lat="44.69705" lon="3.85948">
        <ele>983.8</ele>
        <time>2016-04-24T06:57:49Z</time>
      </trkpt>
      <trkpt lat="44.69701" lon="3.8595">
        <ele>983.94</ele>
        <time>2016-04-24T06:57:53Z</time>
      </trkpt>
      <trkpt lat="44.69687" lon="3.85957">
        <ele>984.29</ele>
        <time>2016-04-24T06:58:05Z</time>
      </trkpt>
      <trkpt lat="44.6967" lon="3.85964">
        <ele>984.46</ele>
        <time>2016-04-24T06:58:20Z</time>
      </trkpt>
      <trkpt lat="44.69651" lon="3.85969">
        <ele>984.26</ele>
        <time>2016-04-24T06:58:36Z</time>
      </trkpt>
      <trkpt lat="44.69637" lon="3.85969">
        <ele>984.24</ele>
        <time>2016-04-24T06:58:49Z</time>
      </trkpt>
      <trkpt lat="44.69615" lon="3.85966">
        <ele>984.88</ele>
        <time>2016-04-24T06:59:07Z</time>
      </trkpt>
      <trkpt lat="44.696" lon="3.85963">
        <ele>984.65</ele>
        <time>2016-04-24T06:59:20Z</time>
      </trkpt>
      <trkpt lat="44.69583" lon="3.85959">
        <ele>985.19</ele>
        <time>2016-04-24T06:59:34Z</time>
      </trkpt>
      <trkpt lat="44.69574" lon="3.85959">
        <ele>985.22</ele>
        <time>2016-04-24T06:59:41Z</time>
      </trkpt>
      <trkpt lat="44.69566" lon="3.85957">
        <ele>985.11</ele>
        <time>2016-04-24T06:59:48Z</time>
      </trkpt>
      <trkpt lat="44.69545" lon="3.85952">
        <ele>985.19</ele>
        <time>2016-04-24T07:00:05Z</time>
      </trkpt>
      <trkpt lat="44.69525" lon="3.85949">
        <ele>985.67</ele>
        <time>2016-04-24T07:00:21Z</time>
      </trkpt>
      <trkpt lat="44.6952" lon="3.85948">
        <ele>985.77</ele>
        <time>2016-04-24T07:00:25Z</time>
      </trkpt>
      <trkpt lat="44.69514" lon="3.85946">
        <ele>985.73</ele>
        <time>2016-04-24T07:00:31Z</time>
      </trkpt>
      <trkpt lat="44.69496" lon="3.85942">
        <ele>985.61</ele>
        <time>2016-04-24T07:00:46Z</time>
      </trkpt>
      <trkpt lat="44.69476" lon="3.85938">
        <ele>986.55</ele>
        <time>2016-04-24T07:01:03Z</time>
      </trkpt>
      <trkpt lat="44.69474" lon="3.85938">
        <ele>986.73</ele>
        <time>2016-04-24T07:01:05Z</time>
      </trkpt>
      <trkpt lat="44.69467" lon="3.85936">
        <ele>986.7</ele>
        <time>2016-04-24T07:01:11Z</time>
      </trkpt>
      <trkpt lat="44.69446" lon="3.85929">
        <ele>985.11</ele>
        <time>2016-04-24T07:01:28Z</time>
      </trkpt>
      <trkpt lat="44.69432" lon="3.85922">
        <ele>984.25</ele>
        <time>2016-04-24T07:01:40Z</time>
      </trkpt>
      <trkpt lat="44.6943" lon="3.8592">
        <ele>984.04</ele>
        <time>2016-04-24T07:01:42Z</time>
      </trkpt>
      <trkpt lat="44.69425" lon="3.85917">
        <ele>983.8</ele>
        <time>2016-04-24T07:01:47Z</time>
      </trkpt>
      <trkpt lat="44.69417" lon="3.85912">
        <ele>982.94</ele>
        <time>2016-04-24T07:01:55Z</time>
      </trkpt>
      <trkpt lat="44.69413" lon="3.85911">
        <ele>982.56</ele>
        <time>2016-04-24T07:01:59Z</time>
      </trkpt>
      <trkpt lat="44.69404" lon="3.8591">
        <ele>981.98</ele>
        <time>2016-04-24T07:02:06Z</time>
      </trkpt>
      <trkpt lat="44.6939" lon="3.85908">
        <ele>980.37</ele>
        <time>2016-04-24T07:02:18Z</time>
      </trkpt>
      <trkpt lat="44.69371" lon="3.85911">
        <ele>979.75</ele>
        <time>2016-04-24T07:02:34Z</time>
      </trkpt>
      <trkpt lat="44.69349" lon="3.8592">
        <ele>978.06</ele>
        <time>2016-04-24T07:02:54Z</time>
      </trkpt>
      <trkpt lat="44.69339" lon="3.85922">
        <ele>977.66</ele>
        <time>2016-04-24T07:03:04Z</time>
      </trkpt>
      <trkpt lat="44.69331" lon="3.85918">
        <ele>977.14</ele>
        <time>2016-04-24T07:03:10Z</time>
      </trkpt>
      <trkpt lat="44.69321" lon="3.85914">
        <ele>975.35</ele>
        <time>2016-04-24T07:03:21Z</time>
      </trkpt>
      <trkpt lat="44.69315" lon="3.85911">
        <ele>974.99</ele>
        <time>2016-04-24T07:03:25Z</time>
      </trkpt>
      <trkpt lat="44.69304" lon="3.85888">
        <ele>973.38</ele>
        <time>2016-04-24T07:03:43Z</time>
      </trkpt>
      <trkpt lat="44.69303" lon="3.85886">
        <ele>973.19</ele>
        <time>2016-04-24T07:03:44Z</time>
      </trkpt>
      <trkpt lat="44.693" lon="3.85869">
        <ele>970.56</ele>
        <time>2016-04-24T07:03:58Z</time>
      </trkpt>
      <trkpt lat="44.69288" lon="3.85845">
        <ele>968.08</ele>
        <time>2016-04-24T07:04:18Z</time>
      </trkpt>
      <trkpt lat="44.69287" lon="3.85844">
        <ele>967.93</ele>
        <time>2016-04-24T07:04:19Z</time>
      </trkpt>
      <trkpt lat="44.6928" lon="3.85838">
        <ele>967.31</ele>
        <time>2016-04-24T07:04:25Z</time>
      </trkpt>
      <trkpt lat="44.69268" lon="3.85842">
        <ele>964.75</ele>
        <time>2016-04-24T07:04:37Z</time>
      </trkpt>
      <trkpt lat="44.69261" lon="3.85862">
        <ele>962.41</ele>
        <time>2016-04-24T07:04:52Z</time>
      </trkpt>
      <trkpt lat="44.69259" lon="3.85866">
        <ele>961.99</ele>
        <time>2016-04-24T07:04:55Z</time>
      </trkpt>
      <trkpt lat="44.6925" lon="3.85886">
        <ele>960.43</ele>
        <time>2016-04-24T07:05:08Z</time>
      </trkpt>
      <trkpt lat="44.69249" lon="3.85888">
        <ele>960.41</ele>
        <time>2016-04-24T07:05:09Z</time>
      </trkpt>
      <trkpt lat="44.69237" lon="3.85905">
        <ele>960.35</ele>
        <time>2016-04-24T07:05:22Z</time>
      </trkpt>
      <trkpt lat="44.69234" lon="3.85918">
        <ele>960.8</ele>
        <time>2016-04-24T07:05:32Z</time>
      </trkpt>
      <trkpt lat="44.69236" lon="3.85934">
        <ele>962.19</ele>
        <time>2016-04-24T07:05:45Z</time>
      </trkpt>
      <trkpt lat="44.69236" lon="3.85947">
        <ele>963.99</ele>
        <time>2016-04-24T07:06:00Z</time>
      </trkpt>
      <trkpt lat="44.69224" lon="3.85941">
        <ele>966.08</ele>
        <time>2016-04-24T07:06:17Z</time>
      </trkpt>
      <trkpt lat="44.69212" lon="3.85931">
        <ele>967.22</ele>
        <time>2016-04-24T07:06:35Z</time>
      </trkpt>
      <trkpt lat="44.692" lon="3.85927">
        <ele>969.28</ele>
        <time>2016-04-24T07:06:55Z</time>
      </trkpt>
      <trkpt lat="44.6919" lon="3.85922">
        <ele>972.51</ele>
        <time>2016-04-24T07:07:12Z</time>
      </trkpt>
      <trkpt lat="44.69177" lon="3.85922">
        <ele>974.77</ele>
        <time>2016-04-24T07:07:33Z</time>
      </trkpt>
      <trkpt lat="44.69175" lon="3.85921">
        <ele>975.37</ele>
        <time>2016-04-24T07:07:39Z</time>
      </trkpt>
      <trkpt lat="44.69161" lon="3.85921">
        <ele>978.14</ele>
        <time>2016-04-24T07:07:58Z</time>
      </trkpt>
      <trkpt lat="44.69154" lon="3.85916">
        <ele>981.23</ele>
        <time>2016-04-24T07:08:14Z</time>
      </trkpt>
      <trkpt lat="44.69145" lon="3.85911">
        <ele>983.69</ele>
        <time>2016-04-24T07:08:30Z</time>
      </trkpt>
      <trkpt lat="44.69132" lon="3.85908">
        <ele>986.26</ele>
        <time>2016-04-24T07:08:51Z</time>
      </trkpt>
      <trkpt lat="44.6912" lon="3.859">
        <ele>988.93</ele>
        <time>2016-04-24T07:09:14Z</time>
      </trkpt>
      <trkpt lat="44.69108" lon="3.85896">
        <ele>991.56</ele>
        <time>2016-04-24T07:09:35Z</time>
      </trkpt>
      <trkpt lat="44.69094" lon="3.85894">
        <ele>993.39</ele>
        <time>2016-04-24T07:09:56Z</time>
      </trkpt>
      <trkpt lat="44.69083" lon="3.85896">
        <ele>996.46</ele>
        <time>2016-04-24T07:10:18Z</time>
      </trkpt>
      <trkpt lat="44.69069" lon="3.85899">
        <ele>998.73</ele>
        <time>2016-04-24T07:10:39Z</time>
      </trkpt>
      <trkpt lat="44.69055" lon="3.85904">
        <ele>1001.08</ele>
        <time>2016-04-24T07:11:01Z</time>
      </trkpt>
      <trkpt lat="44.69053" lon="3.85903">
        <ele>1001.13</ele>
        <time>2016-04-24T07:11:05Z</time>
      </trkpt>
      <trkpt lat="44.69038" lon="3.85906">
        <ele>1004.16</ele>
        <time>2016-04-24T07:11:25Z</time>
      </trkpt>
      <trkpt lat="44.69023" lon="3.85909">
        <ele>1006.47</ele>
        <time>2016-04-24T07:11:43Z</time>
      </trkpt>
      <trkpt lat="44.69015" lon="3.8591">
        <ele>1007.25</ele>
        <time>2016-04-24T07:11:52Z</time>
      </trkpt>
      <trkpt lat="44.69002" lon="3.85919">
        <ele>1009.79</ele>
        <time>2016-04-24T07:12:11Z</time>
      </trkpt>
      <trkpt lat="44.68988" lon="3.85922">
        <ele>1011.79</ele>
        <time>2016-04-24T07:12:29Z</time>
      </trkpt>
      <trkpt lat="44.68974" lon="3.8593">
        <ele>1014.56</ele>
        <time>2016-04-24T07:12:47Z</time>
      </trkpt>
      <trkpt lat="44.68962" lon="3.85939">
        <ele>1017.53</ele>
        <time>2016-04-24T07:13:08Z</time>
      </trkpt>
      <trkpt lat="44.68948" lon="3.85944">
        <ele>1020.16</ele>
        <time>2016-04-24T07:13:29Z</time>
      </trkpt>
      <trkpt lat="44.68935" lon="3.85953">
        <ele>1022.32</ele>
        <time>2016-04-24T07:13:48Z</time>
      </trkpt>
      <trkpt lat="44.68921" lon="3.8596">
        <ele>1024.08</ele>
        <time>2016-04-24T07:14:08Z</time>
      </trkpt>
      <trkpt lat="44.68904" lon="3.85959">
        <ele>1027.12</ele>
        <time>2016-04-24T07:14:26Z</time>
      </trkpt>
      <trkpt lat="44.689" lon="3.8596">
        <ele>1027.82</ele>
        <time>2016-04-24T07:14:33Z</time>
      </trkpt>
      <trkpt lat="44.6889" lon="3.85966">
        <ele>1030.15</ele>
        <time>2016-04-24T07:14:53Z</time>
      </trkpt>
      <trkpt lat="44.68871" lon="3.85968">
        <ele>1031.41</ele>
        <time>2016-04-24T07:15:12Z</time>
      </trkpt>
      <trkpt lat="44.68856" lon="3.85975">
        <ele>1032.21</ele>
        <time>2016-04-24T07:15:33Z</time>
      </trkpt>
      <trkpt lat="44.68842" lon="3.85981">
        <ele>1033.2</ele>
        <time>2016-04-24T07:15:49Z</time>
      </trkpt>
      <trkpt lat="44.68827" lon="3.8599">
        <ele>1034.49</ele>
        <time>2016-04-24T07:16:08Z</time>
      </trkpt>
      <trkpt lat="44.68804" lon="3.85992">
        <ele>1035.58</ele>
        <time>2016-04-24T07:16:29Z</time>
      </trkpt>
      <trkpt lat="44.68801" lon="3.85992">
        <ele>1035.64</ele>
        <time>2016-04-24T07:16:32Z</time>
      </trkpt>
      <trkpt lat="44.68784" lon="3.85988">
        <ele>1035.22</ele>
        <time>2016-04-24T07:16:47Z</time>
      </trkpt>
      <trkpt lat="44.68778" lon="3.85991">
        <ele>1035.25</ele>
        <time>2016-04-24T07:16:53Z</time>
      </trkpt>
      <trkpt lat="44.68765" lon="3.86001">
        <ele>1036.29</ele>
        <time>2016-04-24T07:17:07Z</time>
      </trkpt>
      <trkpt lat="44.68753" lon="3.86015">
        <ele>1038.23</ele>
        <time>2016-04-24T07:17:25Z</time>
      </trkpt>
      <trkpt lat="44.68736" lon="3.86023">
        <ele>1039.59</ele>
        <time>2016-04-24T07:17:46Z</time>
      </trkpt>
      <trkpt lat="44.68716" lon="3.86025">
        <ele>1040.66</ele>
        <time>2016-04-24T07:18:05Z</time>
      </trkpt>
      <trkpt lat="44.68699" lon="3.8603">
        <ele>1041.99</ele>
        <time>2016-04-24T07:18:23Z</time>
      </trkpt>
      <trkpt lat="44.6868" lon="3.86035">
        <ele>1042.61</ele>
        <time>2016-04-24T07:18:42Z</time>
      </trkpt>
      <trkpt lat="44.68664" lon="3.86029">
        <ele>1043.63</ele>
        <time>2016-04-24T07:19:00Z</time>
      </trkpt>
      <trkpt lat="44.68654" lon="3.8603">
        <ele>1044.52</ele>
        <time>2016-04-24T07:19:08Z</time>
      </trkpt>
      <trkpt lat="44.68649" lon="3.86032">
        <ele>1044.68</ele>
        <time>2016-04-24T07:19:13Z</time>
      </trkpt>
      <trkpt lat="44.68643" lon="3.86036">
        <ele>1044.82</ele>
        <time>2016-04-24T07:19:18Z</time>
      </trkpt>
      <trkpt lat="44.6864" lon="3.86037">
        <ele>1044.88</ele>
        <time>2016-04-24T07:19:21Z</time>
      </trkpt>
      <trkpt lat="44.68632" lon="3.86038">
        <ele>1045.39</ele>
        <time>2016-04-24T07:19:29Z</time>
      </trkpt>
      <trkpt lat="44.68618" lon="3.86046">
        <ele>1046.08</ele>
        <time>2016-04-24T07:19:44Z</time>
      </trkpt>
      <trkpt lat="44.68602" lon="3.86052">
        <ele>1047.43</ele>
        <time>2016-04-24T07:20:01Z</time>
      </trkpt>
      <trkpt lat="44.68596" lon="3.86055">
        <ele>1047.93</ele>
        <time>2016-04-24T07:20:07Z</time>
      </trkpt>
      <trkpt lat="44.68581" lon="3.86063">
        <ele>1049.7</ele>
        <time>2016-04-24T07:20:23Z</time>
      </trkpt>
      <trkpt lat="44.68578" lon="3.86064">
        <ele>1050.16</ele>
        <time>2016-04-24T07:20:26Z</time>
      </trkpt>
      <trkpt lat="44.68576" lon="3.86065">
        <ele>1050.21</ele>
        <time>2016-04-24T07:20:28Z</time>
      </trkpt>
      <trkpt lat="44.68573" lon="3.86068">
        <ele>1050.3</ele>
        <time>2016-04-24T07:20:31Z</time>
      </trkpt>
      <trkpt lat="44.68568" lon="3.8607">
        <ele>1050.43</ele>
        <time>2016-04-24T07:20:36Z</time>
      </trkpt>
      <trkpt lat="44.68554" lon="3.86076">
        <ele>1051.57</ele>
        <time>2016-04-24T07:20:51Z</time>
      </trkpt>
      <trkpt lat="44.68547" lon="3.86081">
        <ele>1052.31</ele>
        <time>2016-04-24T07:20:58Z</time>
      </trkpt>
      <trkpt lat="44.68542" lon="3.86081">
        <ele>1052.38</ele>
        <time>2016-04-24T07:21:03Z</time>
      </trkpt>
      <trkpt lat="44.68536" lon="3.86082">
        <ele>1052.79</ele>
        <time>2016-04-24T07:21:08Z</time>
      </trkpt>
      <trkpt lat="44.68523" lon="3.86086">
        <ele>1053.64</ele>
        <time>2016-04-24T07:21:20Z</time>
      </trkpt>
      <trkpt lat="44.68511" lon="3.86087">
        <ele>1053.5</ele>
        <time>2016-04-24T07:21:33Z</time>
      </trkpt>
      <trkpt lat="44.68489" lon="3.86091">
        <ele>1053.12</ele>
        <time>2016-04-24T07:21:54Z</time>
      </trkpt>
      <trkpt lat="44.68481" lon="3.86091">
        <ele>1053.11</ele>
        <time>2016-04-24T07:22:02Z</time>
      </trkpt>
      <trkpt lat="44.68464" lon="3.86095">
        <ele>1053.11</ele>
        <time>2016-04-24T07:22:22Z</time>
      </trkpt>
      <trkpt lat="44.68443" lon="3.86094">
        <ele>1053.14</ele>
        <time>2016-04-24T07:22:40Z</time>
      </trkpt>
      <trkpt lat="44.68436" lon="3.86094">
        <ele>1053.26</ele>
        <time>2016-04-24T07:22:45Z</time>
      </trkpt>
      <trkpt lat="44.68434" lon="3.86095">
        <ele>1053.31</ele>
        <time>2016-04-24T07:22:47Z</time>
      </trkpt>
      <trkpt lat="44.68418" lon="3.86095">
        <ele>1053.27</ele>
        <time>2016-04-24T07:23:01Z</time>
      </trkpt>
      <trkpt lat="44.68411" lon="3.86097">
        <ele>1053.14</ele>
        <time>2016-04-24T07:23:06Z</time>
      </trkpt>
      <trkpt lat="44.68405" lon="3.86101">
        <ele>1053.18</ele>
        <time>2016-04-24T07:23:13Z</time>
      </trkpt>
      <trkpt lat="44.68397" lon="3.86102">
        <ele>1053.06</ele>
        <time>2016-04-24T07:23:19Z</time>
      </trkpt>
      <trkpt lat="44.68394" lon="3.86101">
        <ele>1053.19</ele>
        <time>2016-04-24T07:23:22Z</time>
      </trkpt>
      <trkpt lat="44.68391" lon="3.861">
        <ele>1053.61</ele>
        <time>2016-04-24T07:23:25Z</time>
      </trkpt>
      <trkpt lat="44.68379" lon="3.86099">
        <ele>1053.1</ele>
        <time>2016-04-24T07:23:35Z</time>
      </trkpt>
      <trkpt lat="44.68367" lon="3.861">
        <ele>1052.88</ele>
        <time>2016-04-24T07:23:45Z</time>
      </trkpt>
      <trkpt lat="44.68352" lon="3.86095">
        <ele>1053.45</ele>
        <time>2016-04-24T07:23:59Z</time>
      </trkpt>
      <trkpt lat="44.68348" lon="3.86094">
        <ele>1053.72</ele>
        <time>2016-04-24T07:24:02Z</time>
      </trkpt>
      <trkpt lat="44.68335" lon="3.86095">
        <ele>1053.57</ele>
        <time>2016-04-24T07:24:14Z</time>
      </trkpt>
      <trkpt lat="44.68319" lon="3.86102">
        <ele>1054.31</ele>
        <time>2016-04-24T07:24:28Z</time>
      </trkpt>
      <trkpt lat="44.68308" lon="3.86104">
        <ele>1054.25</ele>
        <time>2016-04-24T07:24:37Z</time>
      </trkpt>
      <trkpt lat="44.68299" lon="3.86105">
        <ele>1053.91</ele>
        <time>2016-04-24T07:24:44Z</time>
      </trkpt>
      <trkpt lat="44.68294" lon="3.86106">
        <ele>1053.68</ele>
        <time>2016-04-24T07:24:49Z</time>
      </trkpt>
      <trkpt lat="44.68289" lon="3.86106">
        <ele>1053.83</ele>
        <time>2016-04-24T07:24:53Z</time>
      </trkpt>
      <trkpt lat="44.68287" lon="3.86106">
        <ele>1053.94</ele>
        <time>2016-04-24T07:24:55Z</time>
      </trkpt>
      <trkpt lat="44.68282" lon="3.86108">
        <ele>1053.99</ele>
        <time>2016-04-24T07:24:59Z</time>
      </trkpt>
      <trkpt lat="44.68275" lon="3.86111">
        <ele>1053.15</ele>
        <time>2016-04-24T07:25:06Z</time>
      </trkpt>
      <trkpt lat="44.68258" lon="3.8612">
        <ele>1053.79</ele>
        <time>2016-04-24T07:25:22Z</time>
      </trkpt>
      <trkpt lat="44.68246" lon="3.86123">
        <ele>1053.64</ele>
        <time>2016-04-24T07:25:34Z</time>
      </trkpt>
      <trkpt lat="44.68241" lon="3.86127">
        <ele>1053.37</ele>
        <time>2016-04-24T07:25:40Z</time>
      </trkpt>
      <trkpt lat="44.68234" lon="3.86132">
        <ele>1053.16</ele>
        <time>2016-04-24T07:25:46Z</time>
      </trkpt>
      <trkpt lat="44.68229" lon="3.86133">
        <ele>1053.34</ele>
        <time>2016-04-24T07:25:51Z</time>
      </trkpt>
      <trkpt lat="44.68223" lon="3.86137">
        <ele>1053.65</ele>
        <time>2016-04-24T07:25:56Z</time>
      </trkpt>
      <trkpt lat="44.68216" lon="3.86142">
        <ele>1053.89</ele>
        <time>2016-04-24T07:26:03Z</time>
      </trkpt>
      <trkpt lat="44.68206" lon="3.86146">
        <ele>1053.9</ele>
        <time>2016-04-24T07:26:11Z</time>
      </trkpt>
      <trkpt lat="44.68205" lon="3.86147">
        <ele>1053.79</ele>
        <time>2016-04-24T07:26:13Z</time>
      </trkpt>
      <trkpt lat="44.68199" lon="3.8615">
        <ele>1053.59</ele>
        <time>2016-04-24T07:26:18Z</time>
      </trkpt>
      <trkpt lat="44.68194" lon="3.86151">
        <ele>1053.47</ele>
        <time>2016-04-24T07:26:22Z</time>
      </trkpt>
      <trkpt lat="44.68192" lon="3.86153">
        <ele>1053.46</ele>
        <time>2016-04-24T07:26:24Z</time>
      </trkpt>
      <trkpt lat="44.68187" lon="3.86155">
        <ele>1053.35</ele>
        <time>2016-04-24T07:26:29Z</time>
      </trkpt>
      <trkpt lat="44.68172" lon="3.86166">
        <ele>1052.8</ele>
        <time>2016-04-24T07:26:43Z</time>
      </trkpt>
      <trkpt lat="44.68159" lon="3.86172">
        <ele>1052.8</ele>
        <time>2016-04-24T07:26:54Z</time>
      </trkpt>
      <trkpt lat="44.68139" lon="3.86177">
        <ele>1053.41</ele>
        <time>2016-04-24T07:27:11Z</time>
      </trkpt>
      <trkpt lat="44.68121" lon="3.8618">
        <ele>1052.59</ele>
        <time>2016-04-24T07:27:26Z</time>
      </trkpt>
      <trkpt lat="44.68109" lon="3.86181">
        <ele>1051.58</ele>
        <time>2016-04-24T07:27:36Z</time>
      </trkpt>
      <trkpt lat="44.68094" lon="3.8618">
        <ele>1051</ele>
        <time>2016-04-24T07:27:49Z</time>
      </trkpt>
      <trkpt lat="44.68078" lon="3.8618">
        <ele>1050.76</ele>
        <time>2016-04-24T07:28:02Z</time>
      </trkpt>
      <trkpt lat="44.68062" lon="3.86176">
        <ele>1049.33</ele>
        <time>2016-04-24T07:28:16Z</time>
      </trkpt>
      <trkpt lat="44.68042" lon="3.8617">
        <ele>1047.8</ele>
        <time>2016-04-24T07:28:34Z</time>
      </trkpt>
      <trkpt lat="44.68037" lon="3.86166">
        <ele>1047.38</ele>
        <time>2016-04-24T07:28:39Z</time>
      </trkpt>
      <trkpt lat="44.68021" lon="3.86148">
        <ele>1045.93</ele>
        <time>2016-04-24T07:28:57Z</time>
      </trkpt>
      <trkpt lat="44.68012" lon="3.86135">
        <ele>1045.93</ele>
        <time>2016-04-24T07:29:10Z</time>
      </trkpt>
      <trkpt lat="44.67998" lon="3.86115">
        <ele>1045.7</ele>
        <time>2016-04-24T07:29:27Z</time>
      </trkpt>
      <trkpt lat="44.67986" lon="3.86104">
        <ele>1045.82</ele>
        <time>2016-04-24T07:29:40Z</time>
      </trkpt>
      <trkpt lat="44.67973" lon="3.86091">
        <ele>1045.45</ele>
        <time>2016-04-24T07:29:55Z</time>
      </trkpt>
      <trkpt lat="44.67966" lon="3.86081">
        <ele>1045.81</ele>
        <time>2016-04-24T07:30:10Z</time>
      </trkpt>
      <trkpt lat="44.67967" lon="3.86079">
        <ele>1045.74</ele>
        <time>2016-04-24T07:30:39Z</time>
      </trkpt>
      <trkpt lat="44.67966" lon="3.86081">
        <ele>1045.28</ele>
        <time>2016-04-24T07:31:09Z</time>
      </trkpt>
      <trkpt lat="44.67966" lon="3.8608">
        <ele>1045.81</ele>
        <time>2016-04-24T07:31:40Z</time>
      </trkpt>
      <trkpt lat="44.67966" lon="3.8608">
        <ele>1045.4</ele>
        <time>2016-04-24T07:32:03Z</time>
      </trkpt>
      <trkpt lat="44.67966" lon="3.86081">
        <ele>1044.81</ele>
        <time>2016-04-24T07:32:28Z</time>
      </trkpt>
      <trkpt lat="44.67966" lon="3.8608">
        <ele>1045.67</ele>
        <time>2016-04-24T07:32:55Z</time>
      </trkpt>
      <trkpt lat="44.67966" lon="3.86081">
        <ele>1045.58</ele>
        <time>2016-04-24T07:33:23Z</time>
      </trkpt>
      <trkpt lat="44.6796" lon="3.86073">
        <ele>1045.23</ele>
        <time>2016-04-24T07:33:35Z</time>
      </trkpt>
      <trkpt lat="44.67954" lon="3.86066">
        <ele>1045.4</ele>
        <time>2016-04-24T07:33:43Z</time>
      </trkpt>
      <trkpt lat="44.67952" lon="3.86063">
        <ele>1045.61</ele>
        <time>2016-04-24T07:33:46Z</time>
      </trkpt>
      <trkpt lat="44.67939" lon="3.86047">
        <ele>1046.03</ele>
        <time>2016-04-24T07:34:01Z</time>
      </trkpt>
      <trkpt lat="44.67927" lon="3.86032">
        <ele>1045.69</ele>
        <time>2016-04-24T07:34:15Z</time>
      </trkpt>
      <trkpt lat="44.67912" lon="3.86021">
        <ele>1046.73</ele>
        <time>2016-04-24T07:34:30Z</time>
      </trkpt>
      <trkpt lat="44.67899" lon="3.86014">
        <ele>1046.45</ele>
        <time>2016-04-24T07:34:42Z</time>
      </trkpt>
      <trkpt lat="44.67885" lon="3.86005">
        <ele>1046.3</ele>
        <time>2016-04-24T07:34:57Z</time>
      </trkpt>
      <trkpt lat="44.6787" lon="3.85994">
        <ele>1047.56</ele>
        <time>2016-04-24T07:35:11Z</time>
      </trkpt>
      <trkpt lat="44.67861" lon="3.85987">
        <ele>1048.49</ele>
        <time>2016-04-24T07:35:20Z</time>
      </trkpt>
      <trkpt lat="44.67857" lon="3.85983">
        <ele>1048.75</ele>
        <time>2016-04-24T07:35:25Z</time>
      </trkpt>
      <trkpt lat="44.67847" lon="3.85968">
        <ele>1049.08</ele>
        <time>2016-04-24T07:35:38Z</time>
      </trkpt>
      <trkpt lat="44.67836" lon="3.85954">
        <ele>1049.18</ele>
        <time>2016-04-24T07:35:51Z</time>
      </trkpt>
      <trkpt lat="44.67819" lon="3.85945">
        <ele>1051.05</ele>
        <time>2016-04-24T07:36:07Z</time>
      </trkpt>
      <trkpt lat="44.67805" lon="3.85947">
        <ele>1051.46</ele>
        <time>2016-04-24T07:36:21Z</time>
      </trkpt>
      <trkpt lat="44.67792" lon="3.85947">
        <ele>1051.28</ele>
        <time>2016-04-24T07:36:33Z</time>
      </trkpt>
      <trkpt lat="44.67771" lon="3.85946">
        <ele>1052.32</ele>
        <time>2016-04-24T07:36:51Z</time>
      </trkpt>
      <trkpt lat="44.67764" lon="3.85945">
        <ele>1052.59</ele>
        <time>2016-04-24T07:36:58Z</time>
      </trkpt>
      <trkpt lat="44.6776" lon="3.85943">
        <ele>1052.86</ele>
        <time>2016-04-24T07:37:02Z</time>
      </trkpt>
      <trkpt lat="44.67746" lon="3.85938">
        <ele>1053.78</ele>
        <time>2016-04-24T07:37:15Z</time>
      </trkpt>
      <trkpt lat="44.67728" lon="3.85929">
        <ele>1054.21</ele>
        <time>2016-04-24T07:37:32Z</time>
      </trkpt>
      <trkpt lat="44.67714" lon="3.8592">
        <ele>1054.53</ele>
        <time>2016-04-24T07:37:46Z</time>
      </trkpt>
      <trkpt lat="44.677" lon="3.85917">
        <ele>1055.38</ele>
        <time>2016-04-24T07:37:59Z</time>
      </trkpt>
      <trkpt lat="44.67697" lon="3.85917">
        <ele>1055.45</ele>
        <time>2016-04-24T07:38:02Z</time>
      </trkpt>
      <trkpt lat="44.67689" lon="3.85915">
        <ele>1056.05</ele>
        <time>2016-04-24T07:38:10Z</time>
      </trkpt>
      <trkpt lat="44.67681" lon="3.85912">
        <ele>1057.19</ele>
        <time>2016-04-24T07:38:19Z</time>
      </trkpt>
      <trkpt lat="44.67663" lon="3.85913">
        <ele>1057.04</ele>
        <time>2016-04-24T07:38:34Z</time>
      </trkpt>
      <trkpt lat="44.6766" lon="3.85913">
        <ele>1056.72</ele>
        <time>2016-04-24T07:38:37Z</time>
      </trkpt>
      <trkpt lat="44.6765" lon="3.85916">
        <ele>1054.87</ele>
        <time>2016-04-24T07:38:47Z</time>
      </trkpt>
      <trkpt lat="44.67647" lon="3.85915">
        <ele>1054.43</ele>
        <time>2016-04-24T07:38:50Z</time>
      </trkpt>
      <trkpt lat="44.67628" lon="3.8592">
        <ele>1052.84</ele>
        <time>2016-04-24T07:39:08Z</time>
      </trkpt>
      <trkpt lat="44.67611" lon="3.85922">
        <ele>1051.27</ele>
        <time>2016-04-24T07:39:24Z</time>
      </trkpt>
      <trkpt lat="44.67609" lon="3.85921">
        <ele>1051.08</ele>
        <time>2016-04-24T07:39:25Z</time>
      </trkpt>
      <trkpt lat="44.67595" lon="3.85924">
        <ele>1049.41</ele>
        <time>2016-04-24T07:39:37Z</time>
      </trkpt>
      <trkpt lat="44.67589" lon="3.85918">
        <ele>1048.91</ele>
        <time>2016-04-24T07:39:50Z</time>
      </trkpt>
      <trkpt lat="44.67585" lon="3.8591">
        <ele>1048.11</ele>
        <time>2016-04-24T07:39:58Z</time>
      </trkpt>
      <trkpt lat="44.67575" lon="3.85895">
        <ele>1046.74</ele>
        <time>2016-04-24T07:40:13Z</time>
      </trkpt>
      <trkpt lat="44.67571" lon="3.85891">
        <ele>1045.93</ele>
        <time>2016-04-24T07:40:18Z</time>
      </trkpt>
      <trkpt lat="44.67558" lon="3.85869">
        <ele>1044.3</ele>
        <time>2016-04-24T07:40:34Z</time>
      </trkpt>
      <trkpt lat="44.67552" lon="3.85858">
        <ele>1043.93</ele>
        <time>2016-04-24T07:40:45Z</time>
      </trkpt>
      <trkpt lat="44.67549" lon="3.85855">
        <ele>1044.01</ele>
        <time>2016-04-24T07:40:49Z</time>
      </trkpt>
      <trkpt lat="44.67538" lon="3.8585">
        <ele>1045.62</ele>
        <time>2016-04-24T07:41:01Z</time>
      </trkpt>
      <trkpt lat="44.67525" lon="3.85846">
        <ele>1046.44</ele>
        <time>2016-04-24T07:41:17Z</time>
      </trkpt>
      <trkpt lat="44.67522" lon="3.8585">
        <ele>1046.51</ele>
        <time>2016-04-24T07:41:38Z</time>
      </trkpt>
      <trkpt lat="44.67521" lon="3.85854">
        <ele>1046.57</ele>
        <time>2016-04-24T07:42:03Z</time>
      </trkpt>
      <trkpt lat="44.67517" lon="3.85847">
        <ele>1046.81</ele>
        <time>2016-04-24T07:42:26Z</time>
      </trkpt>
      <trkpt lat="44.67513" lon="3.85843">
        <ele>1046.57</ele>
        <time>2016-04-24T07:42:31Z</time>
      </trkpt>
      <trkpt lat="44.67497" lon="3.85835">
        <ele>1048.34</ele>
        <time>2016-04-24T07:42:46Z</time>
      </trkpt>
      <trkpt lat="44.67485" lon="3.85829">
        <ele>1048.79</ele>
        <time>2016-04-24T07:42:58Z</time>
      </trkpt>
      <trkpt lat="44.67466" lon="3.8582">
        <ele>1048.85</ele>
        <time>2016-04-24T07:43:15Z</time>
      </trkpt>
      <trkpt lat="44.67459" lon="3.85816">
        <ele>1048.85</ele>
        <time>2016-04-24T07:43:21Z</time>
      </trkpt>
      <trkpt lat="44.67455" lon="3.85815">
        <ele>1049.02</ele>
        <time>2016-04-24T07:43:24Z</time>
      </trkpt>
      <trkpt lat="44.67453" lon="3.85814">
        <ele>1049.09</ele>
        <time>2016-04-24T07:43:27Z</time>
      </trkpt>
      <trkpt lat="44.67436" lon="3.85805">
        <ele>1048.5</ele>
        <time>2016-04-24T07:43:41Z</time>
      </trkpt>
      <trkpt lat="44.67429" lon="3.858">
        <ele>1049.18</ele>
        <time>2016-04-24T07:43:48Z</time>
      </trkpt>
      <trkpt lat="44.67414" lon="3.85782">
        <ele>1050.17</ele>
        <time>2016-04-24T07:44:06Z</time>
      </trkpt>
      <trkpt lat="44.67402" lon="3.85763">
        <ele>1049.86</ele>
        <time>2016-04-24T07:44:24Z</time>
      </trkpt>
      <trkpt lat="44.67395" lon="3.8575">
        <ele>1049.97</ele>
        <time>2016-04-24T07:44:34Z</time>
      </trkpt>
      <trkpt lat="44.67382" lon="3.85724">
        <ele>1050.66</ele>
        <time>2016-04-24T07:44:53Z</time>
      </trkpt>
      <trkpt lat="44.67374" lon="3.85706">
        <ele>1050.76</ele>
        <time>2016-04-24T07:45:07Z</time>
      </trkpt>
      <trkpt lat="44.67367" lon="3.85686">
        <ele>1052.45</ele>
        <time>2016-04-24T07:45:21Z</time>
      </trkpt>
      <trkpt lat="44.6736" lon="3.85671">
        <ele>1051.78</ele>
        <time>2016-04-24T07:45:33Z</time>
      </trkpt>
      <trkpt lat="44.67354" lon="3.85661">
        <ele>1052.78</ele>
        <time>2016-04-24T07:45:43Z</time>
      </trkpt>
      <trkpt lat="44.6734" lon="3.8565">
        <ele>1053.87</ele>
        <time>2016-04-24T07:45:56Z</time>
      </trkpt>
      <trkpt lat="44.67337" lon="3.85649">
        <ele>1053.87</ele>
        <time>2016-04-24T07:45:58Z</time>
      </trkpt>
      <trkpt lat="44.67329" lon="3.85645">
        <ele>1054.19</ele>
        <time>2016-04-24T07:46:05Z</time>
      </trkpt>
      <trkpt lat="44.67324" lon="3.85642">
        <ele>1054.01</ele>
        <time>2016-04-24T07:46:10Z</time>
      </trkpt>
      <trkpt lat="44.67312" lon="3.85639">
        <ele>1054.1</ele>
        <time>2016-04-24T07:46:20Z</time>
      </trkpt>
      <trkpt lat="44.67296" lon="3.85634">
        <ele>1054.86</ele>
        <time>2016-04-24T07:46:35Z</time>
      </trkpt>
      <trkpt lat="44.67287" lon="3.85629">
        <ele>1055.51</ele>
        <time>2016-04-24T07:46:43Z</time>
      </trkpt>
      <trkpt lat="44.67281" lon="3.85626">
        <ele>1055.61</ele>
        <time>2016-04-24T07:46:49Z</time>
      </trkpt>
      <trkpt lat="44.67278" lon="3.85624">
        <ele>1055.59</ele>
        <time>2016-04-24T07:46:52Z</time>
      </trkpt>
      <trkpt lat="44.67259" lon="3.85614">
        <ele>1056.3</ele>
        <time>2016-04-24T07:47:08Z</time>
      </trkpt>
      <trkpt lat="44.67246" lon="3.85602">
        <ele>1055.71</ele>
        <time>2016-04-24T07:47:22Z</time>
      </trkpt>
      <trkpt lat="44.67234" lon="3.85589">
        <ele>1055.06</ele>
        <time>2016-04-24T07:47:34Z</time>
      </trkpt>
      <trkpt lat="44.67222" lon="3.85573">
        <ele>1055.04</ele>
        <time>2016-04-24T07:47:50Z</time>
      </trkpt>
      <trkpt lat="44.67209" lon="3.85556">
        <ele>1054.83</ele>
        <time>2016-04-24T07:48:06Z</time>
      </trkpt>
      <trkpt lat="44.67197" lon="3.85545">
        <ele>1055.1</ele>
        <time>2016-04-24T07:48:18Z</time>
      </trkpt>
      <trkpt lat="44.67193" lon="3.85542">
        <ele>1054.99</ele>
        <time>2016-04-24T07:48:22Z</time>
      </trkpt>
      <trkpt lat="44.67179" lon="3.85525">
        <ele>1054.81</ele>
        <time>2016-04-24T07:48:37Z</time>
      </trkpt>
      <trkpt lat="44.67171" lon="3.85515">
        <ele>1054.33</ele>
        <time>2016-04-24T07:48:46Z</time>
      </trkpt>
      <trkpt lat="44.67155" lon="3.85503">
        <ele>1053.77</ele>
        <time>2016-04-24T07:49:01Z</time>
      </trkpt>
      <trkpt lat="44.67142" lon="3.85493">
        <ele>1052.62</ele>
        <time>2016-04-24T07:49:14Z</time>
      </trkpt>
      <trkpt lat="44.67128" lon="3.85489">
        <ele>1051.87</ele>
        <time>2016-04-24T07:49:28Z</time>
      </trkpt>
      <trkpt lat="44.67125" lon="3.85488">
        <ele>1051.56</ele>
        <time>2016-04-24T07:49:31Z</time>
      </trkpt>
      <trkpt lat="44.67107" lon="3.85485">
        <ele>1050.52</ele>
        <time>2016-04-24T07:49:47Z</time>
      </trkpt>
      <trkpt lat="44.67104" lon="3.85485">
        <ele>1050.42</ele>
        <time>2016-04-24T07:49:49Z</time>
      </trkpt>
      <trkpt lat="44.67099" lon="3.85483">
        <ele>1050.33</ele>
        <time>2016-04-24T07:49:53Z</time>
      </trkpt>
      <trkpt lat="44.67095" lon="3.85483">
        <ele>1050.25</ele>
        <time>2016-04-24T07:49:56Z</time>
      </trkpt>
      <trkpt lat="44.67078" lon="3.8549">
        <ele>1050.06</ele>
        <time>2016-04-24T07:50:11Z</time>
      </trkpt>
      <trkpt lat="44.67064" lon="3.85495">
        <ele>1049.49</ele>
        <time>2016-04-24T07:50:24Z</time>
      </trkpt>
      <trkpt lat="44.67055" lon="3.85495">
        <ele>1049.55</ele>
        <time>2016-04-24T07:50:32Z</time>
      </trkpt>
      <trkpt lat="44.67051" lon="3.85496">
        <ele>1049.75</ele>
        <time>2016-04-24T07:50:35Z</time>
      </trkpt>
      <trkpt lat="44.67033" lon="3.855">
        <ele>1049.56</ele>
        <time>2016-04-24T07:50:50Z</time>
      </trkpt>
      <trkpt lat="44.67021" lon="3.855">
        <ele>1049.53</ele>
        <time>2016-04-24T07:50:59Z</time>
      </trkpt>
      <trkpt lat="44.67002" lon="3.855">
        <ele>1049.65</ele>
        <time>2016-04-24T07:51:14Z</time>
      </trkpt>
      <trkpt lat="44.66996" lon="3.85497">
        <ele>1049.47</ele>
        <time>2016-04-24T07:51:20Z</time>
      </trkpt>
      <trkpt lat="44.66981" lon="3.85486">
        <ele>1049.2</ele>
        <time>2016-04-24T07:51:35Z</time>
      </trkpt>
      <trkpt lat="44.66968" lon="3.85472">
        <ele>1048.77</ele>
        <time>2016-04-24T07:51:49Z</time>
      </trkpt>
      <trkpt lat="44.66962" lon="3.85468">
        <ele>1048.57</ele>
        <time>2016-04-24T07:51:56Z</time>
      </trkpt>
      <trkpt lat="44.66957" lon="3.85464">
        <ele>1048.5</ele>
        <time>2016-04-24T07:52:00Z</time>
      </trkpt>
      <trkpt lat="44.66951" lon="3.85459">
        <ele>1048.8</ele>
        <time>2016-04-24T07:52:07Z</time>
      </trkpt>
      <trkpt lat="44.66935" lon="3.85452">
        <ele>1049.19</ele>
        <time>2016-04-24T07:52:21Z</time>
      </trkpt>
      <trkpt lat="44.66917" lon="3.85454">
        <ele>1049.65</ele>
        <time>2016-04-24T07:52:39Z</time>
      </trkpt>
      <trkpt lat="44.66916" lon="3.85455">
        <ele>1049.73</ele>
        <time>2016-04-24T07:52:40Z</time>
      </trkpt>
      <trkpt lat="44.66905" lon="3.85469">
        <ele>1049.44</ele>
        <time>2016-04-24T07:52:53Z</time>
      </trkpt>
      <trkpt lat="44.66894" lon="3.85486">
        <ele>1049.56</ele>
        <time>2016-04-24T07:53:10Z</time>
      </trkpt>
      <trkpt lat="44.66884" lon="3.85497">
        <ele>1049.7</ele>
        <time>2016-04-24T07:53:20Z</time>
      </trkpt>
      <trkpt lat="44.66879" lon="3.85503">
        <ele>1049.48</ele>
        <time>2016-04-24T07:53:25Z</time>
      </trkpt>
      <trkpt lat="44.66877" lon="3.85505">
        <ele>1049.46</ele>
        <time>2016-04-24T07:53:27Z</time>
      </trkpt>
      <trkpt lat="44.66865" lon="3.8552">
        <ele>1050.22</ele>
        <time>2016-04-24T07:53:42Z</time>
      </trkpt>
      <trkpt lat="44.66852" lon="3.85531">
        <ele>1050.42</ele>
        <time>2016-04-24T07:53:56Z</time>
      </trkpt>
      <trkpt lat="44.66839" lon="3.8554">
        <ele>1050.83</ele>
        <time>2016-04-24T07:54:13Z</time>
      </trkpt>
      <trkpt lat="44.66838" lon="3.85541">
        <ele>1050.84</ele>
        <time>2016-04-24T07:54:14Z</time>
      </trkpt>
      <trkpt lat="44.66824" lon="3.85546">
        <ele>1051.98</ele>
        <time>2016-04-24T07:54:26Z</time>
      </trkpt>
      <trkpt lat="44.66809" lon="3.85548">
        <ele>1052.11</ele>
        <time>2016-04-24T07:54:42Z</time>
      </trkpt>
      <trkpt lat="44.66806" lon="3.8555">
        <ele>1052.29</ele>
        <time>2016-04-24T07:54:45Z</time>
      </trkpt>
      <trkpt lat="44.66801" lon="3.85552">
        <ele>1052.47</ele>
        <time>2016-04-24T07:54:50Z</time>
      </trkpt>
      <trkpt lat="44.66782" lon="3.85553">
        <ele>1053.62</ele>
        <time>2016-04-24T07:55:06Z</time>
      </trkpt>
      <trkpt lat="44.66766" lon="3.85562">
        <ele>1055.36</ele>
        <time>2016-04-24T07:55:22Z</time>
      </trkpt>
      <trkpt lat="44.66757" lon="3.85572">
        <ele>1056.63</ele>
        <time>2016-04-24T07:55:30Z</time>
      </trkpt>
      <trkpt lat="44.66753" lon="3.85572">
        <ele>1056.69</ele>
        <time>2016-04-24T07:55:33Z</time>
      </trkpt>
      <trkpt lat="44.66737" lon="3.85579">
        <ele>1056.59</ele>
        <time>2016-04-24T07:55:45Z</time>
      </trkpt>
      <trkpt lat="44.66731" lon="3.8558">
        <ele>1056.74</ele>
        <time>2016-04-24T07:55:50Z</time>
      </trkpt>
      <trkpt lat="44.66712" lon="3.8558">
        <ele>1057.44</ele>
        <time>2016-04-24T07:56:06Z</time>
      </trkpt>
      <trkpt lat="44.66711" lon="3.85579">
        <ele>1057.51</ele>
        <time>2016-04-24T07:56:07Z</time>
      </trkpt>
      <trkpt lat="44.66699" lon="3.85564">
        <ele>1060.4</ele>
        <time>2016-04-24T07:56:25Z</time>
      </trkpt>
      <trkpt lat="44.66691" lon="3.85545">
        <ele>1060.75</ele>
        <time>2016-04-24T07:56:40Z</time>
      </trkpt>
      <trkpt lat="44.66681" lon="3.85525">
        <ele>1061.3</ele>
        <time>2016-04-24T07:56:59Z</time>
      </trkpt>
      <trkpt lat="44.66669" lon="3.85505">
        <ele>1063.75</ele>
        <time>2016-04-24T07:57:20Z</time>
      </trkpt>
      <trkpt lat="44.66657" lon="3.85482">
        <ele>1065.36</ele>
        <time>2016-04-24T07:57:40Z</time>
      </trkpt>
      <trkpt lat="44.66647" lon="3.85457">
        <ele>1068.12</ele>
        <time>2016-04-24T07:57:59Z</time>
      </trkpt>
      <trkpt lat="44.66644" lon="3.85432">
        <ele>1070.27</ele>
        <time>2016-04-24T07:58:20Z</time>
      </trkpt>
      <trkpt lat="44.66644" lon="3.85396">
        <ele>1072.13</ele>
        <time>2016-04-24T07:58:41Z</time>
      </trkpt>
      <trkpt lat="44.66644" lon="3.85388">
        <ele>1072.77</ele>
        <time>2016-04-24T07:58:48Z</time>
      </trkpt>
      <trkpt lat="44.66644" lon="3.85365">
        <ele>1074.14</ele>
        <time>2016-04-24T07:59:05Z</time>
      </trkpt>
      <trkpt lat="44.66641" lon="3.8534">
        <ele>1076.28</ele>
        <time>2016-04-24T07:59:23Z</time>
      </trkpt>
      <trkpt lat="44.66639" lon="3.85322">
        <ele>1077.97</ele>
        <time>2016-04-24T07:59:39Z</time>
      </trkpt>
      <trkpt lat="44.66636" lon="3.85306">
        <ele>1077.53</ele>
        <time>2016-04-24T07:59:52Z</time>
      </trkpt>
      <trkpt lat="44.66632" lon="3.85285">
        <ele>1078.79</ele>
        <time>2016-04-24T08:00:09Z</time>
      </trkpt>
      <trkpt lat="44.66626" lon="3.85258">
        <ele>1079.56</ele>
        <time>2016-04-24T08:00:25Z</time>
      </trkpt>
      <trkpt lat="44.66625" lon="3.85251">
        <ele>1079.27</ele>
        <time>2016-04-24T08:00:29Z</time>
      </trkpt>
      <trkpt lat="44.6662" lon="3.85229">
        <ele>1079.83</ele>
        <time>2016-04-24T08:00:45Z</time>
      </trkpt>
      <trkpt lat="44.66614" lon="3.85211">
        <ele>1080.81</ele>
        <time>2016-04-24T08:01:01Z</time>
      </trkpt>
      <trkpt lat="44.6661" lon="3.85189">
        <ele>1082.24</ele>
        <time>2016-04-24T08:01:18Z</time>
      </trkpt>
      <trkpt lat="44.66605" lon="3.85169">
        <ele>1083.82</ele>
        <time>2016-04-24T08:01:35Z</time>
      </trkpt>
      <trkpt lat="44.66599" lon="3.8515">
        <ele>1086.26</ele>
        <time>2016-04-24T08:01:55Z</time>
      </trkpt>
      <trkpt lat="44.66597" lon="3.85138">
        <ele>1089.3</ele>
        <time>2016-04-24T08:02:11Z</time>
      </trkpt>
      <trkpt lat="44.66589" lon="3.85111">
        <ele>1091.43</ele>
        <time>2016-04-24T08:02:31Z</time>
      </trkpt>
      <trkpt lat="44.66581" lon="3.85089">
        <ele>1093.44</ele>
        <time>2016-04-24T08:02:49Z</time>
      </trkpt>
      <trkpt lat="44.66574" lon="3.85072">
        <ele>1095.71</ele>
        <time>2016-04-24T08:03:08Z</time>
      </trkpt>
      <trkpt lat="44.66564" lon="3.85049">
        <ele>1097.44</ele>
        <time>2016-04-24T08:03:28Z</time>
      </trkpt>
      <trkpt lat="44.66563" lon="3.85028">
        <ele>1099.96</ele>
        <time>2016-04-24T08:03:45Z</time>
      </trkpt>
      <trkpt lat="44.6656" lon="3.85">
        <ele>1100.62</ele>
        <time>2016-04-24T08:04:02Z</time>
      </trkpt>
      <trkpt lat="44.66561" lon="3.84982">
        <ele>1101.78</ele>
        <time>2016-04-24T08:04:18Z</time>
      </trkpt>
      <trkpt lat="44.66558" lon="3.84969">
        <ele>1102.68</ele>
        <time>2016-04-24T08:04:38Z</time>
      </trkpt>
      <trkpt lat="44.66554" lon="3.84954">
        <ele>1102.68</ele>
        <time>2016-04-24T08:04:51Z</time>
      </trkpt>
      <trkpt lat="44.6655" lon="3.84939">
        <ele>1104.33</ele>
        <time>2016-04-24T08:05:04Z</time>
      </trkpt>
      <trkpt lat="44.66546" lon="3.84919">
        <ele>1106.26</ele>
        <time>2016-04-24T08:05:22Z</time>
      </trkpt>
      <trkpt lat="44.66541" lon="3.84899">
        <ele>1108.66</ele>
        <time>2016-04-24T08:05:41Z</time>
      </trkpt>
      <trkpt lat="44.66535" lon="3.84879">
        <ele>1110.48</ele>
        <time>2016-04-24T08:05:59Z</time>
      </trkpt>
      <trkpt lat="44.66527" lon="3.84859">
        <ele>1112.95</ele>
        <time>2016-04-24T08:06:21Z</time>
      </trkpt>
      <trkpt lat="44.6652" lon="3.84839">
        <ele>1113.82</ele>
        <time>2016-04-24T08:06:40Z</time>
      </trkpt>
      <trkpt lat="44.6651" lon="3.84821">
        <ele>1115.68</ele>
        <time>2016-04-24T08:06:57Z</time>
      </trkpt>
      <trkpt lat="44.66496" lon="3.84801">
        <ele>1118.14</ele>
        <time>2016-04-24T08:07:18Z</time>
      </trkpt>
      <trkpt lat="44.66484" lon="3.84787">
        <ele>1118.69</ele>
        <time>2016-04-24T08:07:35Z</time>
      </trkpt>
      <trkpt lat="44.66468" lon="3.84774">
        <ele>1120.1</ele>
        <time>2016-04-24T08:07:54Z</time>
      </trkpt>
      <trkpt lat="44.66458" lon="3.84764">
        <ele>1121.28</ele>
        <time>2016-04-24T08:08:08Z</time>
      </trkpt>
      <trkpt lat="44.66445" lon="3.8475">
        <ele>1121.99</ele>
        <time>2016-04-24T08:08:25Z</time>
      </trkpt>
      <trkpt lat="44.66432" lon="3.84732">
        <ele>1123.4</ele>
        <time>2016-04-24T08:08:46Z</time>
      </trkpt>
      <trkpt lat="44.66418" lon="3.84719">
        <ele>1125.16</ele>
        <time>2016-04-24T08:09:05Z</time>
      </trkpt>
      <trkpt lat="44.66401" lon="3.84703">
        <ele>1126.04</ele>
        <time>2016-04-24T08:09:26Z</time>
      </trkpt>
      <trkpt lat="44.66389" lon="3.84684">
        <ele>1127.89</ele>
        <time>2016-04-24T08:09:46Z</time>
      </trkpt>
      <trkpt lat="44.66377" lon="3.84667">
        <ele>1129.48</ele>
        <time>2016-04-24T08:10:03Z</time>
      </trkpt>
      <trkpt lat="44.66365" lon="3.84646">
        <ele>1131.48</ele>
        <time>2016-04-24T08:10:25Z</time>
      </trkpt>
      <trkpt lat="44.66358" lon="3.84636">
        <ele>1132.37</ele>
        <time>2016-04-24T08:10:45Z</time>
      </trkpt>
      <trkpt lat="44.66355" lon="3.84639">
        <ele>1132.15</ele>
        <time>2016-04-24T08:11:22Z</time>
      </trkpt>
      <trkpt lat="44.66353" lon="3.84646">
        <ele>1132.42</ele>
        <time>2016-04-24T08:11:54Z</time>
      </trkpt>
      <trkpt lat="44.6635" lon="3.84644">
        <ele>1132.81</ele>
        <time>2016-04-24T08:12:19Z</time>
      </trkpt>
      <trkpt lat="44.66349" lon="3.84646">
        <ele>1132.4</ele>
        <time>2016-04-24T08:12:45Z</time>
      </trkpt>
      <trkpt lat="44.66349" lon="3.84647">
        <ele>1131.66</ele>
        <time>2016-04-24T08:13:21Z</time>
      </trkpt>
      <trkpt lat="44.6635" lon="3.84646">
        <ele>1131.86</ele>
        <time>2016-04-24T08:14:13Z</time>
      </trkpt>
      <trkpt lat="44.66348" lon="3.84646">
        <ele>1131.51</ele>
        <time>2016-04-24T08:14:41Z</time>
      </trkpt>
      <trkpt lat="44.6634" lon="3.84639">
        <ele>1131.62</ele>
        <time>2016-04-24T08:15:01Z</time>
      </trkpt>
      <trkpt lat="44.66327" lon="3.84627">
        <ele>1131.34</ele>
        <time>2016-04-24T08:15:15Z</time>
      </trkpt>
      <trkpt lat="44.66319" lon="3.84619">
        <ele>1131.29</ele>
        <time>2016-04-24T08:15:24Z</time>
      </trkpt>
      <trkpt lat="44.66316" lon="3.84615">
        <ele>1131.87</ele>
        <time>2016-04-24T08:15:29Z</time>
      </trkpt>
      <trkpt lat="44.66303" lon="3.846">
        <ele>1131.6</ele>
        <time>2016-04-24T08:15:43Z</time>
      </trkpt>
      <trkpt lat="44.66295" lon="3.84589">
        <ele>1131.34</ele>
        <time>2016-04-24T08:15:53Z</time>
      </trkpt>
      <trkpt lat="44.6628" lon="3.84572">
        <ele>1131.5</ele>
        <time>2016-04-24T08:16:10Z</time>
      </trkpt>
      <trkpt lat="44.66266" lon="3.84558">
        <ele>1131.5</ele>
        <time>2016-04-24T08:16:25Z</time>
      </trkpt>
      <trkpt lat="44.66253" lon="3.84542">
        <ele>1131.72</ele>
        <time>2016-04-24T08:16:39Z</time>
      </trkpt>
      <trkpt lat="44.6625" lon="3.84538">
        <ele>1131.53</ele>
        <time>2016-04-24T08:16:43Z</time>
      </trkpt>
      <trkpt lat="44.6624" lon="3.84524">
        <ele>1132.49</ele>
        <time>2016-04-24T08:16:57Z</time>
      </trkpt>
      <trkpt lat="44.66235" lon="3.84515">
        <ele>1132.97</ele>
        <time>2016-04-24T08:17:05Z</time>
      </trkpt>
      <trkpt lat="44.66229" lon="3.8449">
        <ele>1133</ele>
        <time>2016-04-24T08:17:21Z</time>
      </trkpt>
      <trkpt lat="44.66225" lon="3.8448">
        <ele>1133.35</ele>
        <time>2016-04-24T08:17:29Z</time>
      </trkpt>
      <trkpt lat="44.66222" lon="3.84474">
        <ele>1133.65</ele>
        <time>2016-04-24T08:17:33Z</time>
      </trkpt>
      <trkpt lat="44.66219" lon="3.84466">
        <ele>1133.94</ele>
        <time>2016-04-24T08:17:38Z</time>
      </trkpt>
      <trkpt lat="44.66216" lon="3.84458">
        <ele>1134.59</ele>
        <time>2016-04-24T08:17:44Z</time>
      </trkpt>
      <trkpt lat="44.6621" lon="3.84448">
        <ele>1134.69</ele>
        <time>2016-04-24T08:17:53Z</time>
      </trkpt>
      <trkpt lat="44.66197" lon="3.84437">
        <ele>1135.91</ele>
        <time>2016-04-24T08:18:08Z</time>
      </trkpt>
      <trkpt lat="44.66196" lon="3.84437">
        <ele>1136.03</ele>
        <time>2016-04-24T08:18:09Z</time>
      </trkpt>
      <trkpt lat="44.66181" lon="3.84432">
        <ele>1136.59</ele>
        <time>2016-04-24T08:18:23Z</time>
      </trkpt>
      <trkpt lat="44.66166" lon="3.84435">
        <ele>1136.69</ele>
        <time>2016-04-24T08:18:36Z</time>
      </trkpt>
      <trkpt lat="44.66152" lon="3.84442">
        <ele>1135.98</ele>
        <time>2016-04-24T08:18:50Z</time>
      </trkpt>
      <trkpt lat="44.66139" lon="3.84451">
        <ele>1136.43</ele>
        <time>2016-04-24T08:19:02Z</time>
      </trkpt>
      <trkpt lat="44.66131" lon="3.84461">
        <ele>1136.31</ele>
        <time>2016-04-24T08:19:11Z</time>
      </trkpt>
      <trkpt lat="44.66121" lon="3.84476">
        <ele>1136.17</ele>
        <time>2016-04-24T08:19:23Z</time>
      </trkpt>
      <trkpt lat="44.66115" lon="3.84483">
        <ele>1135.98</ele>
        <time>2016-04-24T08:19:30Z</time>
      </trkpt>
      <trkpt lat="44.66105" lon="3.84498">
        <ele>1135.56</ele>
        <time>2016-04-24T08:19:43Z</time>
      </trkpt>
      <trkpt lat="44.66091" lon="3.84511">
        <ele>1136.94</ele>
        <time>2016-04-24T08:20:00Z</time>
      </trkpt>
      <trkpt lat="44.66085" lon="3.8452">
        <ele>1137.25</ele>
        <time>2016-04-24T08:20:07Z</time>
      </trkpt>
      <trkpt lat="44.66075" lon="3.84534">
        <ele>1137.65</ele>
        <time>2016-04-24T08:20:19Z</time>
      </trkpt>
      <trkpt lat="44.66072" lon="3.84537">
        <ele>1137.66</ele>
        <time>2016-04-24T08:20:23Z</time>
      </trkpt>
      <trkpt lat="44.66062" lon="3.84546">
        <ele>1138.1</ele>
        <time>2016-04-24T08:20:34Z</time>
      </trkpt>
      <trkpt lat="44.66056" lon="3.8455">
        <ele>1138.06</ele>
        <time>2016-04-24T08:20:40Z</time>
      </trkpt>
      <trkpt lat="44.66047" lon="3.84557">
        <ele>1138</ele>
        <time>2016-04-24T08:20:49Z</time>
      </trkpt>
      <trkpt lat="44.66044" lon="3.8456">
        <ele>1138.03</ele>
        <time>2016-04-24T08:20:53Z</time>
      </trkpt>
      <trkpt lat="44.66036" lon="3.84569">
        <ele>1139.1</ele>
        <time>2016-04-24T08:21:01Z</time>
      </trkpt>
      <trkpt lat="44.66021" lon="3.84582">
        <ele>1140.5</ele>
        <time>2016-04-24T08:21:15Z</time>
      </trkpt>
      <trkpt lat="44.66004" lon="3.84591">
        <ele>1139.77</ele>
        <time>2016-04-24T08:21:29Z</time>
      </trkpt>
      <trkpt lat="44.65996" lon="3.84594">
        <ele>1139.24</ele>
        <time>2016-04-24T08:21:36Z</time>
      </trkpt>
      <trkpt lat="44.6599" lon="3.84597">
        <ele>1139.82</ele>
        <time>2016-04-24T08:21:42Z</time>
      </trkpt>
      <trkpt lat="44.65985" lon="3.846">
        <ele>1139.65</ele>
        <time>2016-04-24T08:21:46Z</time>
      </trkpt>
      <trkpt lat="44.6597" lon="3.8461">
        <ele>1138.45</ele>
        <time>2016-04-24T08:22:01Z</time>
      </trkpt>
      <trkpt lat="44.65967" lon="3.84611">
        <ele>1138.71</ele>
        <time>2016-04-24T08:22:04Z</time>
      </trkpt>
      <trkpt lat="44.6595" lon="3.84619">
        <ele>1138.35</ele>
        <time>2016-04-24T08:22:20Z</time>
      </trkpt>
      <trkpt lat="44.65942" lon="3.84624">
        <ele>1138.34</ele>
        <time>2016-04-24T08:22:27Z</time>
      </trkpt>
      <trkpt lat="44.65931" lon="3.84637">
        <ele>1138.78</ele>
        <time>2016-04-24T08:22:36Z</time>
      </trkpt>
      <trkpt lat="44.65923" lon="3.84654">
        <ele>1139.02</ele>
        <time>2016-04-24T08:22:48Z</time>
      </trkpt>
      <trkpt lat="44.65919" lon="3.8466">
        <ele>1139.15</ele>
        <time>2016-04-24T08:22:53Z</time>
      </trkpt>
      <trkpt lat="44.65916" lon="3.84666">
        <ele>1139.01</ele>
        <time>2016-04-24T08:22:57Z</time>
      </trkpt>
      <trkpt lat="44.6591" lon="3.84677">
        <ele>1138.84</ele>
        <time>2016-04-24T08:23:05Z</time>
      </trkpt>
      <trkpt lat="44.65899" lon="3.84695">
        <ele>1139.31</ele>
        <time>2016-04-24T08:23:19Z</time>
      </trkpt>
      <trkpt lat="44.65895" lon="3.84704">
        <ele>1139.15</ele>
        <time>2016-04-24T08:23:26Z</time>
      </trkpt>
      <trkpt lat="44.65887" lon="3.84722">
        <ele>1140.85</ele>
        <time>2016-04-24T08:23:39Z</time>
      </trkpt>
      <trkpt lat="44.65882" lon="3.84737">
        <ele>1141.6</ele>
        <time>2016-04-24T08:23:52Z</time>
      </trkpt>
      <trkpt lat="44.65871" lon="3.84761">
        <ele>1142.46</ele>
        <time>2016-04-24T08:24:11Z</time>
      </trkpt>
      <trkpt lat="44.65869" lon="3.84769">
        <ele>1143.21</ele>
        <time>2016-04-24T08:24:18Z</time>
      </trkpt>
      <trkpt lat="44.65867" lon="3.84789">
        <ele>1143.56</ele>
        <time>2016-04-24T08:24:31Z</time>
      </trkpt>
      <trkpt lat="44.65867" lon="3.84791">
        <ele>1143.76</ele>
        <time>2016-04-24T08:24:32Z</time>
      </trkpt>
      <trkpt lat="44.65863" lon="3.8481">
        <ele>1145.27</ele>
        <time>2016-04-24T08:24:43Z</time>
      </trkpt>
      <trkpt lat="44.65862" lon="3.84817">
        <ele>1145.31</ele>
        <time>2016-04-24T08:24:48Z</time>
      </trkpt>
      <trkpt lat="44.65861" lon="3.84833">
        <ele>1145.62</ele>
        <time>2016-04-24T08:24:58Z</time>
      </trkpt>
      <trkpt lat="44.65859" lon="3.84853">
        <ele>1147.7</ele>
        <time>2016-04-24T08:25:11Z</time>
      </trkpt>
      <trkpt lat="44.6586" lon="3.84859">
        <ele>1148.05</ele>
        <time>2016-04-24T08:25:15Z</time>
      </trkpt>
      <trkpt lat="44.65858" lon="3.84871">
        <ele>1148.52</ele>
        <time>2016-04-24T08:25:24Z</time>
      </trkpt>
      <trkpt lat="44.65858" lon="3.84878">
        <ele>1149.74</ele>
        <time>2016-04-24T08:25:38Z</time>
      </trkpt>
      <trkpt lat="44.65858" lon="3.84878">
        <ele>1149.71</ele>
        <time>2016-04-24T08:25:46Z</time>
      </trkpt>
      <trkpt lat="44.65854" lon="3.84901">
        <ele>1150.69</ele>
        <time>2016-04-24T08:26:04Z</time>
      </trkpt>
      <trkpt lat="44.65853" lon="3.84905">
        <ele>1151.08</ele>
        <time>2016-04-24T08:26:07Z</time>
      </trkpt>
      <trkpt lat="44.65851" lon="3.84924">
        <ele>1152.05</ele>
        <time>2016-04-24T08:26:20Z</time>
      </trkpt>
      <trkpt lat="44.65851" lon="3.84927">
        <ele>1151.99</ele>
        <time>2016-04-24T08:26:22Z</time>
      </trkpt>
      <trkpt lat="44.65847" lon="3.84947">
        <ele>1153.03</ele>
        <time>2016-04-24T08:26:36Z</time>
      </trkpt>
      <trkpt lat="44.65841" lon="3.84966">
        <ele>1154.56</ele>
        <time>2016-04-24T08:26:49Z</time>
      </trkpt>
      <trkpt lat="44.65834" lon="3.84985">
        <ele>1155.26</ele>
        <time>2016-04-24T08:27:03Z</time>
      </trkpt>
      <trkpt lat="44.65833" lon="3.84987">
        <ele>1155.31</ele>
        <time>2016-04-24T08:27:04Z</time>
      </trkpt>
      <trkpt lat="44.6583" lon="3.84994">
        <ele>1155.98</ele>
        <time>2016-04-24T08:27:10Z</time>
      </trkpt>
      <trkpt lat="44.65827" lon="3.85">
        <ele>1156.32</ele>
        <time>2016-04-24T08:27:14Z</time>
      </trkpt>
      <trkpt lat="44.65817" lon="3.85017">
        <ele>1157.36</ele>
        <time>2016-04-24T08:27:28Z</time>
      </trkpt>
      <trkpt lat="44.65812" lon="3.8503">
        <ele>1157.66</ele>
        <time>2016-04-24T08:27:37Z</time>
      </trkpt>
      <trkpt lat="44.65811" lon="3.85033">
        <ele>1157.84</ele>
        <time>2016-04-24T08:27:39Z</time>
      </trkpt>
      <trkpt lat="44.65805" lon="3.85048">
        <ele>1158.41</ele>
        <time>2016-04-24T08:27:50Z</time>
      </trkpt>
      <trkpt lat="44.65804" lon="3.85051">
        <ele>1158.51</ele>
        <time>2016-04-24T08:27:52Z</time>
      </trkpt>
      <trkpt lat="44.65796" lon="3.85074">
        <ele>1159.06</ele>
        <time>2016-04-24T08:28:08Z</time>
      </trkpt>
      <trkpt lat="44.65787" lon="3.85094">
        <ele>1159.31</ele>
        <time>2016-04-24T08:28:23Z</time>
      </trkpt>
      <trkpt lat="44.65781" lon="3.85113">
        <ele>1160.24</ele>
        <time>2016-04-24T08:28:36Z</time>
      </trkpt>
      <trkpt lat="44.6578" lon="3.85117">
        <ele>1160.27</ele>
        <time>2016-04-24T08:28:39Z</time>
      </trkpt>
      <trkpt lat="44.65777" lon="3.85123">
        <ele>1160.55</ele>
        <time>2016-04-24T08:28:43Z</time>
      </trkpt>
      <trkpt lat="44.6577" lon="3.8514">
        <ele>1161.83</ele>
        <time>2016-04-24T08:28:58Z</time>
      </trkpt>
      <trkpt lat="44.65766" lon="3.85152">
        <ele>1161.29</ele>
        <time>2016-04-24T08:29:21Z</time>
      </trkpt>
      <trkpt lat="44.65757" lon="3.85173">
        <ele>1161.4</ele>
        <time>2016-04-24T08:29:36Z</time>
      </trkpt>
      <trkpt lat="44.65755" lon="3.85181">
        <ele>1161.26</ele>
        <time>2016-04-24T08:29:41Z</time>
      </trkpt>
      <trkpt lat="44.65752" lon="3.85191">
        <ele>1161.07</ele>
        <time>2016-04-24T08:29:47Z</time>
      </trkpt>
      <trkpt lat="44.65749" lon="3.85196">
        <ele>1161.01</ele>
        <time>2016-04-24T08:29:51Z</time>
      </trkpt>
      <trkpt lat="44.65747" lon="3.85205">
        <ele>1160.95</ele>
        <time>2016-04-24T08:29:57Z</time>
      </trkpt>
      <trkpt lat="44.65743" lon="3.85216">
        <ele>1161.51</ele>
        <time>2016-04-24T08:30:05Z</time>
      </trkpt>
      <trkpt lat="44.6574" lon="3.85224">
        <ele>1161.9</ele>
        <time>2016-04-24T08:30:10Z</time>
      </trkpt>
      <trkpt lat="44.65729" lon="3.85249">
        <ele>1161.76</ele>
        <time>2016-04-24T08:30:28Z</time>
      </trkpt>
      <trkpt lat="44.65727" lon="3.85252">
        <ele>1162.46</ele>
        <time>2016-04-24T08:30:32Z</time>
      </trkpt>
      <trkpt lat="44.65714" lon="3.85262">
        <ele>1163.49</ele>
        <time>2016-04-24T08:30:46Z</time>
      </trkpt>
      <trkpt lat="44.65701" lon="3.8527">
        <ele>1165.61</ele>
        <time>2016-04-24T08:30:59Z</time>
      </trkpt>
      <trkpt lat="44.65692" lon="3.85273">
        <ele>1167.4</ele>
        <time>2016-04-24T08:31:08Z</time>
      </trkpt>
      <trkpt lat="44.65689" lon="3.85272">
        <ele>1167.65</ele>
        <time>2016-04-24T08:31:11Z</time>
      </trkpt>
      <trkpt lat="44.65676" lon="3.85273">
        <ele>1168.64</ele>
        <time>2016-04-24T08:31:24Z</time>
      </trkpt>
      <trkpt lat="44.65662" lon="3.85275">
        <ele>1170.59</ele>
        <time>2016-04-24T08:31:37Z</time>
      </trkpt>
      <trkpt lat="44.65645" lon="3.85283">
        <ele>1171.68</ele>
        <time>2016-04-24T08:31:53Z</time>
      </trkpt>
      <trkpt lat="44.65632" lon="3.85294">
        <ele>1172.84</ele>
        <time>2016-04-24T08:32:08Z</time>
      </trkpt>
      <trkpt lat="44.65621" lon="3.853">
        <ele>1173.57</ele>
        <time>2016-04-24T08:32:20Z</time>
      </trkpt>
      <trkpt lat="44.65604" lon="3.85303">
        <ele>1175.07</ele>
        <time>2016-04-24T08:32:37Z</time>
      </trkpt>
      <trkpt lat="44.65601" lon="3.85304">
        <ele>1175.38</ele>
        <time>2016-04-24T08:32:40Z</time>
      </trkpt>
      <trkpt lat="44.65586" lon="3.85305">
        <ele>1176.66</ele>
        <time>2016-04-24T08:32:54Z</time>
      </trkpt>
      <trkpt lat="44.65571" lon="3.85306">
        <ele>1177.58</ele>
        <time>2016-04-24T08:33:10Z</time>
      </trkpt>
      <trkpt lat="44.65557" lon="3.85308">
        <ele>1178.74</ele>
        <time>2016-04-24T08:33:21Z</time>
      </trkpt>
      <trkpt lat="44.65551" lon="3.85308">
        <ele>1179.26</ele>
        <time>2016-04-24T08:33:26Z</time>
      </trkpt>
      <trkpt lat="44.65547" lon="3.85308">
        <ele>1179.94</ele>
        <time>2016-04-24T08:33:29Z</time>
      </trkpt>
      <trkpt lat="44.65531" lon="3.85311">
        <ele>1180.52</ele>
        <time>2016-04-24T08:33:44Z</time>
      </trkpt>
      <trkpt lat="44.65511" lon="3.85311">
        <ele>1182.58</ele>
        <time>2016-04-24T08:34:03Z</time>
      </trkpt>
      <trkpt lat="44.65499" lon="3.85313">
        <ele>1184.18</ele>
        <time>2016-04-24T08:34:15Z</time>
      </trkpt>
      <trkpt lat="44.65485" lon="3.85316">
        <ele>1184.96</ele>
        <time>2016-04-24T08:34:27Z</time>
      </trkpt>
      <trkpt lat="44.65471" lon="3.85321">
        <ele>1185.9</ele>
        <time>2016-04-24T08:34:41Z</time>
      </trkpt>
      <trkpt lat="44.65467" lon="3.85323">
        <ele>1185.85</ele>
        <time>2016-04-24T08:34:45Z</time>
      </trkpt>
      <trkpt lat="44.65451" lon="3.85335">
        <ele>1186.9</ele>
        <time>2016-04-24T08:35:00Z</time>
      </trkpt>
      <trkpt lat="44.6544" lon="3.85346">
        <ele>1187.7</ele>
        <time>2016-04-24T08:35:12Z</time>
      </trkpt>
      <trkpt lat="44.65435" lon="3.8535">
        <ele>1187.89</ele>
        <time>2016-04-24T08:35:17Z</time>
      </trkpt>
      <trkpt lat="44.65433" lon="3.85352">
        <ele>1187.97</ele>
        <time>2016-04-24T08:35:19Z</time>
      </trkpt>
      <trkpt lat="44.65425" lon="3.85357">
        <ele>1188.76</ele>
        <time>2016-04-24T08:35:28Z</time>
      </trkpt>
      <trkpt lat="44.65421" lon="3.8536">
        <ele>1188.56</ele>
        <time>2016-04-24T08:35:32Z</time>
      </trkpt>
      <trkpt lat="44.65413" lon="3.85367">
        <ele>1188.45</ele>
        <time>2016-04-24T08:35:40Z</time>
      </trkpt>
      <trkpt lat="44.65403" lon="3.85374">
        <ele>1189.14</ele>
        <time>2016-04-24T08:35:50Z</time>
      </trkpt>
      <trkpt lat="44.65393" lon="3.85382">
        <ele>1188.98</ele>
        <time>2016-04-24T08:36:01Z</time>
      </trkpt>
      <trkpt lat="44.65378" lon="3.85397">
        <ele>1189.56</ele>
        <time>2016-04-24T08:36:17Z</time>
      </trkpt>
      <trkpt lat="44.65367" lon="3.8541">
        <ele>1189.34</ele>
        <time>2016-04-24T08:36:30Z</time>
      </trkpt>
      <trkpt lat="44.65352" lon="3.85425">
        <ele>1190.3</ele>
        <time>2016-04-24T08:36:46Z</time>
      </trkpt>
      <trkpt lat="44.6534" lon="3.85435">
        <ele>1189.97</ele>
        <time>2016-04-24T08:36:58Z</time>
      </trkpt>
      <trkpt lat="44.65327" lon="3.85445">
        <ele>1191.12</ele>
        <time>2016-04-24T08:37:11Z</time>
      </trkpt>
      <trkpt lat="44.6532" lon="3.8545">
        <ele>1192.33</ele>
        <time>2016-04-24T08:37:18Z</time>
      </trkpt>
      <trkpt lat="44.65317" lon="3.85451">
        <ele>1192.23</ele>
        <time>2016-04-24T08:37:21Z</time>
      </trkpt>
      <trkpt lat="44.65306" lon="3.85456">
        <ele>1192.63</ele>
        <time>2016-04-24T08:37:31Z</time>
      </trkpt>
      <trkpt lat="44.65293" lon="3.85464">
        <ele>1193.08</ele>
        <time>2016-04-24T08:37:44Z</time>
      </trkpt>
      <trkpt lat="44.65292" lon="3.85464">
        <ele>1193.25</ele>
        <time>2016-04-24T08:37:45Z</time>
      </trkpt>
      <trkpt lat="44.65286" lon="3.85468">
        <ele>1193.94</ele>
        <time>2016-04-24T08:37:51Z</time>
      </trkpt>
      <trkpt lat="44.65271" lon="3.85479">
        <ele>1194.43</ele>
        <time>2016-04-24T08:38:05Z</time>
      </trkpt>
      <trkpt lat="44.65268" lon="3.85482">
        <ele>1194.64</ele>
        <time>2016-04-24T08:38:09Z</time>
      </trkpt>
      <trkpt lat="44.65252" lon="3.85494">
        <ele>1195.59</ele>
        <time>2016-04-24T08:38:25Z</time>
      </trkpt>
      <trkpt lat="44.65239" lon="3.85503">
        <ele>1197.29</ele>
        <time>2016-04-24T08:38:38Z</time>
      </trkpt>
      <trkpt lat="44.65227" lon="3.85512">
        <ele>1197.17</ele>
        <time>2016-04-24T08:38:51Z</time>
      </trkpt>
      <trkpt lat="44.65215" lon="3.85523">
        <ele>1197.89</ele>
        <time>2016-04-24T08:39:03Z</time>
      </trkpt>
      <trkpt lat="44.65208" lon="3.85525">
        <ele>1197.8</ele>
        <time>2016-04-24T08:39:16Z</time>
      </trkpt>
      <trkpt lat="44.65208" lon="3.85526">
        <ele>1197.72</ele>
        <time>2016-04-24T08:39:17Z</time>
      </trkpt>
      <trkpt lat="44.65207" lon="3.85529">
        <ele>1197.55</ele>
        <time>2016-04-24T08:39:19Z</time>
      </trkpt>
      <trkpt lat="44.65202" lon="3.85533">
        <ele>1197.55</ele>
        <time>2016-04-24T08:39:25Z</time>
      </trkpt>
      <trkpt lat="44.65199" lon="3.85537">
        <ele>1198.35</ele>
        <time>2016-04-24T08:39:29Z</time>
      </trkpt>
      <trkpt lat="44.65186" lon="3.85546">
        <ele>1198.81</ele>
        <time>2016-04-24T08:39:41Z</time>
      </trkpt>
      <trkpt lat="44.65172" lon="3.85557">
        <ele>1199.35</ele>
        <time>2016-04-24T08:39:55Z</time>
      </trkpt>
      <trkpt lat="44.65162" lon="3.85565">
        <ele>1199.46</ele>
        <time>2016-04-24T08:40:06Z</time>
      </trkpt>
      <trkpt lat="44.65158" lon="3.85568">
        <ele>1199.76</ele>
        <time>2016-04-24T08:40:10Z</time>
      </trkpt>
      <trkpt lat="44.65154" lon="3.85572">
        <ele>1200.23</ele>
        <time>2016-04-24T08:40:14Z</time>
      </trkpt>
      <trkpt lat="44.65151" lon="3.85573">
        <ele>1200.46</ele>
        <time>2016-04-24T08:40:17Z</time>
      </trkpt>
      <trkpt lat="44.65145" lon="3.85576">
        <ele>1200.48</ele>
        <time>2016-04-24T08:40:22Z</time>
      </trkpt>
      <trkpt lat="44.65139" lon="3.85582">
        <ele>1200.48</ele>
        <time>2016-04-24T08:40:29Z</time>
      </trkpt>
      <trkpt lat="44.65124" lon="3.85591">
        <ele>1201.09</ele>
        <time>2016-04-24T08:40:42Z</time>
      </trkpt>
      <trkpt lat="44.6511" lon="3.85602">
        <ele>1201.33</ele>
        <time>2016-04-24T08:40:55Z</time>
      </trkpt>
      <trkpt lat="44.651" lon="3.8561">
        <ele>1201.33</ele>
        <time>2016-04-24T08:41:06Z</time>
      </trkpt>
      <trkpt lat="44.65093" lon="3.85616">
        <ele>1201.4</ele>
        <time>2016-04-24T08:41:13Z</time>
      </trkpt>
      <trkpt lat="44.65089" lon="3.8562">
        <ele>1201.57</ele>
        <time>2016-04-24T08:41:17Z</time>
      </trkpt>
      <trkpt lat="44.65082" lon="3.85628">
        <ele>1201.91</ele>
        <time>2016-04-24T08:41:25Z</time>
      </trkpt>
      <trkpt lat="44.65068" lon="3.85637">
        <ele>1202.09</ele>
        <time>2016-04-24T08:41:37Z</time>
      </trkpt>
      <trkpt lat="44.65064" lon="3.85641">
        <ele>1202.02</ele>
        <time>2016-04-24T08:41:41Z</time>
      </trkpt>
      <trkpt lat="44.65059" lon="3.85646">
        <ele>1202.29</ele>
        <time>2016-04-24T08:41:46Z</time>
      </trkpt>
      <trkpt lat="44.65052" lon="3.85651">
        <ele>1202.23</ele>
        <time>2016-04-24T08:41:53Z</time>
      </trkpt>
      <trkpt lat="44.65039" lon="3.85659">
        <ele>1202.46</ele>
        <time>2016-04-24T08:42:06Z</time>
      </trkpt>
      <trkpt lat="44.65033" lon="3.85661">
        <ele>1202.68</ele>
        <time>2016-04-24T08:42:17Z</time>
      </trkpt>
      <trkpt lat="44.65031" lon="3.85661">
        <ele>1202.64</ele>
        <time>2016-04-24T08:42:19Z</time>
      </trkpt>
      <trkpt lat="44.65028" lon="3.85661">
        <ele>1202.52</ele>
        <time>2016-04-24T08:42:21Z</time>
      </trkpt>
      <trkpt lat="44.65014" lon="3.85658">
        <ele>1202.72</ele>
        <time>2016-04-24T08:42:35Z</time>
      </trkpt>
      <trkpt lat="44.64996" lon="3.85654">
        <ele>1202.09</ele>
        <time>2016-04-24T08:42:49Z</time>
      </trkpt>
      <trkpt lat="44.64982" lon="3.85657">
        <ele>1201.65</ele>
        <time>2016-04-24T08:43:01Z</time>
      </trkpt>
      <trkpt lat="44.64971" lon="3.85667">
        <ele>1201.43</ele>
        <time>2016-04-24T08:43:12Z</time>
      </trkpt>
      <trkpt lat="44.64969" lon="3.85669">
        <ele>1201.38</ele>
        <time>2016-04-24T08:43:14Z</time>
      </trkpt>
      <trkpt lat="44.64961" lon="3.85688">
        <ele>1200.91</ele>
        <time>2016-04-24T08:43:28Z</time>
      </trkpt>
      <trkpt lat="44.64958" lon="3.85695">
        <ele>1200.93</ele>
        <time>2016-04-24T08:43:33Z</time>
      </trkpt>
      <trkpt lat="44.64956" lon="3.85701">
        <ele>1201.14</ele>
        <time>2016-04-24T08:43:37Z</time>
      </trkpt>
      <trkpt lat="44.64951" lon="3.85712">
        <ele>1201.43</ele>
        <time>2016-04-24T08:43:45Z</time>
      </trkpt>
      <trkpt lat="44.64949" lon="3.85718">
        <ele>1201.02</ele>
        <time>2016-04-24T08:43:49Z</time>
      </trkpt>
      <trkpt lat="44.64944" lon="3.85728">
        <ele>1200.65</ele>
        <time>2016-04-24T08:43:56Z</time>
      </trkpt>
      <trkpt lat="44.64943" lon="3.85733">
        <ele>1200.66</ele>
        <time>2016-04-24T08:43:59Z</time>
      </trkpt>
      <trkpt lat="44.64933" lon="3.8575">
        <ele>1200.87</ele>
        <time>2016-04-24T08:44:13Z</time>
      </trkpt>
      <trkpt lat="44.64928" lon="3.8576">
        <ele>1200.6</ele>
        <time>2016-04-24T08:44:20Z</time>
      </trkpt>
      <trkpt lat="44.64917" lon="3.85774">
        <ele>1200.16</ele>
        <time>2016-04-24T08:44:32Z</time>
      </trkpt>
      <trkpt lat="44.64915" lon="3.85777">
        <ele>1199.97</ele>
        <time>2016-04-24T08:44:35Z</time>
      </trkpt>
      <trkpt lat="44.64913" lon="3.85781">
        <ele>1199.65</ele>
        <time>2016-04-24T08:44:38Z</time>
      </trkpt>
      <trkpt lat="44.64899" lon="3.85796">
        <ele>1199.6</ele>
        <time>2016-04-24T08:44:53Z</time>
      </trkpt>
      <trkpt lat="44.64896" lon="3.858">
        <ele>1199.77</ele>
        <time>2016-04-24T08:44:57Z</time>
      </trkpt>
      <trkpt lat="44.64891" lon="3.85805">
        <ele>1199.77</ele>
        <time>2016-04-24T08:45:02Z</time>
      </trkpt>
      <trkpt lat="44.64879" lon="3.85819">
        <ele>1198.63</ele>
        <time>2016-04-24T08:45:16Z</time>
      </trkpt>
      <trkpt lat="44.64873" lon="3.85827">
        <ele>1197.46</ele>
        <time>2016-04-24T08:45:33Z</time>
      </trkpt>
      <trkpt lat="44.64865" lon="3.85834">
        <ele>1198.85</ele>
        <time>2016-04-24T08:45:51Z</time>
      </trkpt>
      <trkpt lat="44.64864" lon="3.85834">
        <ele>1197.8</ele>
        <time>2016-04-24T08:46:19Z</time>
      </trkpt>
      <trkpt lat="44.64861" lon="3.85831">
        <ele>1198.04</ele>
        <time>2016-04-24T08:46:51Z</time>
      </trkpt>
      <trkpt lat="44.6486" lon="3.85831">
        <ele>1198.15</ele>
        <time>2016-04-24T08:47:27Z</time>
      </trkpt>
      <trkpt lat="44.64863" lon="3.85818">
        <ele>1197.25</ele>
        <time>2016-04-24T08:47:55Z</time>
      </trkpt>
      <trkpt lat="44.64863" lon="3.85814">
        <ele>1197.19</ele>
        <time>2016-04-24T08:47:58Z</time>
      </trkpt>
      <trkpt lat="44.64865" lon="3.85788">
        <ele>1196.85</ele>
        <time>2016-04-24T08:48:15Z</time>
      </trkpt>
      <trkpt lat="44.64867" lon="3.85761">
        <ele>1196.42</ele>
        <time>2016-04-24T08:48:32Z</time>
      </trkpt>
      <trkpt lat="44.6487" lon="3.85734">
        <ele>1195.17</ele>
        <time>2016-04-24T08:48:49Z</time>
      </trkpt>
      <trkpt lat="44.6487" lon="3.85722">
        <ele>1195.21</ele>
        <time>2016-04-24T08:48:56Z</time>
      </trkpt>
      <trkpt lat="44.64873" lon="3.85701">
        <ele>1194.9</ele>
        <time>2016-04-24T08:49:09Z</time>
      </trkpt>
      <trkpt lat="44.64873" lon="3.85688">
        <ele>1193.92</ele>
        <time>2016-04-24T08:49:17Z</time>
      </trkpt>
      <trkpt lat="44.64875" lon="3.85677">
        <ele>1193.33</ele>
        <time>2016-04-24T08:49:23Z</time>
      </trkpt>
      <trkpt lat="44.64876" lon="3.85667">
        <ele>1192.79</ele>
        <time>2016-04-24T08:49:29Z</time>
      </trkpt>
      <trkpt lat="44.64872" lon="3.85638">
        <ele>1191.26</ele>
        <time>2016-04-24T08:49:45Z</time>
      </trkpt>
      <trkpt lat="44.64861" lon="3.85618">
        <ele>1190.01</ele>
        <time>2016-04-24T08:49:59Z</time>
      </trkpt>
      <trkpt lat="44.64844" lon="3.85602">
        <ele>1189.34</ele>
        <time>2016-04-24T08:50:14Z</time>
      </trkpt>
      <trkpt lat="44.64829" lon="3.8559">
        <ele>1188.34</ele>
        <time>2016-04-24T08:50:28Z</time>
      </trkpt>
      <trkpt lat="44.64813" lon="3.85573">
        <ele>1187.3</ele>
        <time>2016-04-24T08:50:44Z</time>
      </trkpt>
      <trkpt lat="44.64799" lon="3.85557">
        <ele>1187.28</ele>
        <time>2016-04-24T08:50:57Z</time>
      </trkpt>
      <trkpt lat="44.64797" lon="3.85553">
        <ele>1187.13</ele>
        <time>2016-04-24T08:51:00Z</time>
      </trkpt>
      <trkpt lat="44.64783" lon="3.85538">
        <ele>1185.86</ele>
        <time>2016-04-24T08:51:15Z</time>
      </trkpt>
      <trkpt lat="44.6477" lon="3.85527">
        <ele>1185.35</ele>
        <time>2016-04-24T08:51:29Z</time>
      </trkpt>
      <trkpt lat="44.64764" lon="3.85523">
        <ele>1185.28</ele>
        <time>2016-04-24T08:51:33Z</time>
      </trkpt>
      <trkpt lat="44.64747" lon="3.85508">
        <ele>1183.95</ele>
        <time>2016-04-24T08:51:49Z</time>
      </trkpt>
      <trkpt lat="44.64741" lon="3.85503">
        <ele>1184.45</ele>
        <time>2016-04-24T08:51:54Z</time>
      </trkpt>
      <trkpt lat="44.64728" lon="3.85485">
        <ele>1182.62</ele>
        <time>2016-04-24T08:52:09Z</time>
      </trkpt>
      <trkpt lat="44.64721" lon="3.85466">
        <ele>1181.92</ele>
        <time>2016-04-24T08:52:22Z</time>
      </trkpt>
      <trkpt lat="44.64719" lon="3.85458">
        <ele>1181.75</ele>
        <time>2016-04-24T08:52:27Z</time>
      </trkpt>
      <trkpt lat="44.64716" lon="3.85446">
        <ele>1181.17</ele>
        <time>2016-04-24T08:52:34Z</time>
      </trkpt>
      <trkpt lat="44.64717" lon="3.85442">
        <ele>1181.1</ele>
        <time>2016-04-24T08:52:37Z</time>
      </trkpt>
      <trkpt lat="44.64715" lon="3.8543">
        <ele>1179.81</ele>
        <time>2016-04-24T08:52:45Z</time>
      </trkpt>
      <trkpt lat="44.64715" lon="3.85423">
        <ele>1179.84</ele>
        <time>2016-04-24T08:52:49Z</time>
      </trkpt>
      <trkpt lat="44.64715" lon="3.85406">
        <ele>1179.39</ele>
        <time>2016-04-24T08:53:02Z</time>
      </trkpt>
      <trkpt lat="44.64708" lon="3.85385">
        <ele>1178.23</ele>
        <time>2016-04-24T08:53:20Z</time>
      </trkpt>
      <trkpt lat="44.64698" lon="3.85382">
        <ele>1177.97</ele>
        <time>2016-04-24T08:53:30Z</time>
      </trkpt>
      <trkpt lat="44.6468" lon="3.85381">
        <ele>1175.95</ele>
        <time>2016-04-24T08:53:46Z</time>
      </trkpt>
      <trkpt lat="44.64671" lon="3.8538">
        <ele>1172.79</ele>
        <time>2016-04-24T08:53:57Z</time>
      </trkpt>
      <trkpt lat="44.64659" lon="3.85384">
        <ele>1170.5</ele>
        <time>2016-04-24T08:54:11Z</time>
      </trkpt>
      <trkpt lat="44.6465" lon="3.85387">
        <ele>1169.45</ele>
        <time>2016-04-24T08:54:19Z</time>
      </trkpt>
      <trkpt lat="44.64633" lon="3.85381">
        <ele>1168.46</ele>
        <time>2016-04-24T08:54:34Z</time>
      </trkpt>
      <trkpt lat="44.64617" lon="3.85374">
        <ele>1168.3</ele>
        <time>2016-04-24T08:54:49Z</time>
      </trkpt>
      <trkpt lat="44.64604" lon="3.85373">
        <ele>1167.55</ele>
        <time>2016-04-24T08:55:04Z</time>
      </trkpt>
      <trkpt lat="44.64598" lon="3.85378">
        <ele>1167.9</ele>
        <time>2016-04-24T08:55:17Z</time>
      </trkpt>
      <trkpt lat="44.64596" lon="3.85384">
        <ele>1168.31</ele>
        <time>2016-04-24T08:55:31Z</time>
      </trkpt>
      <trkpt lat="44.64597" lon="3.85385">
        <ele>1168.23</ele>
        <time>2016-04-24T08:55:57Z</time>
      </trkpt>
      <trkpt lat="44.64597" lon="3.85386">
        <ele>1168.31</ele>
        <time>2016-04-24T08:56:04Z</time>
      </trkpt>
      <trkpt lat="44.64596" lon="3.85389">
        <ele>1168.28</ele>
        <time>2016-04-24T08:56:07Z</time>
      </trkpt>
      <trkpt lat="44.64594" lon="3.85395">
        <ele>1168.4</ele>
        <time>2016-04-24T08:56:11Z</time>
      </trkpt>
      <trkpt lat="44.64593" lon="3.85405">
        <ele>1168.23</ele>
        <time>2016-04-24T08:56:17Z</time>
      </trkpt>
      <trkpt lat="44.64583" lon="3.85425">
        <ele>1168.29</ele>
        <time>2016-04-24T08:56:32Z</time>
      </trkpt>
      <trkpt lat="44.64576" lon="3.85438">
        <ele>1168.65</ele>
        <time>2016-04-24T08:56:42Z</time>
      </trkpt>
      <trkpt lat="44.64573" lon="3.85447">
        <ele>1168.83</ele>
        <time>2016-04-24T08:56:48Z</time>
      </trkpt>
      <trkpt lat="44.64566" lon="3.85464">
        <ele>1169.43</ele>
        <time>2016-04-24T08:57:00Z</time>
      </trkpt>
      <trkpt lat="44.64562" lon="3.85471">
        <ele>1169.74</ele>
        <time>2016-04-24T08:57:06Z</time>
      </trkpt>
      <trkpt lat="44.64558" lon="3.85477">
        <ele>1169.91</ele>
        <time>2016-04-24T08:57:11Z</time>
      </trkpt>
      <trkpt lat="44.64557" lon="3.85481">
        <ele>1170.09</ele>
        <time>2016-04-24T08:57:14Z</time>
      </trkpt>
      <trkpt lat="44.64553" lon="3.85487">
        <ele>1170.43</ele>
        <time>2016-04-24T08:57:19Z</time>
      </trkpt>
      <trkpt lat="44.64543" lon="3.85503">
        <ele>1170.78</ele>
        <time>2016-04-24T08:57:31Z</time>
      </trkpt>
      <trkpt lat="44.64541" lon="3.85506">
        <ele>1170.92</ele>
        <time>2016-04-24T08:57:34Z</time>
      </trkpt>
      <trkpt lat="44.64537" lon="3.85509">
        <ele>1171.09</ele>
        <time>2016-04-24T08:57:38Z</time>
      </trkpt>
      <trkpt lat="44.64525" lon="3.85524">
        <ele>1172.17</ele>
        <time>2016-04-24T08:57:52Z</time>
      </trkpt>
      <trkpt lat="44.64524" lon="3.85524">
        <ele>1172.36</ele>
        <time>2016-04-24T08:57:53Z</time>
      </trkpt>
      <trkpt lat="44.64514" lon="3.85538">
        <ele>1173.12</ele>
        <time>2016-04-24T08:58:05Z</time>
      </trkpt>
      <trkpt lat="44.6451" lon="3.85542">
        <ele>1173.25</ele>
        <time>2016-04-24T08:58:10Z</time>
      </trkpt>
      <trkpt lat="44.64505" lon="3.85547">
        <ele>1173.41</ele>
        <time>2016-04-24T08:58:16Z</time>
      </trkpt>
      <trkpt lat="44.64497" lon="3.85554">
        <ele>1173.62</ele>
        <time>2016-04-24T08:58:23Z</time>
      </trkpt>
      <trkpt lat="44.64493" lon="3.85556">
        <ele>1173.81</ele>
        <time>2016-04-24T08:58:28Z</time>
      </trkpt>
      <trkpt lat="44.64478" lon="3.85564">
        <ele>1175.32</ele>
        <time>2016-04-24T08:58:42Z</time>
      </trkpt>
      <trkpt lat="44.64473" lon="3.85567">
        <ele>1175.5</ele>
        <time>2016-04-24T08:58:47Z</time>
      </trkpt>
      <trkpt lat="44.64457" lon="3.85573">
        <ele>1177.06</ele>
        <time>2016-04-24T08:59:02Z</time>
      </trkpt>
      <trkpt lat="44.64455" lon="3.85574">
        <ele>1177.03</ele>
        <time>2016-04-24T08:59:04Z</time>
      </trkpt>
      <trkpt lat="44.64449" lon="3.85578">
        <ele>1177.12</ele>
        <time>2016-04-24T08:59:09Z</time>
      </trkpt>
      <trkpt lat="44.64444" lon="3.85579">
        <ele>1177.12</ele>
        <time>2016-04-24T08:59:14Z</time>
      </trkpt>
      <trkpt lat="44.64438" lon="3.85582">
        <ele>1177.57</ele>
        <time>2016-04-24T08:59:19Z</time>
      </trkpt>
      <trkpt lat="44.64431" lon="3.85588">
        <ele>1177.84</ele>
        <time>2016-04-24T08:59:25Z</time>
      </trkpt>
      <trkpt lat="44.64418" lon="3.85597">
        <ele>1178.23</ele>
        <time>2016-04-24T08:59:37Z</time>
      </trkpt>
      <trkpt lat="44.64409" lon="3.85605">
        <ele>1179.08</ele>
        <time>2016-04-24T08:59:49Z</time>
      </trkpt>
      <trkpt lat="44.64401" lon="3.8561">
        <ele>1179.2</ele>
        <time>2016-04-24T08:59:58Z</time>
      </trkpt>
      <trkpt lat="44.64394" lon="3.85614">
        <ele>1179.53</ele>
        <time>2016-04-24T09:00:05Z</time>
      </trkpt>
      <trkpt lat="44.64387" lon="3.85619">
        <ele>1179.23</ele>
        <time>2016-04-24T09:00:13Z</time>
      </trkpt>
      <trkpt lat="44.6438" lon="3.85622">
        <ele>1179.26</ele>
        <time>2016-04-24T09:00:18Z</time>
      </trkpt>
      <trkpt lat="44.64369" lon="3.85628">
        <ele>1180.28</ele>
        <time>2016-04-24T09:00:29Z</time>
      </trkpt>
      <trkpt lat="44.64361" lon="3.85633">
        <ele>1180.98</ele>
        <time>2016-04-24T09:00:36Z</time>
      </trkpt>
      <trkpt lat="44.64355" lon="3.85636">
        <ele>1181.22</ele>
        <time>2016-04-24T09:00:41Z</time>
      </trkpt>
      <trkpt lat="44.64344" lon="3.85643">
        <ele>1181.76</ele>
        <time>2016-04-24T09:00:51Z</time>
      </trkpt>
      <trkpt lat="44.64336" lon="3.85646">
        <ele>1181.78</ele>
        <time>2016-04-24T09:00:59Z</time>
      </trkpt>
      <trkpt lat="44.64329" lon="3.85651">
        <ele>1182.11</ele>
        <time>2016-04-24T09:01:05Z</time>
      </trkpt>
      <trkpt lat="44.64318" lon="3.85661">
        <ele>1183.03</ele>
        <time>2016-04-24T09:01:18Z</time>
      </trkpt>
      <trkpt lat="44.64313" lon="3.85663">
        <ele>1183.56</ele>
        <time>2016-04-24T09:01:24Z</time>
      </trkpt>
      <trkpt lat="44.64301" lon="3.85667">
        <ele>1184.59</ele>
        <time>2016-04-24T09:01:36Z</time>
      </trkpt>
      <trkpt lat="44.64294" lon="3.85669">
        <ele>1184.89</ele>
        <time>2016-04-24T09:01:42Z</time>
      </trkpt>
      <trkpt lat="44.64289" lon="3.85671">
        <ele>1184.74</ele>
        <time>2016-04-24T09:01:47Z</time>
      </trkpt>
      <trkpt lat="44.64281" lon="3.85672">
        <ele>1185.32</ele>
        <time>2016-04-24T09:01:54Z</time>
      </trkpt>
      <trkpt lat="44.64271" lon="3.85673">
        <ele>1185.27</ele>
        <time>2016-04-24T09:02:03Z</time>
      </trkpt>
      <trkpt lat="44.64258" lon="3.85673">
        <ele>1185.8</ele>
        <time>2016-04-24T09:02:15Z</time>
      </trkpt>
      <trkpt lat="44.64247" lon="3.85672">
        <ele>1186.78</ele>
        <time>2016-04-24T09:02:31Z</time>
      </trkpt>
      <trkpt lat="44.64244" lon="3.85672">
        <ele>1186.96</ele>
        <time>2016-04-24T09:02:34Z</time>
      </trkpt>
      <trkpt lat="44.64233" lon="3.85663">
        <ele>1187.38</ele>
        <time>2016-04-24T09:02:49Z</time>
      </trkpt>
      <trkpt lat="44.64234" lon="3.85659">
        <ele>1189.76</ele>
        <time>2016-04-24T09:03:08Z</time>
      </trkpt>
      <trkpt lat="44.64239" lon="3.85658">
        <ele>1189.67</ele>
        <time>2016-04-24T09:03:36Z</time>
      </trkpt>
      <trkpt lat="44.6424" lon="3.8566">
        <ele>1189.86</ele>
        <time>2016-04-24T09:03:44Z</time>
      </trkpt>
      <trkpt lat="44.64238" lon="3.8566">
        <ele>1189.7</ele>
        <time>2016-04-24T09:04:15Z</time>
      </trkpt>
      <trkpt lat="44.6424" lon="3.8566">
        <ele>1189.86</ele>
        <time>2016-04-24T09:04:45Z</time>
      </trkpt>
      <trkpt lat="44.64238" lon="3.8566">
        <ele>1189.56</ele>
        <time>2016-04-24T09:05:12Z</time>
      </trkpt>
      <trkpt lat="44.64237" lon="3.85659">
        <ele>1190.66</ele>
        <time>2016-04-24T09:05:38Z</time>
      </trkpt>
      <trkpt lat="44.64237" lon="3.8566">
        <ele>1190.09</ele>
        <time>2016-04-24T09:06:04Z</time>
      </trkpt>
      <trkpt lat="44.64237" lon="3.85657">
        <ele>1189.31</ele>
        <time>2016-04-24T09:06:35Z</time>
      </trkpt>
      <trkpt lat="44.64236" lon="3.85655">
        <ele>1189.15</ele>
        <time>2016-04-24T09:06:52Z</time>
      </trkpt>
      <trkpt lat="44.64236" lon="3.85654">
        <ele>1189.51</ele>
        <time>2016-04-24T09:07:14Z</time>
      </trkpt>
      <trkpt lat="44.64238" lon="3.85655">
        <ele>1189.15</ele>
        <time>2016-04-24T09:07:44Z</time>
      </trkpt>
      <trkpt lat="44.64237" lon="3.85656">
        <ele>1186.78</ele>
        <time>2016-04-24T09:08:02Z</time>
      </trkpt>
      <trkpt lat="44.64237" lon="3.85657">
        <ele>1188.97</ele>
        <time>2016-04-24T09:08:07Z</time>
      </trkpt>
      <trkpt lat="44.64238" lon="3.85661">
        <ele>1189.43</ele>
        <time>2016-04-24T09:08:40Z</time>
      </trkpt>
      <trkpt lat="44.64239" lon="3.85664">
        <ele>1188.7</ele>
        <time>2016-04-24T09:09:14Z</time>
      </trkpt>
      <trkpt lat="44.64238" lon="3.85665">
        <ele>1189.08</ele>
        <time>2016-04-24T09:09:48Z</time>
      </trkpt>
      <trkpt lat="44.64238" lon="3.85662">
        <ele>1188.77</ele>
        <time>2016-04-24T09:10:19Z</time>
      </trkpt>
      <trkpt lat="44.64236" lon="3.85662">
        <ele>1189.64</ele>
        <time>2016-04-24T09:10:49Z</time>
      </trkpt>
      <trkpt lat="44.64237" lon="3.85659">
        <ele>1188.76</ele>
        <time>2016-04-24T09:11:21Z</time>
      </trkpt>
      <trkpt lat="44.64239" lon="3.85655">
        <ele>1188.76</ele>
        <time>2016-04-24T09:11:55Z</time>
      </trkpt>
      <trkpt lat="44.64232" lon="3.85661">
        <ele>1189.15</ele>
        <time>2016-04-24T09:12:19Z</time>
      </trkpt>
      <trkpt lat="44.64222" lon="3.85674">
        <ele>1187.36</ele>
        <time>2016-04-24T09:12:36Z</time>
      </trkpt>
      <trkpt lat="44.6422" lon="3.8569">
        <ele>1187.07</ele>
        <time>2016-04-24T09:12:53Z</time>
      </trkpt>
      <trkpt lat="44.64221" lon="3.85702">
        <ele>1186.83</ele>
        <time>2016-04-24T09:13:07Z</time>
      </trkpt>
      <trkpt lat="44.64226" lon="3.85705">
        <ele>1186.72</ele>
        <time>2016-04-24T09:13:31Z</time>
      </trkpt>
      <trkpt lat="44.64224" lon="3.85703">
        <ele>1186.83</ele>
        <time>2016-04-24T09:13:50Z</time>
      </trkpt>
      <trkpt lat="44.64224" lon="3.85705">
        <ele>1187.88</ele>
        <time>2016-04-24T09:14:14Z</time>
      </trkpt>
      <trkpt lat="44.64225" lon="3.85704">
        <ele>1187.79</ele>
        <time>2016-04-24T09:14:47Z</time>
      </trkpt>
      <trkpt lat="44.64227" lon="3.85704">
        <ele>1187.74</ele>
        <time>2016-04-24T09:15:11Z</time>
      </trkpt>
      <trkpt lat="44.64228" lon="3.85714">
        <ele>1187.6</ele>
        <time>2016-04-24T09:15:20Z</time>
      </trkpt>
      <trkpt lat="44.64234" lon="3.85733">
        <ele>1187.59</ele>
        <time>2016-04-24T09:15:36Z</time>
      </trkpt>
      <trkpt lat="44.64237" lon="3.85744">
        <ele>1187.27</ele>
        <time>2016-04-24T09:15:50Z</time>
      </trkpt>
      <trkpt lat="44.6424" lon="3.85756">
        <ele>1187.64</ele>
        <time>2016-04-24T09:16:04Z</time>
      </trkpt>
      <trkpt lat="44.64245" lon="3.85773">
        <ele>1187.48</ele>
        <time>2016-04-24T09:16:17Z</time>
      </trkpt>
      <trkpt lat="44.64245" lon="3.85775">
        <ele>1187.45</ele>
        <time>2016-04-24T09:16:18Z</time>
      </trkpt>
      <trkpt lat="44.64247" lon="3.85781">
        <ele>1187.48</ele>
        <time>2016-04-24T09:16:22Z</time>
      </trkpt>
      <trkpt lat="44.64248" lon="3.85787">
        <ele>1187.66</ele>
        <time>2016-04-24T09:16:26Z</time>
      </trkpt>
      <trkpt lat="44.64251" lon="3.85795">
        <ele>1187.69</ele>
        <time>2016-04-24T09:16:32Z</time>
      </trkpt>
      <trkpt lat="44.64258" lon="3.8582">
        <ele>1187.19</ele>
        <time>2016-04-24T09:16:48Z</time>
      </trkpt>
      <trkpt lat="44.64262" lon="3.85834">
        <ele>1186.84</ele>
        <time>2016-04-24T09:17:00Z</time>
      </trkpt>
      <trkpt lat="44.64263" lon="3.85839">
        <ele>1186.68</ele>
        <time>2016-04-24T09:17:03Z</time>
      </trkpt>
      <trkpt lat="44.64271" lon="3.85855">
        <ele>1187.93</ele>
        <time>2016-04-24T09:17:16Z</time>
      </trkpt>
      <trkpt lat="44.64276" lon="3.85858">
        <ele>1187.95</ele>
        <time>2016-04-24T09:17:20Z</time>
      </trkpt>
      <trkpt lat="44.64286" lon="3.85855">
        <ele>1186.69</ele>
        <time>2016-04-24T09:17:32Z</time>
      </trkpt>
      <trkpt lat="44.64305" lon="3.85855">
        <ele>1186.09</ele>
        <time>2016-04-24T09:17:50Z</time>
      </trkpt>
      <trkpt lat="44.64326" lon="3.85861">
        <ele>1187.65</ele>
        <time>2016-04-24T09:18:12Z</time>
      </trkpt>
      <trkpt lat="44.64341" lon="3.85875">
        <ele>1189.02</ele>
        <time>2016-04-24T09:18:31Z</time>
      </trkpt>
      <trkpt lat="44.6436" lon="3.85894">
        <ele>1190.22</ele>
        <time>2016-04-24T09:18:55Z</time>
      </trkpt>
      <trkpt lat="44.64374" lon="3.85916">
        <ele>1192.45</ele>
        <time>2016-04-24T09:19:17Z</time>
      </trkpt>
      <trkpt lat="44.6438" lon="3.85921">
        <ele>1192.9</ele>
        <time>2016-04-24T09:19:23Z</time>
      </trkpt>
      <trkpt lat="44.64397" lon="3.85938">
        <ele>1195.23</ele>
        <time>2016-04-24T09:19:43Z</time>
      </trkpt>
      <trkpt lat="44.64409" lon="3.85948">
        <ele>1196.66</ele>
        <time>2016-04-24T09:19:57Z</time>
      </trkpt>
      <trkpt lat="44.64422" lon="3.85956">
        <ele>1197.23</ele>
        <time>2016-04-24T09:20:12Z</time>
      </trkpt>
      <trkpt lat="44.64424" lon="3.85956">
        <ele>1197.25</ele>
        <time>2016-04-24T09:20:14Z</time>
      </trkpt>
      <trkpt lat="44.64432" lon="3.85958">
        <ele>1197.57</ele>
        <time>2016-04-24T09:20:23Z</time>
      </trkpt>
      <trkpt lat="44.64453" lon="3.85963">
        <ele>1198.05</ele>
        <time>2016-04-24T09:20:44Z</time>
      </trkpt>
      <trkpt lat="44.64475" lon="3.85974">
        <ele>1198.16</ele>
        <time>2016-04-24T09:21:06Z</time>
      </trkpt>
      <trkpt lat="44.64483" lon="3.85977">
        <ele>1198.18</ele>
        <time>2016-04-24T09:21:12Z</time>
      </trkpt>
      <trkpt lat="44.64497" lon="3.85988">
        <ele>1198.71</ele>
        <time>2016-04-24T09:21:25Z</time>
      </trkpt>
      <trkpt lat="44.64513" lon="3.86003">
        <ele>1199.34</ele>
        <time>2016-04-24T09:21:43Z</time>
      </trkpt>
      <trkpt lat="44.64523" lon="3.86015">
        <ele>1200.02</ele>
        <time>2016-04-24T09:21:55Z</time>
      </trkpt>
      <trkpt lat="44.64532" lon="3.86025">
        <ele>1200.22</ele>
        <time>2016-04-24T09:22:05Z</time>
      </trkpt>
      <trkpt lat="44.64543" lon="3.86041">
        <ele>1200.54</ele>
        <time>2016-04-24T09:22:21Z</time>
      </trkpt>
      <trkpt lat="44.64552" lon="3.86053">
        <ele>1201.1</ele>
        <time>2016-04-24T09:22:38Z</time>
      </trkpt>
      <trkpt lat="44.64567" lon="3.86071">
        <ele>1201.97</ele>
        <time>2016-04-24T09:23:00Z</time>
      </trkpt>
      <trkpt lat="44.64587" lon="3.86083">
        <ele>1203.21</ele>
        <time>2016-04-24T09:23:20Z</time>
      </trkpt>
      <trkpt lat="44.64609" lon="3.8609">
        <ele>1204.25</ele>
        <time>2016-04-24T09:23:40Z</time>
      </trkpt>
      <trkpt lat="44.6461" lon="3.86091">
        <ele>1204.27</ele>
        <time>2016-04-24T09:23:41Z</time>
      </trkpt>
      <trkpt lat="44.64629" lon="3.86096">
        <ele>1204.68</ele>
        <time>2016-04-24T09:23:58Z</time>
      </trkpt>
      <trkpt lat="44.64648" lon="3.86106">
        <ele>1205.59</ele>
        <time>2016-04-24T09:24:18Z</time>
      </trkpt>
      <trkpt lat="44.64665" lon="3.86113">
        <ele>1205.64</ele>
        <time>2016-04-24T09:24:34Z</time>
      </trkpt>
      <trkpt lat="44.64688" lon="3.8612">
        <ele>1207.05</ele>
        <time>2016-04-24T09:24:56Z</time>
      </trkpt>
      <trkpt lat="44.64707" lon="3.86128">
        <ele>1207.23</ele>
        <time>2016-04-24T09:25:13Z</time>
      </trkpt>
      <trkpt lat="44.64724" lon="3.86136">
        <ele>1206.49</ele>
        <time>2016-04-24T09:25:28Z</time>
      </trkpt>
      <trkpt lat="44.64737" lon="3.86145">
        <ele>1205.73</ele>
        <time>2016-04-24T09:25:42Z</time>
      </trkpt>
      <trkpt lat="44.64741" lon="3.86146">
        <ele>1205.17</ele>
        <time>2016-04-24T09:25:47Z</time>
      </trkpt>
      <trkpt lat="44.6476" lon="3.86156">
        <ele>1203.51</ele>
        <time>2016-04-24T09:26:04Z</time>
      </trkpt>
      <trkpt lat="44.64764" lon="3.86157">
        <ele>1203.27</ele>
        <time>2016-04-24T09:26:07Z</time>
      </trkpt>
      <trkpt lat="44.64769" lon="3.86159">
        <ele>1202.92</ele>
        <time>2016-04-24T09:26:12Z</time>
      </trkpt>
      <trkpt lat="44.64774" lon="3.86161">
        <ele>1202.58</ele>
        <time>2016-04-24T09:26:16Z</time>
      </trkpt>
      <trkpt lat="44.64782" lon="3.86164">
        <ele>1201.63</ele>
        <time>2016-04-24T09:26:24Z</time>
      </trkpt>
      <trkpt lat="44.64798" lon="3.86169">
        <ele>1200.07</ele>
        <time>2016-04-24T09:26:38Z</time>
      </trkpt>
      <trkpt lat="44.6481" lon="3.86175">
        <ele>1198.49</ele>
        <time>2016-04-24T09:26:53Z</time>
      </trkpt>
      <trkpt lat="44.64815" lon="3.86182">
        <ele>1197.68</ele>
        <time>2016-04-24T09:27:00Z</time>
      </trkpt>
      <trkpt lat="44.64829" lon="3.86195">
        <ele>1195.98</ele>
        <time>2016-04-24T09:27:16Z</time>
      </trkpt>
      <trkpt lat="44.64842" lon="3.86209">
        <ele>1194.88</ele>
        <time>2016-04-24T09:27:33Z</time>
      </trkpt>
      <trkpt lat="44.64853" lon="3.8622">
        <ele>1194.91</ele>
        <time>2016-04-24T09:27:44Z</time>
      </trkpt>
      <trkpt lat="44.6487" lon="3.86236">
        <ele>1193.96</ele>
        <time>2016-04-24T09:27:59Z</time>
      </trkpt>
      <trkpt lat="44.64882" lon="3.86254">
        <ele>1193.83</ele>
        <time>2016-04-24T09:28:15Z</time>
      </trkpt>
      <trkpt lat="44.64883" lon="3.86255">
        <ele>1193.83</ele>
        <time>2016-04-24T09:28:16Z</time>
      </trkpt>
      <trkpt lat="44.64893" lon="3.86274">
        <ele>1194.03</ele>
        <time>2016-04-24T09:28:32Z</time>
      </trkpt>
      <trkpt lat="44.64896" lon="3.86281">
        <ele>1194.23</ele>
        <time>2016-04-24T09:28:37Z</time>
      </trkpt>
      <trkpt lat="44.64898" lon="3.86285">
        <ele>1194.4</ele>
        <time>2016-04-24T09:28:40Z</time>
      </trkpt>
      <trkpt lat="44.6491" lon="3.86307">
        <ele>1194.46</ele>
        <time>2016-04-24T09:28:56Z</time>
      </trkpt>
      <trkpt lat="44.64918" lon="3.86324">
        <ele>1195.08</ele>
        <time>2016-04-24T09:29:09Z</time>
      </trkpt>
      <trkpt lat="44.64928" lon="3.8634">
        <ele>1195.97</ele>
        <time>2016-04-24T09:29:24Z</time>
      </trkpt>
      <trkpt lat="44.64931" lon="3.86344">
        <ele>1196.06</ele>
        <time>2016-04-24T09:29:27Z</time>
      </trkpt>
      <trkpt lat="44.64935" lon="3.86357">
        <ele>1196.22</ele>
        <time>2016-04-24T09:29:40Z</time>
      </trkpt>
      <trkpt lat="44.64936" lon="3.86362">
        <ele>1196.4</ele>
        <time>2016-04-24T09:29:44Z</time>
      </trkpt>
      <trkpt lat="44.6494" lon="3.86381">
        <ele>1197.37</ele>
        <time>2016-04-24T09:29:58Z</time>
      </trkpt>
      <trkpt lat="44.64943" lon="3.86396">
        <ele>1197.93</ele>
        <time>2016-04-24T09:30:11Z</time>
      </trkpt>
      <trkpt lat="44.64944" lon="3.86406">
        <ele>1198.05</ele>
        <time>2016-04-24T09:30:16Z</time>
      </trkpt>
      <trkpt lat="44.64946" lon="3.86426">
        <ele>1198.68</ele>
        <time>2016-04-24T09:30:30Z</time>
      </trkpt>
      <trkpt lat="44.64947" lon="3.86431">
        <ele>1198.68</ele>
        <time>2016-04-24T09:30:33Z</time>
      </trkpt>
      <trkpt lat="44.64947" lon="3.8645">
        <ele>1199.14</ele>
        <time>2016-04-24T09:30:47Z</time>
      </trkpt>
      <trkpt lat="44.64947" lon="3.86466">
        <ele>1199.19</ele>
        <time>2016-04-24T09:30:58Z</time>
      </trkpt>
      <trkpt lat="44.64948" lon="3.86478">
        <ele>1199.17</ele>
        <time>2016-04-24T09:31:06Z</time>
      </trkpt>
      <trkpt lat="44.64947" lon="3.86487">
        <ele>1199.42</ele>
        <time>2016-04-24T09:31:10Z</time>
      </trkpt>
      <trkpt lat="44.64948" lon="3.86502">
        <ele>1199.55</ele>
        <time>2016-04-24T09:31:21Z</time>
      </trkpt>
      <trkpt lat="44.64948" lon="3.86514">
        <ele>1199.4</ele>
        <time>2016-04-24T09:31:26Z</time>
      </trkpt>
      <trkpt lat="44.64952" lon="3.8654">
        <ele>1199.04</ele>
        <time>2016-04-24T09:31:40Z</time>
      </trkpt>
      <trkpt lat="44.64954" lon="3.86554">
        <ele>1200.1</ele>
        <time>2016-04-24T09:31:49Z</time>
      </trkpt>
      <trkpt lat="44.64954" lon="3.86558">
        <ele>1200.7</ele>
        <time>2016-04-24T09:31:52Z</time>
      </trkpt>
      <trkpt lat="44.64957" lon="3.86584">
        <ele>1200.76</ele>
        <time>2016-04-24T09:32:07Z</time>
      </trkpt>
      <trkpt lat="44.64958" lon="3.86603">
        <ele>1200.66</ele>
        <time>2016-04-24T09:32:21Z</time>
      </trkpt>
      <trkpt lat="44.64958" lon="3.8661">
        <ele>1201</ele>
        <time>2016-04-24T09:32:26Z</time>
      </trkpt>
      <trkpt lat="44.64957" lon="3.86627">
        <ele>1201.36</ele>
        <time>2016-04-24T09:32:38Z</time>
      </trkpt>
      <trkpt lat="44.64956" lon="3.86648">
        <ele>1201.88</ele>
        <time>2016-04-24T09:32:51Z</time>
      </trkpt>
      <trkpt lat="44.64955" lon="3.86669">
        <ele>1202.81</ele>
        <time>2016-04-24T09:33:06Z</time>
      </trkpt>
      <trkpt lat="44.64954" lon="3.86692">
        <ele>1203.33</ele>
        <time>2016-04-24T09:33:22Z</time>
      </trkpt>
      <trkpt lat="44.64954" lon="3.86697">
        <ele>1203.45</ele>
        <time>2016-04-24T09:33:25Z</time>
      </trkpt>
      <trkpt lat="44.64954" lon="3.86712">
        <ele>1203.92</ele>
        <time>2016-04-24T09:33:34Z</time>
      </trkpt>
      <trkpt lat="44.64952" lon="3.86718">
        <ele>1204.28</ele>
        <time>2016-04-24T09:33:37Z</time>
      </trkpt>
      <trkpt lat="44.64949" lon="3.86731">
        <ele>1205.07</ele>
        <time>2016-04-24T09:33:47Z</time>
      </trkpt>
      <trkpt lat="44.64949" lon="3.86734">
        <ele>1205.18</ele>
        <time>2016-04-24T09:33:49Z</time>
      </trkpt>
      <trkpt lat="44.64947" lon="3.86739">
        <ele>1205.39</ele>
        <time>2016-04-24T09:33:54Z</time>
      </trkpt>
      <trkpt lat="44.64943" lon="3.86765">
        <ele>1205.65</ele>
        <time>2016-04-24T09:34:08Z</time>
      </trkpt>
      <trkpt lat="44.64942" lon="3.86771">
        <ele>1206.07</ele>
        <time>2016-04-24T09:34:12Z</time>
      </trkpt>
      <trkpt lat="44.64941" lon="3.86774">
        <ele>1206.29</ele>
        <time>2016-04-24T09:34:14Z</time>
      </trkpt>
      <trkpt lat="44.64939" lon="3.86784">
        <ele>1206.45</ele>
        <time>2016-04-24T09:34:20Z</time>
      </trkpt>
      <trkpt lat="44.64938" lon="3.86795">
        <ele>1206.95</ele>
        <time>2016-04-24T09:34:26Z</time>
      </trkpt>
      <trkpt lat="44.64933" lon="3.86821">
        <ele>1207.15</ele>
        <time>2016-04-24T09:34:42Z</time>
      </trkpt>
      <trkpt lat="44.64932" lon="3.86829">
        <ele>1207.28</ele>
        <time>2016-04-24T09:34:47Z</time>
      </trkpt>
      <trkpt lat="44.64932" lon="3.86839">
        <ele>1207.68</ele>
        <time>2016-04-24T09:34:53Z</time>
      </trkpt>
      <trkpt lat="44.6493" lon="3.86858">
        <ele>1208.24</ele>
        <time>2016-04-24T09:35:05Z</time>
      </trkpt>
      <trkpt lat="44.6493" lon="3.86868">
        <ele>1208.12</ele>
        <time>2016-04-24T09:35:11Z</time>
      </trkpt>
      <trkpt lat="44.64928" lon="3.86873">
        <ele>1208.02</ele>
        <time>2016-04-24T09:35:14Z</time>
      </trkpt>
      <trkpt lat="44.64928" lon="3.86879">
        <ele>1208.21</ele>
        <time>2016-04-24T09:35:18Z</time>
      </trkpt>
      <trkpt lat="44.64928" lon="3.86898">
        <ele>1208.26</ele>
        <time>2016-04-24T09:35:29Z</time>
      </trkpt>
      <trkpt lat="44.64926" lon="3.86911">
        <ele>1208.18</ele>
        <time>2016-04-24T09:35:37Z</time>
      </trkpt>
      <trkpt lat="44.64925" lon="3.86914">
        <ele>1208.1</ele>
        <time>2016-04-24T09:35:39Z</time>
      </trkpt>
      <trkpt lat="44.64925" lon="3.8692">
        <ele>1207.79</ele>
        <time>2016-04-24T09:35:43Z</time>
      </trkpt>
      <trkpt lat="44.64924" lon="3.86931">
        <ele>1207.4</ele>
        <time>2016-04-24T09:35:50Z</time>
      </trkpt>
      <trkpt lat="44.64923" lon="3.86934">
        <ele>1207.33</ele>
        <time>2016-04-24T09:35:52Z</time>
      </trkpt>
      <trkpt lat="44.64921" lon="3.86942">
        <ele>1207.47</ele>
        <time>2016-04-24T09:35:57Z</time>
      </trkpt>
      <trkpt lat="44.64919" lon="3.86954">
        <ele>1207.73</ele>
        <time>2016-04-24T09:36:05Z</time>
      </trkpt>
      <trkpt lat="44.64919" lon="3.86958">
        <ele>1207.63</ele>
        <time>2016-04-24T09:36:08Z</time>
      </trkpt>
      <trkpt lat="44.64919" lon="3.86963">
        <ele>1207.69</ele>
        <time>2016-04-24T09:36:11Z</time>
      </trkpt>
      <trkpt lat="44.64917" lon="3.86976">
        <ele>1208.08</ele>
        <time>2016-04-24T09:36:19Z</time>
      </trkpt>
      <trkpt lat="44.64916" lon="3.87003">
        <ele>1207.44</ele>
        <time>2016-04-24T09:36:35Z</time>
      </trkpt>
      <trkpt lat="44.64917" lon="3.87017">
        <ele>1207.31</ele>
        <time>2016-04-24T09:36:44Z</time>
      </trkpt>
      <trkpt lat="44.64917" lon="3.87042">
        <ele>1207.59</ele>
        <time>2016-04-24T09:37:00Z</time>
      </trkpt>
      <trkpt lat="44.64918" lon="3.87045">
        <ele>1207.54</ele>
        <time>2016-04-24T09:37:02Z</time>
      </trkpt>
      <trkpt lat="44.64919" lon="3.87051">
        <ele>1207.42</ele>
        <time>2016-04-24T09:37:06Z</time>
      </trkpt>
      <trkpt lat="44.6492" lon="3.8706">
        <ele>1207.04</ele>
        <time>2016-04-24T09:37:11Z</time>
      </trkpt>
      <trkpt lat="44.64926" lon="3.87076">
        <ele>1206.17</ele>
        <time>2016-04-24T09:37:23Z</time>
      </trkpt>
      <trkpt lat="44.64925" lon="3.87085">
        <ele>1205.59</ele>
        <time>2016-04-24T09:37:30Z</time>
      </trkpt>
      <trkpt lat="44.64925" lon="3.87108">
        <ele>1205.24</ele>
        <time>2016-04-24T09:37:45Z</time>
      </trkpt>
      <trkpt lat="44.64925" lon="3.87122">
        <ele>1205.5</ele>
        <time>2016-04-24T09:37:54Z</time>
      </trkpt>
      <trkpt lat="44.64924" lon="3.87137">
        <ele>1205.92</ele>
        <time>2016-04-24T09:38:03Z</time>
      </trkpt>
      <trkpt lat="44.64925" lon="3.87147">
        <ele>1205.71</ele>
        <time>2016-04-24T09:38:08Z</time>
      </trkpt>
      <trkpt lat="44.64924" lon="3.87174">
        <ele>1204.31</ele>
        <time>2016-04-24T09:38:25Z</time>
      </trkpt>
      <trkpt lat="44.64924" lon="3.87183">
        <ele>1203.78</ele>
        <time>2016-04-24T09:38:33Z</time>
      </trkpt>
      <trkpt lat="44.64925" lon="3.87187">
        <ele>1203.68</ele>
        <time>2016-04-24T09:38:35Z</time>
      </trkpt>
      <trkpt lat="44.64922" lon="3.87204">
        <ele>1203.46</ele>
        <time>2016-04-24T09:38:47Z</time>
      </trkpt>
      <trkpt lat="44.64921" lon="3.87214">
        <ele>1203.03</ele>
        <time>2016-04-24T09:38:54Z</time>
      </trkpt>
      <trkpt lat="44.64917" lon="3.87235">
        <ele>1201.92</ele>
        <time>2016-04-24T09:39:08Z</time>
      </trkpt>
      <trkpt lat="44.64914" lon="3.87263">
        <ele>1201.37</ele>
        <time>2016-04-24T09:39:22Z</time>
      </trkpt>
      <trkpt lat="44.64912" lon="3.87267">
        <ele>1201.13</ele>
        <time>2016-04-24T09:39:26Z</time>
      </trkpt>
      <trkpt lat="44.64903" lon="3.87289">
        <ele>1200.38</ele>
        <time>2016-04-24T09:39:40Z</time>
      </trkpt>
      <trkpt lat="44.649" lon="3.87304">
        <ele>1199.43</ele>
        <time>2016-04-24T09:39:51Z</time>
      </trkpt>
      <trkpt lat="44.64899" lon="3.87318">
        <ele>1198.57</ele>
        <time>2016-04-24T09:40:00Z</time>
      </trkpt>
      <trkpt lat="44.64899" lon="3.87327">
        <ele>1198.33</ele>
        <time>2016-04-24T09:40:05Z</time>
      </trkpt>
      <trkpt lat="44.64901" lon="3.87347">
        <ele>1197.18</ele>
        <time>2016-04-24T09:40:18Z</time>
      </trkpt>
      <trkpt lat="44.64901" lon="3.8736">
        <ele>1196.8</ele>
        <time>2016-04-24T09:40:31Z</time>
      </trkpt>
      <trkpt lat="44.64904" lon="3.87377">
        <ele>1195.09</ele>
        <time>2016-04-24T09:40:46Z</time>
      </trkpt>
      <trkpt lat="44.64911" lon="3.87401">
        <ele>1194.97</ele>
        <time>2016-04-24T09:40:57Z</time>
      </trkpt>
      <trkpt lat="44.64914" lon="3.87416">
        <ele>1194.12</ele>
        <time>2016-04-24T09:41:06Z</time>
      </trkpt>
      <trkpt lat="44.64915" lon="3.8742">
        <ele>1193.96</ele>
        <time>2016-04-24T09:41:08Z</time>
      </trkpt>
      <trkpt lat="44.64915" lon="3.87428">
        <ele>1193.84</ele>
        <time>2016-04-24T09:41:12Z</time>
      </trkpt>
      <trkpt lat="44.64915" lon="3.87433">
        <ele>1193.72</ele>
        <time>2016-04-24T09:41:15Z</time>
      </trkpt>
      <trkpt lat="44.64915" lon="3.87438">
        <ele>1193.57</ele>
        <time>2016-04-24T09:41:17Z</time>
      </trkpt>
      <trkpt lat="44.64916" lon="3.87441">
        <ele>1193.46</ele>
        <time>2016-04-24T09:41:19Z</time>
      </trkpt>
      <trkpt lat="44.64918" lon="3.87453">
        <ele>1193.31</ele>
        <time>2016-04-24T09:41:25Z</time>
      </trkpt>
      <trkpt lat="44.6492" lon="3.87465">
        <ele>1192.94</ele>
        <time>2016-04-24T09:41:31Z</time>
      </trkpt>
      <trkpt lat="44.64923" lon="3.8749">
        <ele>1191.82</ele>
        <time>2016-04-24T09:41:45Z</time>
      </trkpt>
      <trkpt lat="44.64926" lon="3.87508">
        <ele>1190.93</ele>
        <time>2016-04-24T09:41:56Z</time>
      </trkpt>
      <trkpt lat="44.64926" lon="3.87517">
        <ele>1190.4</ele>
        <time>2016-04-24T09:42:02Z</time>
      </trkpt>
      <trkpt lat="44.64928" lon="3.87544">
        <ele>1189</ele>
        <time>2016-04-24T09:42:22Z</time>
      </trkpt>
      <trkpt lat="44.64929" lon="3.87547">
        <ele>1188.86</ele>
        <time>2016-04-24T09:42:24Z</time>
      </trkpt>
      <trkpt lat="44.6493" lon="3.87552">
        <ele>1188.46</ele>
        <time>2016-04-24T09:42:27Z</time>
      </trkpt>
      <trkpt lat="44.64936" lon="3.87563">
        <ele>1187.71</ele>
        <time>2016-04-24T09:42:34Z</time>
      </trkpt>
      <trkpt lat="44.64949" lon="3.87565">
        <ele>1186.25</ele>
        <time>2016-04-24T09:42:47Z</time>
      </trkpt>
      <trkpt lat="44.6497" lon="3.87567">
        <ele>1185.09</ele>
        <time>2016-04-24T09:43:03Z</time>
      </trkpt>
      <trkpt lat="44.64978" lon="3.87568">
        <ele>1184.7</ele>
        <time>2016-04-24T09:43:09Z</time>
      </trkpt>
      <trkpt lat="44.64992" lon="3.87571">
        <ele>1184.3</ele>
        <time>2016-04-24T09:43:20Z</time>
      </trkpt>
      <trkpt lat="44.65001" lon="3.87588">
        <ele>1183.98</ele>
        <time>2016-04-24T09:43:35Z</time>
      </trkpt>
      <trkpt lat="44.65007" lon="3.87601">
        <ele>1183.96</ele>
        <time>2016-04-24T09:43:44Z</time>
      </trkpt>
      <trkpt lat="44.65009" lon="3.87613">
        <ele>1183.28</ele>
        <time>2016-04-24T09:43:51Z</time>
      </trkpt>
      <trkpt lat="44.6502" lon="3.87628">
        <ele>1182.59</ele>
        <time>2016-04-24T09:44:04Z</time>
      </trkpt>
      <trkpt lat="44.65025" lon="3.87633">
        <ele>1182.55</ele>
        <time>2016-04-24T09:44:10Z</time>
      </trkpt>
      <trkpt lat="44.65029" lon="3.87639">
        <ele>1182.51</ele>
        <time>2016-04-24T09:44:16Z</time>
      </trkpt>
      <trkpt lat="44.65037" lon="3.87646">
        <ele>1180.95</ele>
        <time>2016-04-24T09:44:25Z</time>
      </trkpt>
      <trkpt lat="44.65043" lon="3.87651">
        <ele>1180.45</ele>
        <time>2016-04-24T09:44:32Z</time>
      </trkpt>
      <trkpt lat="44.65047" lon="3.87654">
        <ele>1180.33</ele>
        <time>2016-04-24T09:44:36Z</time>
      </trkpt>
      <trkpt lat="44.65057" lon="3.87668">
        <ele>1178.81</ele>
        <time>2016-04-24T09:44:51Z</time>
      </trkpt>
      <trkpt lat="44.65067" lon="3.87681">
        <ele>1176.65</ele>
        <time>2016-04-24T09:45:07Z</time>
      </trkpt>
      <trkpt lat="44.6507" lon="3.87686">
        <ele>1175.77</ele>
        <time>2016-04-24T09:45:12Z</time>
      </trkpt>
      <trkpt lat="44.65074" lon="3.87693">
        <ele>1174.7</ele>
        <time>2016-04-24T09:45:20Z</time>
      </trkpt>
      <trkpt lat="44.6508" lon="3.87702">
        <ele>1173.74</ele>
        <time>2016-04-24T09:45:30Z</time>
      </trkpt>
      <trkpt lat="44.65088" lon="3.87713">
        <ele>1172.2</ele>
        <time>2016-04-24T09:45:41Z</time>
      </trkpt>
      <trkpt lat="44.65091" lon="3.87719">
        <ele>1171.14</ele>
        <time>2016-04-24T09:45:46Z</time>
      </trkpt>
      <trkpt lat="44.65102" lon="3.87734">
        <ele>1169.1</ele>
        <time>2016-04-24T09:46:00Z</time>
      </trkpt>
      <trkpt lat="44.65107" lon="3.8775">
        <ele>1167.04</ele>
        <time>2016-04-24T09:46:13Z</time>
      </trkpt>
      <trkpt lat="44.65112" lon="3.8776">
        <ele>1165.66</ele>
        <time>2016-04-24T09:46:21Z</time>
      </trkpt>
      <trkpt lat="44.65118" lon="3.87763">
        <ele>1164.26</ele>
        <time>2016-04-24T09:46:27Z</time>
      </trkpt>
      <trkpt lat="44.65128" lon="3.87769">
        <ele>1162.81</ele>
        <time>2016-04-24T09:46:39Z</time>
      </trkpt>
      <trkpt lat="44.65132" lon="3.87768">
        <ele>1162.1</ele>
        <time>2016-04-24T09:46:43Z</time>
      </trkpt>
      <trkpt lat="44.65135" lon="3.87768">
        <ele>1161.38</ele>
        <time>2016-04-24T09:46:46Z</time>
      </trkpt>
      <trkpt lat="44.65146" lon="3.8777">
        <ele>1159.66</ele>
        <time>2016-04-24T09:46:56Z</time>
      </trkpt>
      <trkpt lat="44.65152" lon="3.87768">
        <ele>1158.27</ele>
        <time>2016-04-24T09:47:03Z</time>
      </trkpt>
      <trkpt lat="44.65154" lon="3.87768">
        <ele>1157.93</ele>
        <time>2016-04-24T09:47:05Z</time>
      </trkpt>
      <trkpt lat="44.65162" lon="3.87766">
        <ele>1157.07</ele>
        <time>2016-04-24T09:47:13Z</time>
      </trkpt>
      <trkpt lat="44.65173" lon="3.8776">
        <ele>1156.3</ele>
        <time>2016-04-24T09:47:25Z</time>
      </trkpt>
      <trkpt lat="44.65177" lon="3.87757">
        <ele>1156.04</ele>
        <time>2016-04-24T09:47:28Z</time>
      </trkpt>
      <trkpt lat="44.65184" lon="3.87752">
        <ele>1155.14</ele>
        <time>2016-04-24T09:47:35Z</time>
      </trkpt>
      <trkpt lat="44.65197" lon="3.87741">
        <ele>1153.21</ele>
        <time>2016-04-24T09:47:51Z</time>
      </trkpt>
      <trkpt lat="44.652" lon="3.87738">
        <ele>1153.42</ele>
        <time>2016-04-24T09:47:54Z</time>
      </trkpt>
      <trkpt lat="44.65208" lon="3.87723">
        <ele>1151.42</ele>
        <time>2016-04-24T09:48:07Z</time>
      </trkpt>
      <trkpt lat="44.65218" lon="3.87717">
        <ele>1150.72</ele>
        <time>2016-04-24T09:48:23Z</time>
      </trkpt>
      <trkpt lat="44.65215" lon="3.87728">
        <ele>1148.54</ele>
        <time>2016-04-24T09:48:36Z</time>
      </trkpt>
      <trkpt lat="44.65214" lon="3.87733">
        <ele>1147.91</ele>
        <time>2016-04-24T09:48:39Z</time>
      </trkpt>
      <trkpt lat="44.65211" lon="3.87752">
        <ele>1145.38</ele>
        <time>2016-04-24T09:48:54Z</time>
      </trkpt>
      <trkpt lat="44.6521" lon="3.8776">
        <ele>1145.07</ele>
        <time>2016-04-24T09:48:59Z</time>
      </trkpt>
      <trkpt lat="44.65205" lon="3.87779">
        <ele>1143.17</ele>
        <time>2016-04-24T09:49:12Z</time>
      </trkpt>
      <trkpt lat="44.65203" lon="3.87803">
        <ele>1141.26</ele>
        <time>2016-04-24T09:49:29Z</time>
      </trkpt>
      <trkpt lat="44.65197" lon="3.87822">
        <ele>1138.68</ele>
        <time>2016-04-24T09:49:45Z</time>
      </trkpt>
      <trkpt lat="44.65196" lon="3.87832">
        <ele>1137.55</ele>
        <time>2016-04-24T09:49:53Z</time>
      </trkpt>
      <trkpt lat="44.6519" lon="3.87849">
        <ele>1135.4</ele>
        <time>2016-04-24T09:50:06Z</time>
      </trkpt>
      <trkpt lat="44.65188" lon="3.87858">
        <ele>1134.3</ele>
        <time>2016-04-24T09:50:13Z</time>
      </trkpt>
      <trkpt lat="44.65188" lon="3.87865">
        <ele>1133.24</ele>
        <time>2016-04-24T09:50:19Z</time>
      </trkpt>
      <trkpt lat="44.65181" lon="3.87879">
        <ele>1132.37</ele>
        <time>2016-04-24T09:50:31Z</time>
      </trkpt>
      <trkpt lat="44.65175" lon="3.87895">
        <ele>1130.69</ele>
        <time>2016-04-24T09:50:45Z</time>
      </trkpt>
      <trkpt lat="44.65165" lon="3.87905">
        <ele>1128.61</ele>
        <time>2016-04-24T09:51:00Z</time>
      </trkpt>
      <trkpt lat="44.65164" lon="3.87906">
        <ele>1128.54</ele>
        <time>2016-04-24T09:51:01Z</time>
      </trkpt>
      <trkpt lat="44.65154" lon="3.87914">
        <ele>1127.09</ele>
        <time>2016-04-24T09:51:16Z</time>
      </trkpt>
      <trkpt lat="44.65143" lon="3.87926">
        <ele>1124.74</ele>
        <time>2016-04-24T09:51:31Z</time>
      </trkpt>
      <trkpt lat="44.65135" lon="3.87939">
        <ele>1122.5</ele>
        <time>2016-04-24T09:51:47Z</time>
      </trkpt>
      <trkpt lat="44.65127" lon="3.87957">
        <ele>1120.09</ele>
        <time>2016-04-24T09:52:05Z</time>
      </trkpt>
      <trkpt lat="44.65116" lon="3.87978">
        <ele>1117.52</ele>
        <time>2016-04-24T09:52:27Z</time>
      </trkpt>
      <trkpt lat="44.65108" lon="3.87997">
        <ele>1114.48</ele>
        <time>2016-04-24T09:52:46Z</time>
      </trkpt>
      <trkpt lat="44.651" lon="3.88022">
        <ele>1111.64</ele>
        <time>2016-04-24T09:53:04Z</time>
      </trkpt>
      <trkpt lat="44.65102" lon="3.88041">
        <ele>1109.59</ele>
        <time>2016-04-24T09:53:23Z</time>
      </trkpt>
      <trkpt lat="44.65094" lon="3.88052">
        <ele>1109.7</ele>
        <time>2016-04-24T09:54:06Z</time>
      </trkpt>
      <trkpt lat="44.65093" lon="3.88073">
        <ele>1107.56</ele>
        <time>2016-04-24T09:54:23Z</time>
      </trkpt>
      <trkpt lat="44.65094" lon="3.88093">
        <ele>1104.63</ele>
        <time>2016-04-24T09:54:41Z</time>
      </trkpt>
      <trkpt lat="44.65095" lon="3.88103">
        <ele>1103.38</ele>
        <time>2016-04-24T09:54:47Z</time>
      </trkpt>
      <trkpt lat="44.65096" lon="3.88115">
        <ele>1102.03</ele>
        <time>2016-04-24T09:54:55Z</time>
      </trkpt>
      <trkpt lat="44.65095" lon="3.88131">
        <ele>1100.61</ele>
        <time>2016-04-24T09:55:08Z</time>
      </trkpt>
      <trkpt lat="44.65095" lon="3.88137">
        <ele>1099.72</ele>
        <time>2016-04-24T09:55:12Z</time>
      </trkpt>
      <trkpt lat="44.65096" lon="3.88147">
        <ele>1098.67</ele>
        <time>2016-04-24T09:55:18Z</time>
      </trkpt>
      <trkpt lat="44.65096" lon="3.88159">
        <ele>1098.18</ele>
        <time>2016-04-24T09:55:25Z</time>
      </trkpt>
      <trkpt lat="44.65096" lon="3.88167">
        <ele>1097.36</ele>
        <time>2016-04-24T09:55:30Z</time>
      </trkpt>
      <trkpt lat="44.65097" lon="3.88171">
        <ele>1096.89</ele>
        <time>2016-04-24T09:55:33Z</time>
      </trkpt>
      <trkpt lat="44.65099" lon="3.88189">
        <ele>1094.63</ele>
        <time>2016-04-24T09:55:47Z</time>
      </trkpt>
      <trkpt lat="44.65099" lon="3.88194">
        <ele>1094.2</ele>
        <time>2016-04-24T09:55:50Z</time>
      </trkpt>
      <trkpt lat="44.65098" lon="3.88203">
        <ele>1093.38</ele>
        <time>2016-04-24T09:55:57Z</time>
      </trkpt>
      <trkpt lat="44.65101" lon="3.88228">
        <ele>1090.76</ele>
        <time>2016-04-24T09:56:13Z</time>
      </trkpt>
      <trkpt lat="44.65102" lon="3.88245">
        <ele>1089.54</ele>
        <time>2016-04-24T09:56:25Z</time>
      </trkpt>
      <trkpt lat="44.65102" lon="3.88251">
        <ele>1088.77</ele>
        <time>2016-04-24T09:56:29Z</time>
      </trkpt>
      <trkpt lat="44.65113" lon="3.88268">
        <ele>1087.54</ele>
        <time>2016-04-24T09:56:41Z</time>
      </trkpt>
      <trkpt lat="44.65115" lon="3.88274">
        <ele>1087.37</ele>
        <time>2016-04-24T09:56:45Z</time>
      </trkpt>
      <trkpt lat="44.65117" lon="3.88298">
        <ele>1085.13</ele>
        <time>2016-04-24T09:57:00Z</time>
      </trkpt>
      <trkpt lat="44.65114" lon="3.88313">
        <ele>1084.73</ele>
        <time>2016-04-24T09:57:11Z</time>
      </trkpt>
      <trkpt lat="44.65113" lon="3.88332">
        <ele>1082.28</ele>
        <time>2016-04-24T09:57:24Z</time>
      </trkpt>
      <trkpt lat="44.65114" lon="3.88336">
        <ele>1082.14</ele>
        <time>2016-04-24T09:57:27Z</time>
      </trkpt>
      <trkpt lat="44.65112" lon="3.88356">
        <ele>1081.32</ele>
        <time>2016-04-24T09:57:38Z</time>
      </trkpt>
      <trkpt lat="44.65111" lon="3.88359">
        <ele>1081.02</ele>
        <time>2016-04-24T09:57:40Z</time>
      </trkpt>
      <trkpt lat="44.6511" lon="3.88383">
        <ele>1078.25</ele>
        <time>2016-04-24T09:57:56Z</time>
      </trkpt>
      <trkpt lat="44.65108" lon="3.88394">
        <ele>1077.24</ele>
        <time>2016-04-24T09:58:04Z</time>
      </trkpt>
      <trkpt lat="44.65108" lon="3.88397">
        <ele>1076.96</ele>
        <time>2016-04-24T09:58:06Z</time>
      </trkpt>
      <trkpt lat="44.65107" lon="3.8842">
        <ele>1075.05</ele>
        <time>2016-04-24T09:58:22Z</time>
      </trkpt>
      <trkpt lat="44.65106" lon="3.8843">
        <ele>1073.85</ele>
        <time>2016-04-24T09:58:29Z</time>
      </trkpt>
      <trkpt lat="44.65106" lon="3.88441">
        <ele>1073.03</ele>
        <time>2016-04-24T09:58:35Z</time>
      </trkpt>
      <trkpt lat="44.65104" lon="3.88446">
        <ele>1072.49</ele>
        <time>2016-04-24T09:58:38Z</time>
      </trkpt>
      <trkpt lat="44.65101" lon="3.88468">
        <ele>1071.36</ele>
        <time>2016-04-24T09:58:53Z</time>
      </trkpt>
      <trkpt lat="44.65098" lon="3.88483">
        <ele>1069.56</ele>
        <time>2016-04-24T09:59:08Z</time>
      </trkpt>
      <trkpt lat="44.65093" lon="3.88508">
        <ele>1067.52</ele>
        <time>2016-04-24T09:59:27Z</time>
      </trkpt>
      <trkpt lat="44.65087" lon="3.88537">
        <ele>1066.08</ele>
        <time>2016-04-24T09:59:44Z</time>
      </trkpt>
      <trkpt lat="44.65085" lon="3.88544">
        <ele>1065.83</ele>
        <time>2016-04-24T09:59:49Z</time>
      </trkpt>
      <trkpt lat="44.65084" lon="3.88564">
        <ele>1063.64</ele>
        <time>2016-04-24T10:00:03Z</time>
      </trkpt>
      <trkpt lat="44.65078" lon="3.88584">
        <ele>1062.01</ele>
        <time>2016-04-24T10:00:19Z</time>
      </trkpt>
      <trkpt lat="44.65072" lon="3.88602">
        <ele>1060.38</ele>
        <time>2016-04-24T10:00:35Z</time>
      </trkpt>
      <trkpt lat="44.6507" lon="3.88607">
        <ele>1059.99</ele>
        <time>2016-04-24T10:00:38Z</time>
      </trkpt>
      <trkpt lat="44.65063" lon="3.88627">
        <ele>1058.21</ele>
        <time>2016-04-24T10:00:53Z</time>
      </trkpt>
      <trkpt lat="44.65053" lon="3.88647">
        <ele>1056.98</ele>
        <time>2016-04-24T10:01:08Z</time>
      </trkpt>
      <trkpt lat="44.65047" lon="3.88661">
        <ele>1055.6</ele>
        <time>2016-04-24T10:01:19Z</time>
      </trkpt>
      <trkpt lat="44.65033" lon="3.88675">
        <ele>1054.06</ele>
        <time>2016-04-24T10:01:36Z</time>
      </trkpt>
      <trkpt lat="44.65022" lon="3.88692">
        <ele>1051.21</ele>
        <time>2016-04-24T10:01:52Z</time>
      </trkpt>
      <trkpt lat="44.65025" lon="3.88703">
        <ele>1049.85</ele>
        <time>2016-04-24T10:02:11Z</time>
      </trkpt>
      <trkpt lat="44.65037" lon="3.88714">
        <ele>1047.78</ele>
        <time>2016-04-24T10:02:30Z</time>
      </trkpt>
      <trkpt lat="44.65048" lon="3.88722">
        <ele>1045.28</ele>
        <time>2016-04-24T10:02:46Z</time>
      </trkpt>
      <trkpt lat="44.65054" lon="3.88727">
        <ele>1044.35</ele>
        <time>2016-04-24T10:02:53Z</time>
      </trkpt>
      <trkpt lat="44.65065" lon="3.88737">
        <ele>1042.3</ele>
        <time>2016-04-24T10:03:07Z</time>
      </trkpt>
      <trkpt lat="44.65079" lon="3.88746">
        <ele>1039.55</ele>
        <time>2016-04-24T10:03:24Z</time>
      </trkpt>
      <trkpt lat="44.65083" lon="3.88752">
        <ele>1037.67</ele>
        <time>2016-04-24T10:03:33Z</time>
      </trkpt>
      <trkpt lat="44.65092" lon="3.88759">
        <ele>1036.24</ele>
        <time>2016-04-24T10:03:46Z</time>
      </trkpt>
      <trkpt lat="44.65097" lon="3.88762">
        <ele>1034.79</ele>
        <time>2016-04-24T10:04:01Z</time>
      </trkpt>
      <trkpt lat="44.65097" lon="3.88762">
        <ele>1036.02</ele>
        <time>2016-04-24T10:04:31Z</time>
      </trkpt>
      <trkpt lat="44.65103" lon="3.88766">
        <ele>1035.04</ele>
        <time>2016-04-24T10:04:53Z</time>
      </trkpt>
      <trkpt lat="44.65105" lon="3.88765">
        <ele>1035.11</ele>
        <time>2016-04-24T10:05:12Z</time>
      </trkpt>
      <trkpt lat="44.65105" lon="3.88764">
        <ele>1034.81</ele>
        <time>2016-04-24T10:05:48Z</time>
      </trkpt>
      <trkpt lat="44.65105" lon="3.88766">
        <ele>1034.76</ele>
        <time>2016-04-24T10:06:26Z</time>
      </trkpt>
      <trkpt lat="44.65106" lon="3.88772">
        <ele>1034.96</ele>
        <time>2016-04-24T10:06:51Z</time>
      </trkpt>
      <trkpt lat="44.65108" lon="3.88775">
        <ele>1034.79</ele>
        <time>2016-04-24T10:06:54Z</time>
      </trkpt>
      <trkpt lat="44.65109" lon="3.88778">
        <ele>1034.62</ele>
        <time>2016-04-24T10:06:56Z</time>
      </trkpt>
      <trkpt lat="44.65114" lon="3.88781">
        <ele>1033.77</ele>
        <time>2016-04-24T10:07:03Z</time>
      </trkpt>
      <trkpt lat="44.65117" lon="3.88782">
        <ele>1033.48</ele>
        <time>2016-04-24T10:07:06Z</time>
      </trkpt>
      <trkpt lat="44.65119" lon="3.88784">
        <ele>1033.25</ele>
        <time>2016-04-24T10:07:09Z</time>
      </trkpt>
      <trkpt lat="44.65124" lon="3.88785">
        <ele>1032.78</ele>
        <time>2016-04-24T10:07:13Z</time>
      </trkpt>
      <trkpt lat="44.65138" lon="3.88793">
        <ele>1029.29</ele>
        <time>2016-04-24T10:07:28Z</time>
      </trkpt>
      <trkpt lat="44.65153" lon="3.88802">
        <ele>1027.2</ele>
        <time>2016-04-24T10:07:42Z</time>
      </trkpt>
      <trkpt lat="44.65162" lon="3.88806">
        <ele>1025.95</ele>
        <time>2016-04-24T10:07:56Z</time>
      </trkpt>
      <trkpt lat="44.65167" lon="3.88813">
        <ele>1025.37</ele>
        <time>2016-04-24T10:08:16Z</time>
      </trkpt>
      <trkpt lat="44.65169" lon="3.88818">
        <ele>1026.09</ele>
        <time>2016-04-24T10:08:28Z</time>
      </trkpt>
      <trkpt lat="44.65178" lon="3.88832">
        <ele>1025.37</ele>
        <time>2016-04-24T10:08:43Z</time>
      </trkpt>
      <trkpt lat="44.65181" lon="3.88834">
        <ele>1025.44</ele>
        <time>2016-04-24T10:08:47Z</time>
      </trkpt>
      <trkpt lat="44.65186" lon="3.8884">
        <ele>1026.57</ele>
        <time>2016-04-24T10:09:02Z</time>
      </trkpt>
      <trkpt lat="44.65187" lon="3.88842">
        <ele>1026.71</ele>
        <time>2016-04-24T10:09:10Z</time>
      </trkpt>
      <trkpt lat="44.65192" lon="3.88853">
        <ele>1026.83</ele>
        <time>2016-04-24T10:09:23Z</time>
      </trkpt>
      <trkpt lat="44.65198" lon="3.88871">
        <ele>1027.46</ele>
        <time>2016-04-24T10:09:38Z</time>
      </trkpt>
      <trkpt lat="44.65201" lon="3.88886">
        <ele>1029.65</ele>
        <time>2016-04-24T10:09:52Z</time>
      </trkpt>
      <trkpt lat="44.65202" lon="3.88887">
        <ele>1031.86</ele>
        <time>2016-04-24T10:10:17Z</time>
      </trkpt>
      <trkpt lat="44.65207" lon="3.88891">
        <ele>1031.3</ele>
        <time>2016-04-24T10:10:45Z</time>
      </trkpt>
      <trkpt lat="44.65211" lon="3.88905">
        <ele>1031.13</ele>
        <time>2016-04-24T10:10:55Z</time>
      </trkpt>
      <trkpt lat="44.65216" lon="3.88924">
        <ele>1031.06</ele>
        <time>2016-04-24T10:11:11Z</time>
      </trkpt>
      <trkpt lat="44.65216" lon="3.88934">
        <ele>1031.62</ele>
        <time>2016-04-24T10:11:24Z</time>
      </trkpt>
      <trkpt lat="44.65214" lon="3.88937">
        <ele>1031.6</ele>
        <time>2016-04-24T10:11:27Z</time>
      </trkpt>
      <trkpt lat="44.65205" lon="3.88951">
        <ele>1030.31</ele>
        <time>2016-04-24T10:11:40Z</time>
      </trkpt>
      <trkpt lat="44.65208" lon="3.88948">
        <ele>1031.34</ele>
        <time>2016-04-24T10:12:11Z</time>
      </trkpt>
      <trkpt lat="44.6521" lon="3.88944">
        <ele>1031.03</ele>
        <time>2016-04-24T10:12:36Z</time>
      </trkpt>
      <trkpt lat="44.65213" lon="3.88941">
        <ele>1031.21</ele>
        <time>2016-04-24T10:12:40Z</time>
      </trkpt>
      <trkpt lat="44.65218" lon="3.88932">
        <ele>1031.35</ele>
        <time>2016-04-24T10:12:53Z</time>
      </trkpt>
      <trkpt lat="44.65221" lon="3.88932">
        <ele>1032.55</ele>
        <time>2016-04-24T10:13:16Z</time>
      </trkpt>
      <trkpt lat="44.65218" lon="3.88935">
        <ele>1032.5</ele>
        <time>2016-04-24T10:13:39Z</time>
      </trkpt>
      <trkpt lat="44.65217" lon="3.88935">
        <ele>1032.44</ele>
        <time>2016-04-24T10:14:05Z</time>
      </trkpt>
      <trkpt lat="44.65219" lon="3.88934">
        <ele>1032.55</ele>
        <time>2016-04-24T10:14:31Z</time>
      </trkpt>
      <trkpt lat="44.65215" lon="3.88936">
        <ele>1031.7</ele>
        <time>2016-04-24T10:14:57Z</time>
      </trkpt>
      <trkpt lat="44.65212" lon="3.88937">
        <ele>1031.74</ele>
        <time>2016-04-24T10:15:28Z</time>
      </trkpt>
      <trkpt lat="44.65202" lon="3.88939">
        <ele>1031.29</ele>
        <time>2016-04-24T10:15:44Z</time>
      </trkpt>
      <trkpt lat="44.652" lon="3.88931">
        <ele>1029.58</ele>
        <time>2016-04-24T10:15:58Z</time>
      </trkpt>
      <trkpt lat="44.65194" lon="3.88921">
        <ele>1029.43</ele>
        <time>2016-04-24T10:16:15Z</time>
      </trkpt>
      <trkpt lat="44.6519" lon="3.88907">
        <ele>1029.17</ele>
        <time>2016-04-24T10:16:25Z</time>
      </trkpt>
      <trkpt lat="44.65192" lon="3.889">
        <ele>1029.03</ele>
        <time>2016-04-24T10:16:35Z</time>
      </trkpt>
      <trkpt lat="44.65204" lon="3.88888">
        <ele>1029.44</ele>
        <time>2016-04-24T10:17:27Z</time>
      </trkpt>
      <trkpt lat="44.65209" lon="3.88902">
        <ele>1030.33</ele>
        <time>2016-04-24T10:17:50Z</time>
      </trkpt>
      <trkpt lat="44.65212" lon="3.8892">
        <ele>1030.78</ele>
        <time>2016-04-24T10:17:54Z</time>
      </trkpt>
      <trkpt lat="44.65217" lon="3.88926">
        <ele>1031.1</ele>
        <time>2016-04-24T10:18:20Z</time>
      </trkpt>
      <trkpt lat="44.65212" lon="3.88911">
        <ele>1031.4</ele>
        <time>2016-04-24T10:18:39Z</time>
      </trkpt>
      <trkpt lat="44.65209" lon="3.88907">
        <ele>1031.49</ele>
        <time>2016-04-24T10:18:43Z</time>
      </trkpt>
      <trkpt lat="44.65207" lon="3.88905">
        <ele>1031.44</ele>
        <time>2016-04-24T10:18:45Z</time>
      </trkpt>
      <trkpt lat="44.65204" lon="3.88892">
        <ele>1029.79</ele>
        <time>2016-04-24T10:18:55Z</time>
      </trkpt>
      <trkpt lat="44.65204" lon="3.88887">
        <ele>1029.52</ele>
        <time>2016-04-24T10:18:59Z</time>
      </trkpt>
      <trkpt lat="44.65201" lon="3.88874">
        <ele>1029.76</ele>
        <time>2016-04-24T10:19:08Z</time>
      </trkpt>
      <trkpt lat="44.65199" lon="3.88867">
        <ele>1029.43</ele>
        <time>2016-04-24T10:19:13Z</time>
      </trkpt>
      <trkpt lat="44.65188" lon="3.88845">
        <ele>1026.88</ele>
        <time>2016-04-24T10:19:30Z</time>
      </trkpt>
      <trkpt lat="44.6518" lon="3.8884">
        <ele>1025.68</ele>
        <time>2016-04-24T10:19:39Z</time>
      </trkpt>
      <trkpt lat="44.65174" lon="3.88844">
        <ele>1024.74</ele>
        <time>2016-04-24T10:19:45Z</time>
      </trkpt>
      <trkpt lat="44.65173" lon="3.88847">
        <ele>1024.45</ele>
        <time>2016-04-24T10:19:47Z</time>
      </trkpt>
      <trkpt lat="44.65174" lon="3.88858">
        <ele>1023.46</ele>
        <time>2016-04-24T10:19:54Z</time>
      </trkpt>
      <trkpt lat="44.65175" lon="3.88875">
        <ele>1022.73</ele>
        <time>2016-04-24T10:20:06Z</time>
      </trkpt>
      <trkpt lat="44.65176" lon="3.88895">
        <ele>1021.13</ele>
        <time>2016-04-24T10:20:21Z</time>
      </trkpt>
      <trkpt lat="44.65175" lon="3.88907">
        <ele>1020.83</ele>
        <time>2016-04-24T10:20:31Z</time>
      </trkpt>
      <trkpt lat="44.6517" lon="3.88923">
        <ele>1017.58</ele>
        <time>2016-04-24T10:20:44Z</time>
      </trkpt>
      <trkpt lat="44.65162" lon="3.88936">
        <ele>1015.78</ele>
        <time>2016-04-24T10:20:58Z</time>
      </trkpt>
      <trkpt lat="44.6516" lon="3.88941">
        <ele>1014.63</ele>
        <time>2016-04-24T10:21:02Z</time>
      </trkpt>
      <trkpt lat="44.65161" lon="3.88946">
        <ele>1014.28</ele>
        <time>2016-04-24T10:21:05Z</time>
      </trkpt>
      <trkpt lat="44.65162" lon="3.88953">
        <ele>1013.63</ele>
        <time>2016-04-24T10:21:10Z</time>
      </trkpt>
      <trkpt lat="44.65162" lon="3.88955">
        <ele>1013.34</ele>
        <time>2016-04-24T10:21:12Z</time>
      </trkpt>
      <trkpt lat="44.65163" lon="3.88961">
        <ele>1012.95</ele>
        <time>2016-04-24T10:21:16Z</time>
      </trkpt>
      <trkpt lat="44.65162" lon="3.88966">
        <ele>1012.25</ele>
        <time>2016-04-24T10:21:20Z</time>
      </trkpt>
      <trkpt lat="44.65158" lon="3.8897">
        <ele>1011.77</ele>
        <time>2016-04-24T10:21:25Z</time>
      </trkpt>
      <trkpt lat="44.65146" lon="3.88968">
        <ele>1009.32</ele>
        <time>2016-04-24T10:21:38Z</time>
      </trkpt>
      <trkpt lat="44.65136" lon="3.88972">
        <ele>1007.05</ele>
        <time>2016-04-24T10:21:51Z</time>
      </trkpt>
      <trkpt lat="44.65122" lon="3.88974">
        <ele>1004.53</ele>
        <time>2016-04-24T10:22:06Z</time>
      </trkpt>
      <trkpt lat="44.6511" lon="3.88973">
        <ele>1002.36</ele>
        <time>2016-04-24T10:22:22Z</time>
      </trkpt>
      <trkpt lat="44.65101" lon="3.88974">
        <ele>1000.61</ele>
        <time>2016-04-24T10:22:31Z</time>
      </trkpt>
      <trkpt lat="44.65098" lon="3.88973">
        <ele>1000.15</ele>
        <time>2016-04-24T10:22:34Z</time>
      </trkpt>
      <trkpt lat="44.65083" lon="3.88971">
        <ele>998</ele>
        <time>2016-04-24T10:22:48Z</time>
      </trkpt>
      <trkpt lat="44.65073" lon="3.88969">
        <ele>995.65</ele>
        <time>2016-04-24T10:23:00Z</time>
      </trkpt>
      <trkpt lat="44.65064" lon="3.88966">
        <ele>992.58</ele>
        <time>2016-04-24T10:23:13Z</time>
      </trkpt>
      <trkpt lat="44.6506" lon="3.88969">
        <ele>991.74</ele>
        <time>2016-04-24T10:23:18Z</time>
      </trkpt>
      <trkpt lat="44.65058" lon="3.88969">
        <ele>991.53</ele>
        <time>2016-04-24T10:23:20Z</time>
      </trkpt>
      <trkpt lat="44.65047" lon="3.8898">
        <ele>989.06</ele>
        <time>2016-04-24T10:23:34Z</time>
      </trkpt>
      <trkpt lat="44.65043" lon="3.88982">
        <ele>988.43</ele>
        <time>2016-04-24T10:23:37Z</time>
      </trkpt>
      <trkpt lat="44.65033" lon="3.88995">
        <ele>986.34</ele>
        <time>2016-04-24T10:23:50Z</time>
      </trkpt>
      <trkpt lat="44.6503" lon="3.88996">
        <ele>986.2</ele>
        <time>2016-04-24T10:23:52Z</time>
      </trkpt>
      <trkpt lat="44.65019" lon="3.88999">
        <ele>985.38</ele>
        <time>2016-04-24T10:24:05Z</time>
      </trkpt>
      <trkpt lat="44.65014" lon="3.89005">
        <ele>984.76</ele>
        <time>2016-04-24T10:24:11Z</time>
      </trkpt>
      <trkpt lat="44.65008" lon="3.89005">
        <ele>984.39</ele>
        <time>2016-04-24T10:24:18Z</time>
      </trkpt>
      <trkpt lat="44.64992" lon="3.8901">
        <ele>983.44</ele>
        <time>2016-04-24T10:24:34Z</time>
      </trkpt>
      <trkpt lat="44.64981" lon="3.89008">
        <ele>981.71</ele>
        <time>2016-04-24T10:24:48Z</time>
      </trkpt>
      <trkpt lat="44.64978" lon="3.89014">
        <ele>980.15</ele>
        <time>2016-04-24T10:25:08Z</time>
      </trkpt>
      <trkpt lat="44.64978" lon="3.89016">
        <ele>980</ele>
        <time>2016-04-24T10:25:10Z</time>
      </trkpt>
      <trkpt lat="44.64977" lon="3.8902">
        <ele>979.68</ele>
        <time>2016-04-24T10:25:13Z</time>
      </trkpt>
      <trkpt lat="44.64976" lon="3.89029">
        <ele>979.43</ele>
        <time>2016-04-24T10:25:20Z</time>
      </trkpt>
      <trkpt lat="44.6497" lon="3.89052">
        <ele>976.34</ele>
        <time>2016-04-24T10:25:38Z</time>
      </trkpt>
      <trkpt lat="44.64967" lon="3.89067">
        <ele>974.26</ele>
        <time>2016-04-24T10:25:53Z</time>
      </trkpt>
      <trkpt lat="44.64969" lon="3.89073">
        <ele>972.23</ele>
        <time>2016-04-24T10:26:10Z</time>
      </trkpt>
      <trkpt lat="44.64976" lon="3.89081">
        <ele>972.46</ele>
        <time>2016-04-24T10:26:26Z</time>
      </trkpt>
      <trkpt lat="44.64992" lon="3.89089">
        <ele>973.21</ele>
        <time>2016-04-24T10:26:43Z</time>
      </trkpt>
      <trkpt lat="44.65" lon="3.89087">
        <ele>973.18</ele>
        <time>2016-04-24T10:26:49Z</time>
      </trkpt>
      <trkpt lat="44.65005" lon="3.89087">
        <ele>973.16</ele>
        <time>2016-04-24T10:27:05Z</time>
      </trkpt>
      <trkpt lat="44.65008" lon="3.89092">
        <ele>972.93</ele>
        <time>2016-04-24T10:27:33Z</time>
      </trkpt>
      <trkpt lat="44.65017" lon="3.89093">
        <ele>972.83</ele>
        <time>2016-04-24T10:27:44Z</time>
      </trkpt>
      <trkpt lat="44.65029" lon="3.89095">
        <ele>971.68</ele>
        <time>2016-04-24T10:28:00Z</time>
      </trkpt>
      <trkpt lat="44.65036" lon="3.89091">
        <ele>972.22</ele>
        <time>2016-04-24T10:28:14Z</time>
      </trkpt>
      <trkpt lat="44.65041" lon="3.89089">
        <ele>973.12</ele>
        <time>2016-04-24T10:28:19Z</time>
      </trkpt>
      <trkpt lat="44.65046" lon="3.89088">
        <ele>973.41</ele>
        <time>2016-04-24T10:28:23Z</time>
      </trkpt>
      <trkpt lat="44.65051" lon="3.89084">
        <ele>973.34</ele>
        <time>2016-04-24T10:28:29Z</time>
      </trkpt>
      <trkpt lat="44.65063" lon="3.89077">
        <ele>973.05</ele>
        <time>2016-04-24T10:28:43Z</time>
      </trkpt>
      <trkpt lat="44.65068" lon="3.89073">
        <ele>972.79</ele>
        <time>2016-04-24T10:28:50Z</time>
      </trkpt>
      <trkpt lat="44.65085" lon="3.8907">
        <ele>972.59</ele>
        <time>2016-04-24T10:29:05Z</time>
      </trkpt>
      <trkpt lat="44.65088" lon="3.89067">
        <ele>972.74</ele>
        <time>2016-04-24T10:29:09Z</time>
      </trkpt>
      <trkpt lat="44.6509" lon="3.89067">
        <ele>973.21</ele>
        <time>2016-04-24T10:29:28Z</time>
      </trkpt>
      <trkpt lat="44.65088" lon="3.89071">
        <ele>974.26</ele>
        <time>2016-04-24T10:29:58Z</time>
      </trkpt>
      <trkpt lat="44.6509" lon="3.89072">
        <ele>973.85</ele>
        <time>2016-04-24T10:30:39Z</time>
      </trkpt>
      <trkpt lat="44.6509" lon="3.89074">
        <ele>973.09</ele>
        <time>2016-04-24T10:31:14Z</time>
      </trkpt>
      <trkpt lat="44.6509" lon="3.89072">
        <ele>973.39</ele>
        <time>2016-04-24T10:31:53Z</time>
      </trkpt>
      <trkpt lat="44.6509" lon="3.89071">
        <ele>973.9</ele>
        <time>2016-04-24T10:32:19Z</time>
      </trkpt>
      <trkpt lat="44.65091" lon="3.8907">
        <ele>973.87</ele>
        <time>2016-04-24T10:32:46Z</time>
      </trkpt>
      <trkpt lat="44.65095" lon="3.89071">
        <ele>973.28</ele>
        <time>2016-04-24T10:33:08Z</time>
      </trkpt>
      <trkpt lat="44.65098" lon="3.8907">
        <ele>973.07</ele>
        <time>2016-04-24T10:33:12Z</time>
      </trkpt>
      <trkpt lat="44.65114" lon="3.89072">
        <ele>972.39</ele>
        <time>2016-04-24T10:33:28Z</time>
      </trkpt>
      <trkpt lat="44.65122" lon="3.89071">
        <ele>972.19</ele>
        <time>2016-04-24T10:33:35Z</time>
      </trkpt>
      <trkpt lat="44.65131" lon="3.89073">
        <ele>971.1</ele>
        <time>2016-04-24T10:33:44Z</time>
      </trkpt>
      <trkpt lat="44.65138" lon="3.89073">
        <ele>970.52</ele>
        <time>2016-04-24T10:33:52Z</time>
      </trkpt>
      <trkpt lat="44.65149" lon="3.89068">
        <ele>970.03</ele>
        <time>2016-04-24T10:34:09Z</time>
      </trkpt>
      <trkpt lat="44.65154" lon="3.89067">
        <ele>969.88</ele>
        <time>2016-04-24T10:34:24Z</time>
      </trkpt>
      <trkpt lat="44.65155" lon="3.89068">
        <ele>970.63</ele>
        <time>2016-04-24T10:34:34Z</time>
      </trkpt>
      <trkpt lat="44.65165" lon="3.89067">
        <ele>970.1</ele>
        <time>2016-04-24T10:34:48Z</time>
      </trkpt>
      <trkpt lat="44.65178" lon="3.89065">
        <ele>971.11</ele>
        <time>2016-04-24T10:35:07Z</time>
      </trkpt>
      <trkpt lat="44.65181" lon="3.89067">
        <ele>970.52</ele>
        <time>2016-04-24T10:35:12Z</time>
      </trkpt>
      <trkpt lat="44.65199" lon="3.89068">
        <ele>968.8</ele>
        <time>2016-04-24T10:35:28Z</time>
      </trkpt>
      <trkpt lat="44.65211" lon="3.89068">
        <ele>967.88</ele>
        <time>2016-04-24T10:35:40Z</time>
      </trkpt>
      <trkpt lat="44.65223" lon="3.89073">
        <ele>966.47</ele>
        <time>2016-04-24T10:35:53Z</time>
      </trkpt>
      <trkpt lat="44.65234" lon="3.89073">
        <ele>965.69</ele>
        <time>2016-04-24T10:36:07Z</time>
      </trkpt>
      <trkpt lat="44.65235" lon="3.89077">
        <ele>965.6</ele>
        <time>2016-04-24T10:36:09Z</time>
      </trkpt>
      <trkpt lat="44.65238" lon="3.89082">
        <ele>965.06</ele>
        <time>2016-04-24T10:36:13Z</time>
      </trkpt>
      <trkpt lat="44.65248" lon="3.8909">
        <ele>963.89</ele>
        <time>2016-04-24T10:36:24Z</time>
      </trkpt>
      <trkpt lat="44.65256" lon="3.89094">
        <ele>962.79</ele>
        <time>2016-04-24T10:36:32Z</time>
      </trkpt>
      <trkpt lat="44.65258" lon="3.89096">
        <ele>962.24</ele>
        <time>2016-04-24T10:36:34Z</time>
      </trkpt>
      <trkpt lat="44.65271" lon="3.8911">
        <ele>960.76</ele>
        <time>2016-04-24T10:36:49Z</time>
      </trkpt>
      <trkpt lat="44.65275" lon="3.89113">
        <ele>959.39</ele>
        <time>2016-04-24T10:37:00Z</time>
      </trkpt>
      <trkpt lat="44.6528" lon="3.89119">
        <ele>958.7</ele>
        <time>2016-04-24T10:37:12Z</time>
      </trkpt>
      <trkpt lat="44.65288" lon="3.89121">
        <ele>958.51</ele>
        <time>2016-04-24T10:37:20Z</time>
      </trkpt>
      <trkpt lat="44.65303" lon="3.89122">
        <ele>956.98</ele>
        <time>2016-04-24T10:37:35Z</time>
      </trkpt>
      <trkpt lat="44.65319" lon="3.89116">
        <ele>955.05</ele>
        <time>2016-04-24T10:37:49Z</time>
      </trkpt>
      <trkpt lat="44.65334" lon="3.89113">
        <ele>953.71</ele>
        <time>2016-04-24T10:38:04Z</time>
      </trkpt>
      <trkpt lat="44.65332" lon="3.89118">
        <ele>952.58</ele>
        <time>2016-04-24T10:38:09Z</time>
      </trkpt>
      <trkpt lat="44.65315" lon="3.89129">
        <ele>951.67</ele>
        <time>2016-04-24T10:38:26Z</time>
      </trkpt>
      <trkpt lat="44.65301" lon="3.89139">
        <ele>950.58</ele>
        <time>2016-04-24T10:38:42Z</time>
      </trkpt>
      <trkpt lat="44.65301" lon="3.89141">
        <ele>950.7</ele>
        <time>2016-04-24T10:38:49Z</time>
      </trkpt>
      <trkpt lat="44.65306" lon="3.89148">
        <ele>949.74</ele>
        <time>2016-04-24T10:38:58Z</time>
      </trkpt>
      <trkpt lat="44.65315" lon="3.89146">
        <ele>951.06</ele>
        <time>2016-04-24T10:39:05Z</time>
      </trkpt>
      <trkpt lat="44.65317" lon="3.89137">
        <ele>951.22</ele>
        <time>2016-04-24T10:39:14Z</time>
      </trkpt>
      <trkpt lat="44.65324" lon="3.89123">
        <ele>952.29</ele>
        <time>2016-04-24T10:39:28Z</time>
      </trkpt>
      <trkpt lat="44.65324" lon="3.89117">
        <ele>952.88</ele>
        <time>2016-04-24T10:39:41Z</time>
      </trkpt>
      <trkpt lat="44.65309" lon="3.89118">
        <ele>954.16</ele>
        <time>2016-04-24T10:39:57Z</time>
      </trkpt>
      <trkpt lat="44.653" lon="3.89123">
        <ele>954.51</ele>
        <time>2016-04-24T10:40:12Z</time>
      </trkpt>
      <trkpt lat="44.65302" lon="3.89125">
        <ele>955.68</ele>
        <time>2016-04-24T10:40:30Z</time>
      </trkpt>
      <trkpt lat="44.65298" lon="3.8912">
        <ele>955.25</ele>
        <time>2016-04-24T10:40:50Z</time>
      </trkpt>
      <trkpt lat="44.65294" lon="3.89118">
        <ele>956.17</ele>
        <time>2016-04-24T10:40:55Z</time>
      </trkpt>
      <trkpt lat="44.65286" lon="3.89115">
        <ele>957.6</ele>
        <time>2016-04-24T10:41:02Z</time>
      </trkpt>
      <trkpt lat="44.65279" lon="3.89113">
        <ele>957.49</ele>
        <time>2016-04-24T10:41:09Z</time>
      </trkpt>
      <trkpt lat="44.65275" lon="3.8911">
        <ele>958.18</ele>
        <time>2016-04-24T10:41:14Z</time>
      </trkpt>
      <trkpt lat="44.65272" lon="3.89108">
        <ele>958.84</ele>
        <time>2016-04-24T10:41:17Z</time>
      </trkpt>
      <trkpt lat="44.65259" lon="3.89096">
        <ele>960.78</ele>
        <time>2016-04-24T10:41:33Z</time>
      </trkpt>
      <trkpt lat="44.65256" lon="3.89093">
        <ele>961.86</ele>
        <time>2016-04-24T10:41:37Z</time>
      </trkpt>
      <trkpt lat="44.65244" lon="3.89086">
        <ele>964.28</ele>
        <time>2016-04-24T10:41:51Z</time>
      </trkpt>
      <trkpt lat="44.65243" lon="3.89086">
        <ele>964.28</ele>
        <time>2016-04-24T10:41:52Z</time>
      </trkpt>
      <trkpt lat="44.65235" lon="3.89078">
        <ele>964.94</ele>
        <time>2016-04-24T10:42:05Z</time>
      </trkpt>
      <trkpt lat="44.65234" lon="3.89072">
        <ele>966.24</ele>
        <time>2016-04-24T10:42:26Z</time>
      </trkpt>
      <trkpt lat="44.65233" lon="3.89082">
        <ele>965.79</ele>
        <time>2016-04-24T10:43:01Z</time>
      </trkpt>
      <trkpt lat="44.65234" lon="3.89088">
        <ele>966.39</ele>
        <time>2016-04-24T10:43:36Z</time>
      </trkpt>
      <trkpt lat="44.65236" lon="3.8909">
        <ele>966.27</ele>
        <time>2016-04-24T10:44:10Z</time>
      </trkpt>
      <trkpt lat="44.65236" lon="3.89095">
        <ele>966.67</ele>
        <time>2016-04-24T10:44:37Z</time>
      </trkpt>
      <trkpt lat="44.6524" lon="3.89095">
        <ele>966.28</ele>
        <time>2016-04-24T10:44:44Z</time>
      </trkpt>
      <trkpt lat="44.6525" lon="3.89096">
        <ele>964.65</ele>
        <time>2016-04-24T10:44:57Z</time>
      </trkpt>
      <trkpt lat="44.65256" lon="3.891">
        <ele>964.14</ele>
        <time>2016-04-24T10:45:04Z</time>
      </trkpt>
      <trkpt lat="44.65271" lon="3.89111">
        <ele>961.43</ele>
        <time>2016-04-24T10:45:19Z</time>
      </trkpt>
      <trkpt lat="44.65282" lon="3.8912">
        <ele>959.92</ele>
        <time>2016-04-24T10:45:32Z</time>
      </trkpt>
      <trkpt lat="44.65295" lon="3.89125">
        <ele>957.84</ele>
        <time>2016-04-24T10:45:48Z</time>
      </trkpt>
      <trkpt lat="44.65297" lon="3.89131">
        <ele>954.63</ele>
        <time>2016-04-24T10:45:58Z</time>
      </trkpt>
      <trkpt lat="44.65302" lon="3.89135">
        <ele>951.54</ele>
        <time>2016-04-24T10:46:06Z</time>
      </trkpt>
      <trkpt lat="44.65305" lon="3.8914">
        <ele>951.01</ele>
        <time>2016-04-24T10:46:10Z</time>
      </trkpt>
      <trkpt lat="44.65304" lon="3.8915">
        <ele>950.84</ele>
        <time>2016-04-24T10:46:16Z</time>
      </trkpt>
      <trkpt lat="44.65295" lon="3.89151">
        <ele>950.87</ele>
        <time>2016-04-24T10:46:30Z</time>
      </trkpt>
      <trkpt lat="44.65294" lon="3.89143">
        <ele>950.98</ele>
        <time>2016-04-24T10:46:46Z</time>
      </trkpt>
      <trkpt lat="44.65297" lon="3.89135">
        <ele>950.56</ele>
        <time>2016-04-24T10:47:05Z</time>
      </trkpt>
      <trkpt lat="44.65298" lon="3.89131">
        <ele>950.72</ele>
        <time>2016-04-24T10:47:23Z</time>
      </trkpt>
      <trkpt lat="44.65296" lon="3.89128">
        <ele>951.45</ele>
        <time>2016-04-24T10:47:46Z</time>
      </trkpt>
      <trkpt lat="44.65294" lon="3.89123">
        <ele>952.05</ele>
        <time>2016-04-24T10:48:12Z</time>
      </trkpt>
      <trkpt lat="44.65296" lon="3.89129">
        <ele>951.38</ele>
        <time>2016-04-24T10:48:49Z</time>
      </trkpt>
      <trkpt lat="44.65298" lon="3.89136">
        <ele>951.73</ele>
        <time>2016-04-24T10:49:27Z</time>
      </trkpt>
      <trkpt lat="44.65298" lon="3.89133">
        <ele>951.62</ele>
        <time>2016-04-24T10:49:33Z</time>
      </trkpt>
      <trkpt lat="44.653" lon="3.89138">
        <ele>952.22</ele>
        <time>2016-04-24T10:49:58Z</time>
      </trkpt>
      <trkpt lat="44.65298" lon="3.89151">
        <ele>952.19</ele>
        <time>2016-04-24T10:50:23Z</time>
      </trkpt>
      <trkpt lat="44.65297" lon="3.89144">
        <ele>951.72</ele>
        <time>2016-04-24T10:50:36Z</time>
      </trkpt>
      <trkpt lat="44.65299" lon="3.8914">
        <ele>952.46</ele>
        <time>2016-04-24T10:50:43Z</time>
      </trkpt>
      <trkpt lat="44.65295" lon="3.8912">
        <ele>952.29</ele>
        <time>2016-04-24T10:51:01Z</time>
      </trkpt>
      <trkpt lat="44.6529" lon="3.89109">
        <ele>952.21</ele>
        <time>2016-04-24T10:51:39Z</time>
      </trkpt>
      <trkpt lat="44.653" lon="3.8915">
        <ele>951.81</ele>
        <time>2016-04-24T10:51:54Z</time>
      </trkpt>
      <trkpt lat="44.65302" lon="3.89153">
        <ele>951.79</ele>
        <time>2016-04-24T10:52:12Z</time>
      </trkpt>
      <trkpt lat="44.65301" lon="3.89149">
        <ele>951.71</ele>
        <time>2016-04-24T10:52:29Z</time>
      </trkpt>
      <trkpt lat="44.65302" lon="3.89149">
        <ele>952.22</ele>
        <time>2016-04-24T10:52:59Z</time>
      </trkpt>
      <trkpt lat="44.65301" lon="3.8914">
        <ele>951.08</ele>
        <time>2016-04-24T10:53:17Z</time>
      </trkpt>
      <trkpt lat="44.65296" lon="3.89133">
        <ele>951.39</ele>
        <time>2016-04-24T10:53:53Z</time>
      </trkpt>
      <trkpt lat="44.65296" lon="3.8913">
        <ele>951.48</ele>
        <time>2016-04-24T10:54:21Z</time>
      </trkpt>
      <trkpt lat="44.65295" lon="3.89116">
        <ele>951.28</ele>
        <time>2016-04-24T10:54:35Z</time>
      </trkpt>
      <trkpt lat="44.653" lon="3.89109">
        <ele>951.6</ele>
        <time>2016-04-24T10:54:56Z</time>
      </trkpt>
      <trkpt lat="44.65295" lon="3.89107">
        <ele>952.35</ele>
        <time>2016-04-24T10:56:07Z</time>
      </trkpt>
      <trkpt lat="44.65295" lon="3.89109">
        <ele>952.33</ele>
        <time>2016-04-24T10:56:47Z</time>
      </trkpt>
      <trkpt lat="44.653" lon="3.89114">
        <ele>952.39</ele>
        <time>2016-04-24T10:57:21Z</time>
      </trkpt>
      <trkpt lat="44.65297" lon="3.8912">
        <ele>952.11</ele>
        <time>2016-04-24T10:57:49Z</time>
      </trkpt>
      <trkpt lat="44.65298" lon="3.89121">
        <ele>952.28</ele>
        <time>2016-04-24T10:58:13Z</time>
      </trkpt>
      <trkpt lat="44.65297" lon="3.89123">
        <ele>951.75</ele>
        <time>2016-04-24T10:58:25Z</time>
      </trkpt>
      <trkpt lat="44.65295" lon="3.89117">
        <ele>951.73</ele>
        <time>2016-04-24T10:58:40Z</time>
      </trkpt>
      <trkpt lat="44.65295" lon="3.89114">
        <ele>951.71</ele>
        <time>2016-04-24T10:58:57Z</time>
      </trkpt>
      <trkpt lat="44.65294" lon="3.89106">
        <ele>951.47</ele>
        <time>2016-04-24T10:59:12Z</time>
      </trkpt>
      <trkpt lat="44.65298" lon="3.89113">
        <ele>951.7</ele>
        <time>2016-04-24T10:59:29Z</time>
      </trkpt>
      <trkpt lat="44.65298" lon="3.8912">
        <ele>952.15</ele>
        <time>2016-04-24T10:59:55Z</time>
      </trkpt>
      <trkpt lat="44.65293" lon="3.89116">
        <ele>951.38</ele>
        <time>2016-04-24T11:03:21Z</time>
      </trkpt>
      <trkpt lat="44.65293" lon="3.89121">
        <ele>950.98</ele>
        <time>2016-04-24T11:03:34Z</time>
      </trkpt>
      <trkpt lat="44.65293" lon="3.89125">
        <ele>951.08</ele>
        <time>2016-04-24T11:03:48Z</time>
      </trkpt>
      <trkpt lat="44.65295" lon="3.89123">
        <ele>951.38</ele>
        <time>2016-04-24T11:04:02Z</time>
      </trkpt>
      <trkpt lat="44.65294" lon="3.89118">
        <ele>951.37</ele>
        <time>2016-04-24T11:04:15Z</time>
      </trkpt>
      <trkpt lat="44.65293" lon="3.89122">
        <ele>950.61</ele>
        <time>2016-04-24T11:04:30Z</time>
      </trkpt>
      <trkpt lat="44.65292" lon="3.8912">
        <ele>950.79</ele>
        <time>2016-04-24T11:04:48Z</time>
      </trkpt>
      <trkpt lat="44.65293" lon="3.8912">
        <ele>951.14</ele>
        <time>2016-04-24T11:05:06Z</time>
      </trkpt>
      <trkpt lat="44.65292" lon="3.89117">
        <ele>951.65</ele>
        <time>2016-04-24T11:05:21Z</time>
      </trkpt>
      <trkpt lat="44.65293" lon="3.89118">
        <ele>951.72</ele>
        <time>2016-04-24T11:05:23Z</time>
      </trkpt>
      <trkpt lat="44.65297" lon="3.89121">
        <ele>951.28</ele>
        <time>2016-04-24T11:05:53Z</time>
      </trkpt>
      <trkpt lat="44.653" lon="3.89102">
        <ele>951.06</ele>
        <time>2016-04-24T11:06:32Z</time>
      </trkpt>
      <trkpt lat="44.65302" lon="3.89088">
        <ele>950.7</ele>
        <time>2016-04-24T11:06:48Z</time>
      </trkpt>
      <trkpt lat="44.65302" lon="3.89081">
        <ele>950.84</ele>
        <time>2016-04-24T11:07:18Z</time>
      </trkpt>
      <trkpt lat="44.65301" lon="3.89084">
        <ele>950.76</ele>
        <time>2016-04-24T11:07:29Z</time>
      </trkpt>
      <trkpt lat="44.65295" lon="3.89123">
        <ele>949.99</ele>
        <time>2016-04-24T11:09:22Z</time>
      </trkpt>
      <trkpt lat="44.65296" lon="3.89117">
        <ele>949.47</ele>
        <time>2016-04-24T11:09:44Z</time>
      </trkpt>
      <trkpt lat="44.65298" lon="3.89109">
        <ele>949.11</ele>
        <time>2016-04-24T11:10:00Z</time>
      </trkpt>
      <trkpt lat="44.65298" lon="3.89115">
        <ele>949.78</ele>
        <time>2016-04-24T11:10:16Z</time>
      </trkpt>
      <trkpt lat="44.65297" lon="3.89127">
        <ele>950.57</ele>
        <time>2016-04-24T11:10:33Z</time>
      </trkpt>
      <trkpt lat="44.65297" lon="3.89123">
        <ele>950.05</ele>
        <time>2016-04-24T11:10:47Z</time>
      </trkpt>
      <trkpt lat="44.65297" lon="3.89117">
        <ele>949.75</ele>
        <time>2016-04-24T11:11:02Z</time>
      </trkpt>
      <trkpt lat="44.65296" lon="3.89113">
        <ele>949.71</ele>
        <time>2016-04-24T11:11:17Z</time>
      </trkpt>
      <trkpt lat="44.65298" lon="3.89108">
        <ele>950.16</ele>
        <time>2016-04-24T11:11:37Z</time>
      </trkpt>
      <trkpt lat="44.65297" lon="3.89109">
        <ele>949.49</ele>
        <time>2016-04-24T11:11:53Z</time>
      </trkpt>
      <trkpt lat="44.65296" lon="3.89109">
        <ele>950.45</ele>
        <time>2016-04-24T11:12:07Z</time>
      </trkpt>
      <trkpt lat="44.65296" lon="3.89111">
        <ele>949.36</ele>
        <time>2016-04-24T11:12:21Z</time>
      </trkpt>
      <trkpt lat="44.65295" lon="3.89113">
        <ele>950.19</ele>
        <time>2016-04-24T11:12:45Z</time>
      </trkpt>
      <trkpt lat="44.65294" lon="3.8912">
        <ele>950.89</ele>
        <time>2016-04-24T11:13:03Z</time>
      </trkpt>
      <trkpt lat="44.65296" lon="3.89113">
        <ele>949.43</ele>
        <time>2016-04-24T11:13:20Z</time>
      </trkpt>
      <trkpt lat="44.65297" lon="3.89118">
        <ele>950.24</ele>
        <time>2016-04-24T11:13:37Z</time>
      </trkpt>
      <trkpt lat="44.65298" lon="3.89114">
        <ele>950.18</ele>
        <time>2016-04-24T11:13:52Z</time>
      </trkpt>
      <trkpt lat="44.653" lon="3.8911">
        <ele>949.58</ele>
        <time>2016-04-24T11:14:05Z</time>
      </trkpt>
      <trkpt lat="44.65298" lon="3.89106">
        <ele>949.81</ele>
        <time>2016-04-24T11:14:20Z</time>
      </trkpt>
      <trkpt lat="44.65289" lon="3.89102">
        <ele>950.35</ele>
        <time>2016-04-24T11:15:52Z</time>
      </trkpt>
      <trkpt lat="44.65296" lon="3.89119">
        <ele>951.03</ele>
        <time>2016-04-24T11:20:38Z</time>
      </trkpt>
      <trkpt lat="44.65297" lon="3.89106">
        <ele>951.49</ele>
        <time>2016-04-24T11:20:58Z</time>
      </trkpt>
      <trkpt lat="44.65296" lon="3.89098">
        <ele>952.06</ele>
        <time>2016-04-24T11:21:16Z</time>
      </trkpt>
      <trkpt lat="44.65296" lon="3.89103">
        <ele>951.87</ele>
        <time>2016-04-24T11:21:20Z</time>
      </trkpt>
      <trkpt lat="44.65296" lon="3.89114">
        <ele>951.17</ele>
        <time>2016-04-24T11:21:45Z</time>
      </trkpt>
      <trkpt lat="44.65295" lon="3.89129">
        <ele>951.18</ele>
        <time>2016-04-24T11:22:16Z</time>
      </trkpt>
      <trkpt lat="44.65294" lon="3.89114">
        <ele>951.96</ele>
        <time>2016-04-24T11:23:32Z</time>
      </trkpt>
      <trkpt lat="44.65295" lon="3.89119">
        <ele>951.99</ele>
        <time>2016-04-24T11:23:37Z</time>
      </trkpt>
      <trkpt lat="44.65296" lon="3.89117">
        <ele>951.49</ele>
        <time>2016-04-24T11:24:03Z</time>
      </trkpt>
      <trkpt lat="44.65296" lon="3.8912">
        <ele>951.38</ele>
        <time>2016-04-24T11:24:07Z</time>
      </trkpt>
      <trkpt lat="44.65293" lon="3.89119">
        <ele>951.35</ele>
        <time>2016-04-24T11:24:18Z</time>
      </trkpt>
      <trkpt lat="44.65295" lon="3.89124">
        <ele>950.84</ele>
        <time>2016-04-24T11:24:23Z</time>
      </trkpt>
      <trkpt lat="44.65297" lon="3.89126">
        <ele>951.6</ele>
        <time>2016-04-24T11:24:44Z</time>
      </trkpt>
      <trkpt lat="44.65296" lon="3.89119">
        <ele>951.52</ele>
        <time>2016-04-24T11:24:54Z</time>
      </trkpt>
      <trkpt lat="44.65293" lon="3.89105">
        <ele>951.33</ele>
        <time>2016-04-24T11:25:14Z</time>
      </trkpt>
      <trkpt lat="44.65291" lon="3.8912">
        <ele>950.73</ele>
        <time>2016-04-24T11:25:29Z</time>
      </trkpt>
      <trkpt lat="44.65293" lon="3.89123">
        <ele>951.34</ele>
        <time>2016-04-24T11:25:44Z</time>
      </trkpt>
      <trkpt lat="44.65294" lon="3.89117">
        <ele>951.8</ele>
        <time>2016-04-24T11:25:57Z</time>
      </trkpt>
      <trkpt lat="44.65293" lon="3.89109">
        <ele>951.64</ele>
        <time>2016-04-24T11:26:11Z</time>
      </trkpt>
      <trkpt lat="44.65294" lon="3.89102">
        <ele>951.78</ele>
        <time>2016-04-24T11:26:23Z</time>
      </trkpt>
      <trkpt lat="44.65292" lon="3.89108">
        <ele>952.36</ele>
        <time>2016-04-24T11:26:52Z</time>
      </trkpt>
      <trkpt lat="44.65295" lon="3.89112">
        <ele>950.68</ele>
        <time>2016-04-24T11:27:26Z</time>
      </trkpt>
      <trkpt lat="44.65296" lon="3.8912">
        <ele>952.19</ele>
        <time>2016-04-24T11:28:27Z</time>
      </trkpt>
      <trkpt lat="44.65298" lon="3.89122">
        <ele>952.13</ele>
        <time>2016-04-24T11:28:40Z</time>
      </trkpt>
      <trkpt lat="44.65297" lon="3.89118">
        <ele>951.86</ele>
        <time>2016-04-24T11:29:01Z</time>
      </trkpt>
      <trkpt lat="44.65299" lon="3.89109">
        <ele>952.49</ele>
        <time>2016-04-24T11:29:16Z</time>
      </trkpt>
      <trkpt lat="44.65299" lon="3.89105">
        <ele>952.29</ele>
        <time>2016-04-24T11:29:34Z</time>
      </trkpt>
      <trkpt lat="44.65297" lon="3.89104">
        <ele>952.1</ele>
        <time>2016-04-24T11:29:49Z</time>
      </trkpt>
      <trkpt lat="44.65296" lon="3.89096">
        <ele>951.87</ele>
        <time>2016-04-24T11:29:58Z</time>
      </trkpt>
      <trkpt lat="44.65298" lon="3.89094">
        <ele>951.79</ele>
        <time>2016-04-24T11:30:00Z</time>
      </trkpt>
      <trkpt lat="44.65297" lon="3.89114">
        <ele>952.11</ele>
        <time>2016-04-24T11:30:15Z</time>
      </trkpt>
      <trkpt lat="44.65294" lon="3.89125">
        <ele>952.41</ele>
        <time>2016-04-24T11:30:34Z</time>
      </trkpt>
      <trkpt lat="44.65297" lon="3.89137">
        <ele>952.21</ele>
        <time>2016-04-24T11:30:49Z</time>
      </trkpt>
      <trkpt lat="44.65298" lon="3.89137">
        <ele>952.27</ele>
        <time>2016-04-24T11:31:06Z</time>
      </trkpt>
      <trkpt lat="44.65295" lon="3.89128">
        <ele>952.09</ele>
        <time>2016-04-24T11:31:20Z</time>
      </trkpt>
      <trkpt lat="44.65293" lon="3.89116">
        <ele>951.86</ele>
        <time>2016-04-24T11:31:33Z</time>
      </trkpt>
      <trkpt lat="44.65293" lon="3.89117">
        <ele>951.88</ele>
        <time>2016-04-24T11:31:48Z</time>
      </trkpt>
      <trkpt lat="44.65292" lon="3.89132">
        <ele>951.66</ele>
        <time>2016-04-24T11:32:01Z</time>
      </trkpt>
      <trkpt lat="44.65288" lon="3.89125">
        <ele>951.37</ele>
        <time>2016-04-24T11:32:12Z</time>
      </trkpt>
      <trkpt lat="44.65286" lon="3.89112">
        <ele>951.23</ele>
        <time>2016-04-24T11:32:17Z</time>
      </trkpt>
      <trkpt lat="44.6528" lon="3.891">
        <ele>951.78</ele>
        <time>2016-04-24T11:32:35Z</time>
      </trkpt>
      <trkpt lat="44.65293" lon="3.89122">
        <ele>951.79</ele>
        <time>2016-04-24T11:33:04Z</time>
      </trkpt>
      <trkpt lat="44.65292" lon="3.89117">
        <ele>952.44</ele>
        <time>2016-04-24T11:33:33Z</time>
      </trkpt>
      <trkpt lat="44.65293" lon="3.89088">
        <ele>951.06</ele>
        <time>2016-04-24T11:38:06Z</time>
      </trkpt>
      <trkpt lat="44.65294" lon="3.8909">
        <ele>950.74</ele>
        <time>2016-04-24T11:38:19Z</time>
      </trkpt>
      <trkpt lat="44.65294" lon="3.89092">
        <ele>951.18</ele>
        <time>2016-04-24T11:38:21Z</time>
      </trkpt>
      <trkpt lat="44.65292" lon="3.89096">
        <ele>950.97</ele>
        <time>2016-04-24T11:38:34Z</time>
      </trkpt>
      <trkpt lat="44.6529" lon="3.89097">
        <ele>950.51</ele>
        <time>2016-04-24T11:38:51Z</time>
      </trkpt>
      <trkpt lat="44.65289" lon="3.89094">
        <ele>950.76</ele>
        <time>2016-04-24T11:39:08Z</time>
      </trkpt>
      <trkpt lat="44.65289" lon="3.89094">
        <ele>950.72</ele>
        <time>2016-04-24T11:39:11Z</time>
      </trkpt>
      <trkpt lat="44.65287" lon="3.89107">
        <ele>950.69</ele>
        <time>2016-04-24T11:39:33Z</time>
      </trkpt>
      <trkpt lat="44.6529" lon="3.89139">
        <ele>951.2</ele>
        <time>2016-04-24T11:40:06Z</time>
      </trkpt>
      <trkpt lat="44.65294" lon="3.89143">
        <ele>950.92</ele>
        <time>2016-04-24T11:40:34Z</time>
      </trkpt>
      <trkpt lat="44.65293" lon="3.89129">
        <ele>950.92</ele>
        <time>2016-04-24T11:40:42Z</time>
      </trkpt>
      <trkpt lat="44.65293" lon="3.89112">
        <ele>950.95</ele>
        <time>2016-04-24T11:40:48Z</time>
      </trkpt>
      <trkpt lat="44.65295" lon="3.89102">
        <ele>950.72</ele>
        <time>2016-04-24T11:40:51Z</time>
      </trkpt>
      <trkpt lat="44.65294" lon="3.89109">
        <ele>950.7</ele>
        <time>2016-04-24T11:41:04Z</time>
      </trkpt>
      <trkpt lat="44.65296" lon="3.89113">
        <ele>950.89</ele>
        <time>2016-04-24T11:41:32Z</time>
      </trkpt>
      <trkpt lat="44.65296" lon="3.89118">
        <ele>951.44</ele>
        <time>2016-04-24T11:41:40Z</time>
      </trkpt>
      <trkpt lat="44.65295" lon="3.89114">
        <ele>951.23</ele>
        <time>2016-04-24T11:41:52Z</time>
      </trkpt>
      <trkpt lat="44.65293" lon="3.89103">
        <ele>951.19</ele>
        <time>2016-04-24T11:41:58Z</time>
      </trkpt>
      <trkpt lat="44.65293" lon="3.89099">
        <ele>951.15</ele>
        <time>2016-04-24T11:42:16Z</time>
      </trkpt>
      <trkpt lat="44.65295" lon="3.89097">
        <ele>950.87</ele>
        <time>2016-04-24T11:42:31Z</time>
      </trkpt>
      <trkpt lat="44.65294" lon="3.89094">
        <ele>950.86</ele>
        <time>2016-04-24T11:42:47Z</time>
      </trkpt>
      <trkpt lat="44.65293" lon="3.89095">
        <ele>950.77</ele>
        <time>2016-04-24T11:42:53Z</time>
      </trkpt>
      <trkpt lat="44.65296" lon="3.89126">
        <ele>950.76</ele>
        <time>2016-04-24T11:44:01Z</time>
      </trkpt>
      <trkpt lat="44.65298" lon="3.89111">
        <ele>951.38</ele>
        <time>2016-04-24T11:44:19Z</time>
      </trkpt>
      <trkpt lat="44.65295" lon="3.89095">
        <ele>951.16</ele>
        <time>2016-04-24T11:44:35Z</time>
      </trkpt>
      <trkpt lat="44.65294" lon="3.89088">
        <ele>951.59</ele>
        <time>2016-04-24T11:45:00Z</time>
      </trkpt>
      <trkpt lat="44.65294" lon="3.89086">
        <ele>951.65</ele>
        <time>2016-04-24T11:45:01Z</time>
      </trkpt>
      <trkpt lat="44.65293" lon="3.89085">
        <ele>951.61</ele>
        <time>2016-04-24T11:45:13Z</time>
      </trkpt>
      <trkpt lat="44.65292" lon="3.89095">
        <ele>951.3</ele>
        <time>2016-04-24T11:45:18Z</time>
      </trkpt>
      <trkpt lat="44.65291" lon="3.89121">
        <ele>952.87</ele>
        <time>2016-04-24T11:45:34Z</time>
      </trkpt>
      <trkpt lat="44.65291" lon="3.89126">
        <ele>952.98</ele>
        <time>2016-04-24T11:45:37Z</time>
      </trkpt>
      <trkpt lat="44.65291" lon="3.89132">
        <ele>952.68</ele>
        <time>2016-04-24T11:45:41Z</time>
      </trkpt>
      <trkpt lat="44.65293" lon="3.89134">
        <ele>952.08</ele>
        <time>2016-04-24T11:45:49Z</time>
      </trkpt>
      <trkpt lat="44.65292" lon="3.89125">
        <ele>951.88</ele>
        <time>2016-04-24T11:46:13Z</time>
      </trkpt>
      <trkpt lat="44.6529" lon="3.89108">
        <ele>951.82</ele>
        <time>2016-04-24T11:46:22Z</time>
      </trkpt>
      <trkpt lat="44.65289" lon="3.89108">
        <ele>951.73</ele>
        <time>2016-04-24T11:46:31Z</time>
      </trkpt>
      <trkpt lat="44.65296" lon="3.89142">
        <ele>951.46</ele>
        <time>2016-04-24T11:46:43Z</time>
      </trkpt>
      <trkpt lat="44.65295" lon="3.89133">
        <ele>952.28</ele>
        <time>2016-04-24T11:47:19Z</time>
      </trkpt>
      <trkpt lat="44.65296" lon="3.8913">
        <ele>951.1</ele>
        <time>2016-04-24T11:47:24Z</time>
      </trkpt>
      <trkpt lat="44.65288" lon="3.89122">
        <ele>954.28</ele>
        <time>2016-04-24T11:47:41Z</time>
      </trkpt>
      <trkpt lat="44.65283" lon="3.89118">
        <ele>957.45</ele>
        <time>2016-04-24T11:47:51Z</time>
      </trkpt>
      <trkpt lat="44.6528" lon="3.89113">
        <ele>957.87</ele>
        <time>2016-04-24T11:47:57Z</time>
      </trkpt>
      <trkpt lat="44.6527" lon="3.89106">
        <ele>958.46</ele>
        <time>2016-04-24T11:48:08Z</time>
      </trkpt>
      <trkpt lat="44.65262" lon="3.89098">
        <ele>960.83</ele>
        <time>2016-04-24T11:48:22Z</time>
      </trkpt>
      <trkpt lat="44.65256" lon="3.89094">
        <ele>961.62</ele>
        <time>2016-04-24T11:48:30Z</time>
      </trkpt>
      <trkpt lat="44.65243" lon="3.89085">
        <ele>963.68</ele>
        <time>2016-04-24T11:48:47Z</time>
      </trkpt>
      <trkpt lat="44.65231" lon="3.8908">
        <ele>965.69</ele>
        <time>2016-04-24T11:49:05Z</time>
      </trkpt>
      <trkpt lat="44.65221" lon="3.89076">
        <ele>966.68</ele>
        <time>2016-04-24T11:49:18Z</time>
      </trkpt>
      <trkpt lat="44.6521" lon="3.89073">
        <ele>967.88</ele>
        <time>2016-04-24T11:49:31Z</time>
      </trkpt>
      <trkpt lat="44.65196" lon="3.89071">
        <ele>968.46</ele>
        <time>2016-04-24T11:49:48Z</time>
      </trkpt>
      <trkpt lat="44.65183" lon="3.89065">
        <ele>970.36</ele>
        <time>2016-04-24T11:50:05Z</time>
      </trkpt>
      <trkpt lat="44.65167" lon="3.89066">
        <ele>970.66</ele>
        <time>2016-04-24T11:50:23Z</time>
      </trkpt>
      <trkpt lat="44.65159" lon="3.89066">
        <ele>971.21</ele>
        <time>2016-04-24T11:50:30Z</time>
      </trkpt>
      <trkpt lat="44.65145" lon="3.89071">
        <ele>971.78</ele>
        <time>2016-04-24T11:50:42Z</time>
      </trkpt>
      <trkpt lat="44.65138" lon="3.89074">
        <ele>971.43</ele>
        <time>2016-04-24T11:50:48Z</time>
      </trkpt>
      <trkpt lat="44.65122" lon="3.89075">
        <ele>971.38</ele>
        <time>2016-04-24T11:51:03Z</time>
      </trkpt>
      <trkpt lat="44.65108" lon="3.89071">
        <ele>971.62</ele>
        <time>2016-04-24T11:51:18Z</time>
      </trkpt>
      <trkpt lat="44.65089" lon="3.89067">
        <ele>973.31</ele>
        <time>2016-04-24T11:51:42Z</time>
      </trkpt>
      <trkpt lat="44.65077" lon="3.89069">
        <ele>974.87</ele>
        <time>2016-04-24T11:51:58Z</time>
      </trkpt>
      <trkpt lat="44.65069" lon="3.89072">
        <ele>974.18</ele>
        <time>2016-04-24T11:52:07Z</time>
      </trkpt>
      <trkpt lat="44.65056" lon="3.89079">
        <ele>972.93</ele>
        <time>2016-04-24T11:52:21Z</time>
      </trkpt>
      <trkpt lat="44.6504" lon="3.89089">
        <ele>970.79</ele>
        <time>2016-04-24T11:52:41Z</time>
      </trkpt>
      <trkpt lat="44.65031" lon="3.8909">
        <ele>971.35</ele>
        <time>2016-04-24T11:52:49Z</time>
      </trkpt>
      <trkpt lat="44.65026" lon="3.89096">
        <ele>971.16</ele>
        <time>2016-04-24T11:53:09Z</time>
      </trkpt>
      <trkpt lat="44.65027" lon="3.891">
        <ele>971.05</ele>
        <time>2016-04-24T11:53:41Z</time>
      </trkpt>
      <trkpt lat="44.65027" lon="3.89099">
        <ele>971.77</ele>
        <time>2016-04-24T11:54:13Z</time>
      </trkpt>
      <trkpt lat="44.65027" lon="3.89098">
        <ele>972.08</ele>
        <time>2016-04-24T11:54:49Z</time>
      </trkpt>
      <trkpt lat="44.65026" lon="3.89096">
        <ele>971.93</ele>
        <time>2016-04-24T11:55:26Z</time>
      </trkpt>
      <trkpt lat="44.65011" lon="3.89095">
        <ele>971.54</ele>
        <time>2016-04-24T11:55:49Z</time>
      </trkpt>
      <trkpt lat="44.64998" lon="3.89094">
        <ele>972.08</ele>
        <time>2016-04-24T11:56:06Z</time>
      </trkpt>
      <trkpt lat="44.64983" lon="3.89093">
        <ele>971.69</ele>
        <time>2016-04-24T11:56:26Z</time>
      </trkpt>
      <trkpt lat="44.64973" lon="3.89082">
        <ele>970.86</ele>
        <time>2016-04-24T11:56:38Z</time>
      </trkpt>
      <trkpt lat="44.64957" lon="3.89068">
        <ele>970.96</ele>
        <time>2016-04-24T11:56:56Z</time>
      </trkpt>
      <trkpt lat="44.64952" lon="3.89061">
        <ele>970.46</ele>
        <time>2016-04-24T11:57:01Z</time>
      </trkpt>
      <trkpt lat="44.64938" lon="3.89044">
        <ele>970.01</ele>
        <time>2016-04-24T11:57:15Z</time>
      </trkpt>
      <trkpt lat="44.64937" lon="3.89043">
        <ele>970.05</ele>
        <time>2016-04-24T11:57:16Z</time>
      </trkpt>
      <trkpt lat="44.64927" lon="3.89032">
        <ele>971.34</ele>
        <time>2016-04-24T11:57:30Z</time>
      </trkpt>
      <trkpt lat="44.64931" lon="3.89029">
        <ele>972.27</ele>
        <time>2016-04-24T11:57:38Z</time>
      </trkpt>
      <trkpt lat="44.64941" lon="3.89027">
        <ele>973.42</ele>
        <time>2016-04-24T11:57:50Z</time>
      </trkpt>
      <trkpt lat="44.64951" lon="3.89021">
        <ele>974.89</ele>
        <time>2016-04-24T11:58:02Z</time>
      </trkpt>
      <trkpt lat="44.64962" lon="3.89015">
        <ele>976.63</ele>
        <time>2016-04-24T11:58:15Z</time>
      </trkpt>
      <trkpt lat="44.6497" lon="3.89012">
        <ele>977.77</ele>
        <time>2016-04-24T11:58:23Z</time>
      </trkpt>
      <trkpt lat="44.64973" lon="3.89011">
        <ele>978.52</ele>
        <time>2016-04-24T11:58:27Z</time>
      </trkpt>
      <trkpt lat="44.64982" lon="3.89012">
        <ele>979.96</ele>
        <time>2016-04-24T11:58:40Z</time>
      </trkpt>
      <trkpt lat="44.64994" lon="3.8901">
        <ele>981.16</ele>
        <time>2016-04-24T11:58:56Z</time>
      </trkpt>
      <trkpt lat="44.65006" lon="3.89009">
        <ele>982.88</ele>
        <time>2016-04-24T11:59:12Z</time>
      </trkpt>
      <trkpt lat="44.65013" lon="3.89009">
        <ele>983.18</ele>
        <time>2016-04-24T11:59:26Z</time>
      </trkpt>
      <trkpt lat="44.65017" lon="3.89005">
        <ele>984.41</ele>
        <time>2016-04-24T11:59:48Z</time>
      </trkpt>
      <trkpt lat="44.65025" lon="3.89002">
        <ele>984.85</ele>
        <time>2016-04-24T12:00:12Z</time>
      </trkpt>
      <trkpt lat="44.65037" lon="3.89001">
        <ele>986.24</ele>
        <time>2016-04-24T12:00:31Z</time>
      </trkpt>
      <trkpt lat="44.65039" lon="3.89001">
        <ele>986.04</ele>
        <time>2016-04-24T12:00:34Z</time>
      </trkpt>
      <trkpt lat="44.65034" lon="3.88998">
        <ele>986.04</ele>
        <time>2016-04-24T12:00:51Z</time>
      </trkpt>
      <trkpt lat="44.65031" lon="3.88995">
        <ele>985.81</ele>
        <time>2016-04-24T12:01:21Z</time>
      </trkpt>
      <trkpt lat="44.65032" lon="3.88993">
        <ele>986.05</ele>
        <time>2016-04-24T12:01:53Z</time>
      </trkpt>
      <trkpt lat="44.6503" lon="3.88993">
        <ele>985.29</ele>
        <time>2016-04-24T12:02:26Z</time>
      </trkpt>
      <trkpt lat="44.65031" lon="3.88988">
        <ele>985.68</ele>
        <time>2016-04-24T12:03:01Z</time>
      </trkpt>
      <trkpt lat="44.65029" lon="3.8899">
        <ele>985.44</ele>
        <time>2016-04-24T12:03:38Z</time>
      </trkpt>
      <trkpt lat="44.65034" lon="3.88993">
        <ele>986.13</ele>
        <time>2016-04-24T12:04:06Z</time>
      </trkpt>
      <trkpt lat="44.65032" lon="3.88993">
        <ele>984.79</ele>
        <time>2016-04-24T12:04:41Z</time>
      </trkpt>
      <trkpt lat="44.65031" lon="3.88992">
        <ele>985.05</ele>
        <time>2016-04-24T12:05:24Z</time>
      </trkpt>
      <trkpt lat="44.6503" lon="3.88994">
        <ele>985.3</ele>
        <time>2016-04-24T12:06:06Z</time>
      </trkpt>
      <trkpt lat="44.6503" lon="3.88991">
        <ele>985.07</ele>
        <time>2016-04-24T12:06:47Z</time>
      </trkpt>
      <trkpt lat="44.65035" lon="3.88994">
        <ele>985.47</ele>
        <time>2016-04-24T12:07:07Z</time>
      </trkpt>
      <trkpt lat="44.65031" lon="3.8899">
        <ele>985.82</ele>
        <time>2016-04-24T12:07:30Z</time>
      </trkpt>
      <trkpt lat="44.65035" lon="3.88986">
        <ele>986.61</ele>
        <time>2016-04-24T12:07:47Z</time>
      </trkpt>
      <trkpt lat="44.65041" lon="3.88983">
        <ele>987.13</ele>
        <time>2016-04-24T12:08:04Z</time>
      </trkpt>
      <trkpt lat="44.65051" lon="3.88973">
        <ele>988.97</ele>
        <time>2016-04-24T12:08:25Z</time>
      </trkpt>
      <trkpt lat="44.65061" lon="3.88968">
        <ele>990.98</ele>
        <time>2016-04-24T12:08:40Z</time>
      </trkpt>
      <trkpt lat="44.65069" lon="3.8897">
        <ele>992.63</ele>
        <time>2016-04-24T12:09:00Z</time>
      </trkpt>
      <trkpt lat="44.6508" lon="3.88974">
        <ele>994.53</ele>
        <time>2016-04-24T12:09:22Z</time>
      </trkpt>
      <trkpt lat="44.65093" lon="3.88975">
        <ele>996.51</ele>
        <time>2016-04-24T12:09:42Z</time>
      </trkpt>
      <trkpt lat="44.65102" lon="3.88977">
        <ele>997.74</ele>
        <time>2016-04-24T12:10:01Z</time>
      </trkpt>
      <trkpt lat="44.65109" lon="3.88976">
        <ele>1000.33</ele>
        <time>2016-04-24T12:10:18Z</time>
      </trkpt>
      <trkpt lat="44.65117" lon="3.88976">
        <ele>1001.88</ele>
        <time>2016-04-24T12:10:37Z</time>
      </trkpt>
      <trkpt lat="44.65129" lon="3.88976">
        <ele>1003.5</ele>
        <time>2016-04-24T12:11:00Z</time>
      </trkpt>
      <trkpt lat="44.65136" lon="3.88973">
        <ele>1005.32</ele>
        <time>2016-04-24T12:11:16Z</time>
      </trkpt>
      <trkpt lat="44.65146" lon="3.88972">
        <ele>1006.45</ele>
        <time>2016-04-24T12:11:37Z</time>
      </trkpt>
      <trkpt lat="44.65153" lon="3.8897">
        <ele>1008.09</ele>
        <time>2016-04-24T12:11:55Z</time>
      </trkpt>
      <trkpt lat="44.65162" lon="3.88965">
        <ele>1009.82</ele>
        <time>2016-04-24T12:12:13Z</time>
      </trkpt>
      <trkpt lat="44.65161" lon="3.88953">
        <ele>1011.44</ele>
        <time>2016-04-24T12:12:30Z</time>
      </trkpt>
      <trkpt lat="44.65159" lon="3.88941">
        <ele>1012.39</ele>
        <time>2016-04-24T12:12:47Z</time>
      </trkpt>
      <trkpt lat="44.65162" lon="3.8893">
        <ele>1014.05</ele>
        <time>2016-04-24T12:13:06Z</time>
      </trkpt>
      <trkpt lat="44.65168" lon="3.88922">
        <ele>1015.82</ele>
        <time>2016-04-24T12:13:25Z</time>
      </trkpt>
      <trkpt lat="44.65172" lon="3.8891">
        <ele>1017.26</ele>
        <time>2016-04-24T12:13:45Z</time>
      </trkpt>
      <trkpt lat="44.65177" lon="3.88896">
        <ele>1019.15</ele>
        <time>2016-04-24T12:14:06Z</time>
      </trkpt>
      <trkpt lat="44.65178" lon="3.88881">
        <ele>1020.88</ele>
        <time>2016-04-24T12:14:26Z</time>
      </trkpt>
      <trkpt lat="44.65176" lon="3.88873">
        <ele>1020.96</ele>
        <time>2016-04-24T12:14:48Z</time>
      </trkpt>
      <trkpt lat="44.65177" lon="3.88867">
        <ele>1021.46</ele>
        <time>2016-04-24T12:15:10Z</time>
      </trkpt>
      <trkpt lat="44.65175" lon="3.8885">
        <ele>1023.45</ele>
        <time>2016-04-24T12:15:26Z</time>
      </trkpt>
      <trkpt lat="44.65174" lon="3.88848">
        <ele>1023.06</ele>
        <time>2016-04-24T12:15:50Z</time>
      </trkpt>
      <trkpt lat="44.65173" lon="3.88845">
        <ele>1023.29</ele>
        <time>2016-04-24T12:16:15Z</time>
      </trkpt>
      <trkpt lat="44.65173" lon="3.88845">
        <ele>1023.23</ele>
        <time>2016-04-24T12:17:04Z</time>
      </trkpt>
      <trkpt lat="44.65174" lon="3.88848">
        <ele>1023.04</ele>
        <time>2016-04-24T12:17:51Z</time>
      </trkpt>
      <trkpt lat="44.65173" lon="3.88839">
        <ele>1024.32</ele>
        <time>2016-04-24T12:18:32Z</time>
      </trkpt>
      <trkpt lat="44.6517" lon="3.88823">
        <ele>1025.69</ele>
        <time>2016-04-24T12:18:52Z</time>
      </trkpt>
      <trkpt lat="44.65168" lon="3.88819">
        <ele>1026.23</ele>
        <time>2016-04-24T12:19:11Z</time>
      </trkpt>
      <trkpt lat="44.65174" lon="3.88826">
        <ele>1026.27</ele>
        <time>2016-04-24T12:19:28Z</time>
      </trkpt>
      <trkpt lat="44.65184" lon="3.88839">
        <ele>1025.08</ele>
        <time>2016-04-24T12:19:44Z</time>
      </trkpt>
      <trkpt lat="44.6519" lon="3.88851">
        <ele>1026.3</ele>
        <time>2016-04-24T12:20:00Z</time>
      </trkpt>
      <trkpt lat="44.65198" lon="3.88862">
        <ele>1026.99</ele>
        <time>2016-04-24T12:20:15Z</time>
      </trkpt>
      <trkpt lat="44.65199" lon="3.88868">
        <ele>1027.55</ele>
        <time>2016-04-24T12:20:21Z</time>
      </trkpt>
      <trkpt lat="44.65202" lon="3.8888">
        <ele>1027.43</ele>
        <time>2016-04-24T12:20:35Z</time>
      </trkpt>
      <trkpt lat="44.65204" lon="3.88891">
        <ele>1029.19</ele>
        <time>2016-04-24T12:20:49Z</time>
      </trkpt>
      <trkpt lat="44.65209" lon="3.88905">
        <ele>1028.98</ele>
        <time>2016-04-24T12:21:04Z</time>
      </trkpt>
      <trkpt lat="44.65215" lon="3.88918">
        <ele>1030.31</ele>
        <time>2016-04-24T12:21:22Z</time>
      </trkpt>
      <trkpt lat="44.65215" lon="3.88929">
        <ele>1031.66</ele>
        <time>2016-04-24T12:21:42Z</time>
      </trkpt>
      <trkpt lat="44.65209" lon="3.88927">
        <ele>1030.64</ele>
        <time>2016-04-24T12:21:58Z</time>
      </trkpt>
      <trkpt lat="44.6521" lon="3.88924">
        <ele>1029.71</ele>
        <time>2016-04-24T12:22:16Z</time>
      </trkpt>
      <trkpt lat="44.65207" lon="3.88938">
        <ele>1031.83</ele>
        <time>2016-04-24T12:22:36Z</time>
      </trkpt>
      <trkpt lat="44.65202" lon="3.88939">
        <ele>1031.19</ele>
        <time>2016-04-24T12:23:20Z</time>
      </trkpt>
      <trkpt lat="44.65203" lon="3.88936">
        <ele>1030.06</ele>
        <time>2016-04-24T12:23:36Z</time>
      </trkpt>
      <trkpt lat="44.65204" lon="3.88931">
        <ele>1030.45</ele>
        <time>2016-04-24T12:24:00Z</time>
      </trkpt>
      <trkpt lat="44.65207" lon="3.88928">
        <ele>1029.63</ele>
        <time>2016-04-24T12:24:25Z</time>
      </trkpt>
      <trkpt lat="44.65209" lon="3.88929">
        <ele>1029.42</ele>
        <time>2016-04-24T12:24:48Z</time>
      </trkpt>
      <trkpt lat="44.65209" lon="3.88935">
        <ele>1029.38</ele>
        <time>2016-04-24T12:25:14Z</time>
      </trkpt>
      <trkpt lat="44.65209" lon="3.88933">
        <ele>1028.74</ele>
        <time>2016-04-24T12:25:46Z</time>
      </trkpt>
      <trkpt lat="44.65207" lon="3.88929">
        <ele>1029.26</ele>
        <time>2016-04-24T12:26:15Z</time>
      </trkpt>
      <trkpt lat="44.65207" lon="3.88933">
        <ele>1030.31</ele>
        <time>2016-04-24T12:26:39Z</time>
      </trkpt>
      <trkpt lat="44.65212" lon="3.88934">
        <ele>1030.48</ele>
        <time>2016-04-24T12:27:03Z</time>
      </trkpt>
      <trkpt lat="44.65216" lon="3.8892">
        <ele>1031.49</ele>
        <time>2016-04-24T12:27:22Z</time>
      </trkpt>
      <trkpt lat="44.65213" lon="3.88911">
        <ele>1031.37</ele>
        <time>2016-04-24T12:27:33Z</time>
      </trkpt>
      <trkpt lat="44.65206" lon="3.88894">
        <ele>1030.74</ele>
        <time>2016-04-24T12:27:48Z</time>
      </trkpt>
      <trkpt lat="44.65201" lon="3.88882">
        <ele>1029.9</ele>
        <time>2016-04-24T12:28:06Z</time>
      </trkpt>
      <trkpt lat="44.65198" lon="3.88868">
        <ele>1030.29</ele>
        <time>2016-04-24T12:28:19Z</time>
      </trkpt>
      <trkpt lat="44.65192" lon="3.88854">
        <ele>1028.4</ele>
        <time>2016-04-24T12:28:34Z</time>
      </trkpt>
      <trkpt lat="44.65184" lon="3.88839">
        <ele>1027.15</ele>
        <time>2016-04-24T12:28:51Z</time>
      </trkpt>
      <trkpt lat="44.65176" lon="3.88829">
        <ele>1025.79</ele>
        <time>2016-04-24T12:29:07Z</time>
      </trkpt>
      <trkpt lat="44.65165" lon="3.88818">
        <ele>1027.42</ele>
        <time>2016-04-24T12:29:26Z</time>
      </trkpt>
      <trkpt lat="44.65154" lon="3.88809">
        <ele>1027.62</ele>
        <time>2016-04-24T12:29:46Z</time>
      </trkpt>
      <trkpt lat="44.65146" lon="3.88801">
        <ele>1027.52</ele>
        <time>2016-04-24T12:30:01Z</time>
      </trkpt>
      <trkpt lat="44.65138" lon="3.88796">
        <ele>1028.28</ele>
        <time>2016-04-24T12:30:15Z</time>
      </trkpt>
      <trkpt lat="44.65131" lon="3.88791">
        <ele>1030.03</ele>
        <time>2016-04-24T12:30:31Z</time>
      </trkpt>
      <trkpt lat="44.65121" lon="3.88786">
        <ele>1031.15</ele>
        <time>2016-04-24T12:30:51Z</time>
      </trkpt>
      <trkpt lat="44.65114" lon="3.88782">
        <ele>1032.23</ele>
        <time>2016-04-24T12:31:09Z</time>
      </trkpt>
      <trkpt lat="44.65104" lon="3.88776">
        <ele>1033.92</ele>
        <time>2016-04-24T12:31:25Z</time>
      </trkpt>
      <trkpt lat="44.65095" lon="3.88765">
        <ele>1035.05</ele>
        <time>2016-04-24T12:31:43Z</time>
      </trkpt>
      <trkpt lat="44.65091" lon="3.88764">
        <ele>1034.86</ele>
        <time>2016-04-24T12:31:59Z</time>
      </trkpt>
      <trkpt lat="44.65084" lon="3.88757">
        <ele>1036.47</ele>
        <time>2016-04-24T12:32:24Z</time>
      </trkpt>
      <trkpt lat="44.65082" lon="3.88754">
        <ele>1036.46</ele>
        <time>2016-04-24T12:32:46Z</time>
      </trkpt>
      <trkpt lat="44.65076" lon="3.88747">
        <ele>1037.87</ele>
        <time>2016-04-24T12:33:10Z</time>
      </trkpt>
      <trkpt lat="44.65069" lon="3.8874">
        <ele>1039.31</ele>
        <time>2016-04-24T12:33:30Z</time>
      </trkpt>
      <trkpt lat="44.65061" lon="3.88732">
        <ele>1040.72</ele>
        <time>2016-04-24T12:33:48Z</time>
      </trkpt>
      <trkpt lat="44.65054" lon="3.88727">
        <ele>1042.4</ele>
        <time>2016-04-24T12:34:06Z</time>
      </trkpt>
      <trkpt lat="44.65047" lon="3.88722">
        <ele>1044.52</ele>
        <time>2016-04-24T12:34:27Z</time>
      </trkpt>
      <trkpt lat="44.65038" lon="3.88716">
        <ele>1045.12</ele>
        <time>2016-04-24T12:34:50Z</time>
      </trkpt>
      <trkpt lat="44.65032" lon="3.8871">
        <ele>1046.68</ele>
        <time>2016-04-24T12:35:08Z</time>
      </trkpt>
      <trkpt lat="44.65025" lon="3.88702">
        <ele>1047.82</ele>
        <time>2016-04-24T12:35:27Z</time>
      </trkpt>
      <trkpt lat="44.65024" lon="3.88689">
        <ele>1050.82</ele>
        <time>2016-04-24T12:35:50Z</time>
      </trkpt>
      <trkpt lat="44.65029" lon="3.88678">
        <ele>1051.83</ele>
        <time>2016-04-24T12:36:09Z</time>
      </trkpt>
      <trkpt lat="44.65038" lon="3.88667">
        <ele>1054</ele>
        <time>2016-04-24T12:36:31Z</time>
      </trkpt>
      <trkpt lat="44.65047" lon="3.88657">
        <ele>1055.43</ele>
        <time>2016-04-24T12:36:49Z</time>
      </trkpt>
      <trkpt lat="44.65054" lon="3.88645">
        <ele>1056.68</ele>
        <time>2016-04-24T12:37:07Z</time>
      </trkpt>
      <trkpt lat="44.65058" lon="3.88637">
        <ele>1057.21</ele>
        <time>2016-04-24T12:37:29Z</time>
      </trkpt>
      <trkpt lat="44.65054" lon="3.88653">
        <ele>1056.81</ele>
        <time>2016-04-24T12:37:48Z</time>
      </trkpt>
      <trkpt lat="44.65044" lon="3.88669">
        <ele>1055.53</ele>
        <time>2016-04-24T12:38:07Z</time>
      </trkpt>
      <trkpt lat="44.65036" lon="3.88676">
        <ele>1053.76</ele>
        <time>2016-04-24T12:38:27Z</time>
      </trkpt>
      <trkpt lat="44.65026" lon="3.88689">
        <ele>1051.72</ele>
        <time>2016-04-24T12:38:47Z</time>
      </trkpt>
      <trkpt lat="44.65024" lon="3.88706">
        <ele>1049.93</ele>
        <time>2016-04-24T12:39:06Z</time>
      </trkpt>
      <trkpt lat="44.65032" lon="3.88712">
        <ele>1047.83</ele>
        <time>2016-04-24T12:39:23Z</time>
      </trkpt>
      <trkpt lat="44.6504" lon="3.88719">
        <ele>1046.72</ele>
        <time>2016-04-24T12:39:39Z</time>
      </trkpt>
      <trkpt lat="44.65043" lon="3.88722">
        <ele>1046.39</ele>
        <time>2016-04-24T12:39:43Z</time>
      </trkpt>
      <trkpt lat="44.65049" lon="3.88727">
        <ele>1044.91</ele>
        <time>2016-04-24T12:39:54Z</time>
      </trkpt>
      <trkpt lat="44.65057" lon="3.88735">
        <ele>1042.86</ele>
        <time>2016-04-24T12:40:09Z</time>
      </trkpt>
      <trkpt lat="44.65064" lon="3.88742">
        <ele>1041.17</ele>
        <time>2016-04-24T12:40:25Z</time>
      </trkpt>
      <trkpt lat="44.65075" lon="3.8875">
        <ele>1038.3</ele>
        <time>2016-04-24T12:40:43Z</time>
      </trkpt>
      <trkpt lat="44.65085" lon="3.88761">
        <ele>1037.1</ele>
        <time>2016-04-24T12:41:01Z</time>
      </trkpt>
      <trkpt lat="44.65096" lon="3.88769">
        <ele>1035.3</ele>
        <time>2016-04-24T12:41:16Z</time>
      </trkpt>
      <trkpt lat="44.65106" lon="3.8878">
        <ele>1035.04</ele>
        <time>2016-04-24T12:41:32Z</time>
      </trkpt>
      <trkpt lat="44.65117" lon="3.88784">
        <ele>1033.96</ele>
        <time>2016-04-24T12:41:50Z</time>
      </trkpt>
      <trkpt lat="44.65119" lon="3.88785">
        <ele>1033.3</ele>
        <time>2016-04-24T12:41:53Z</time>
      </trkpt>
      <trkpt lat="44.65132" lon="3.88791">
        <ele>1031.61</ele>
        <time>2016-04-24T12:42:09Z</time>
      </trkpt>
      <trkpt lat="44.65144" lon="3.88796">
        <ele>1030.07</ele>
        <time>2016-04-24T12:42:24Z</time>
      </trkpt>
      <trkpt lat="44.65154" lon="3.88803">
        <ele>1029.05</ele>
        <time>2016-04-24T12:42:38Z</time>
      </trkpt>
      <trkpt lat="44.65164" lon="3.88812">
        <ele>1027.33</ele>
        <time>2016-04-24T12:42:53Z</time>
      </trkpt>
      <trkpt lat="44.6517" lon="3.8882">
        <ele>1027.07</ele>
        <time>2016-04-24T12:43:07Z</time>
      </trkpt>
      <trkpt lat="44.65171" lon="3.88833">
        <ele>1026.83</ele>
        <time>2016-04-24T12:43:21Z</time>
      </trkpt>
      <trkpt lat="44.65175" lon="3.88849">
        <ele>1025.5</ele>
        <time>2016-04-24T12:43:36Z</time>
      </trkpt>
      <trkpt lat="44.65179" lon="3.88866">
        <ele>1025.24</ele>
        <time>2016-04-24T12:43:53Z</time>
      </trkpt>
      <trkpt lat="44.65179" lon="3.88883">
        <ele>1023.78</ele>
        <time>2016-04-24T12:44:12Z</time>
      </trkpt>
      <trkpt lat="44.65177" lon="3.88898">
        <ele>1022.96</ele>
        <time>2016-04-24T12:44:31Z</time>
      </trkpt>
      <trkpt lat="44.65173" lon="3.88915">
        <ele>1020.14</ele>
        <time>2016-04-24T12:44:56Z</time>
      </trkpt>
      <trkpt lat="44.65168" lon="3.88923">
        <ele>1018.42</ele>
        <time>2016-04-24T12:45:18Z</time>
      </trkpt>
      <trkpt lat="44.65163" lon="3.88931">
        <ele>1017.19</ele>
        <time>2016-04-24T12:45:36Z</time>
      </trkpt>
      <trkpt lat="44.65163" lon="3.88947">
        <ele>1015.27</ele>
        <time>2016-04-24T12:45:50Z</time>
      </trkpt>
      <trkpt lat="44.65166" lon="3.88964">
        <ele>1012.38</ele>
        <time>2016-04-24T12:46:07Z</time>
      </trkpt>
      <trkpt lat="44.65159" lon="3.88971">
        <ele>1012.01</ele>
        <time>2016-04-24T12:46:22Z</time>
      </trkpt>
      <trkpt lat="44.65158" lon="3.88971">
        <ele>1011.91</ele>
        <time>2016-04-24T12:46:23Z</time>
      </trkpt>
      <trkpt lat="44.65149" lon="3.88968">
        <ele>1009.96</ele>
        <time>2016-04-24T12:46:37Z</time>
      </trkpt>
      <trkpt lat="44.65138" lon="3.88972">
        <ele>1007.34</ele>
        <time>2016-04-24T12:46:55Z</time>
      </trkpt>
      <trkpt lat="44.65128" lon="3.88973">
        <ele>1004.68</ele>
        <time>2016-04-24T12:47:12Z</time>
      </trkpt>
      <trkpt lat="44.65115" lon="3.88974">
        <ele>1002.48</ele>
        <time>2016-04-24T12:47:33Z</time>
      </trkpt>
      <trkpt lat="44.65104" lon="3.88976">
        <ele>1001.6</ele>
        <time>2016-04-24T12:47:48Z</time>
      </trkpt>
      <trkpt lat="44.65093" lon="3.88974">
        <ele>999.69</ele>
        <time>2016-04-24T12:48:03Z</time>
      </trkpt>
      <trkpt lat="44.6509" lon="3.88974">
        <ele>999.14</ele>
        <time>2016-04-24T12:48:07Z</time>
      </trkpt>
      <trkpt lat="44.65078" lon="3.88973">
        <ele>997.94</ele>
        <time>2016-04-24T12:48:24Z</time>
      </trkpt>
      <trkpt lat="44.6507" lon="3.88971">
        <ele>994.91</ele>
        <time>2016-04-24T12:48:37Z</time>
      </trkpt>
      <trkpt lat="44.6506" lon="3.88971">
        <ele>992.44</ele>
        <time>2016-04-24T12:48:53Z</time>
      </trkpt>
      <trkpt lat="44.65048" lon="3.88977">
        <ele>990.11</ele>
        <time>2016-04-24T12:49:11Z</time>
      </trkpt>
      <trkpt lat="44.65039" lon="3.88984">
        <ele>989.23</ele>
        <time>2016-04-24T12:49:27Z</time>
      </trkpt>
      <trkpt lat="44.65036" lon="3.88987">
        <ele>988.36</ele>
        <time>2016-04-24T12:49:34Z</time>
      </trkpt>
      <trkpt lat="44.65027" lon="3.88993">
        <ele>987.26</ele>
        <time>2016-04-24T12:49:48Z</time>
      </trkpt>
      <trkpt lat="44.65018" lon="3.89002">
        <ele>985.55</ele>
        <time>2016-04-24T12:50:10Z</time>
      </trkpt>
      <trkpt lat="44.65017" lon="3.89005">
        <ele>985.86</ele>
        <time>2016-04-24T12:50:35Z</time>
      </trkpt>
      <trkpt lat="44.65018" lon="3.89005">
        <ele>986.38</ele>
        <time>2016-04-24T12:51:01Z</time>
      </trkpt>
      <trkpt lat="44.65017" lon="3.89004">
        <ele>985.75</ele>
        <time>2016-04-24T12:51:25Z</time>
      </trkpt>
      <trkpt lat="44.65019" lon="3.89005">
        <ele>985.48</ele>
        <time>2016-04-24T12:51:47Z</time>
      </trkpt>
      <trkpt lat="44.6502" lon="3.89007">
        <ele>985.41</ele>
        <time>2016-04-24T12:52:07Z</time>
      </trkpt>
      <trkpt lat="44.65019" lon="3.89008">
        <ele>985.66</ele>
        <time>2016-04-24T12:52:26Z</time>
      </trkpt>
      <trkpt lat="44.65018" lon="3.89014">
        <ele>985.12</ele>
        <time>2016-04-24T12:52:48Z</time>
      </trkpt>
      <trkpt lat="44.65017" lon="3.89014">
        <ele>984.68</ele>
        <time>2016-04-24T12:53:08Z</time>
      </trkpt>
      <trkpt lat="44.65015" lon="3.89015">
        <ele>984.97</ele>
        <time>2016-04-24T12:53:34Z</time>
      </trkpt>
      <trkpt lat="44.65015" lon="3.89011">
        <ele>984.99</ele>
        <time>2016-04-24T12:53:54Z</time>
      </trkpt>
      <trkpt lat="44.65012" lon="3.89008">
        <ele>985.45</ele>
        <time>2016-04-24T12:54:15Z</time>
      </trkpt>
      <trkpt lat="44.65014" lon="3.89008">
        <ele>984.67</ele>
        <time>2016-04-24T12:54:40Z</time>
      </trkpt>
      <trkpt lat="44.65016" lon="3.89007">
        <ele>985.33</ele>
        <time>2016-04-24T12:55:05Z</time>
      </trkpt>
      <trkpt lat="44.65016" lon="3.89011">
        <ele>984.77</ele>
        <time>2016-04-24T12:55:23Z</time>
      </trkpt>
      <trkpt lat="44.65015" lon="3.89013">
        <ele>983.99</ele>
        <time>2016-04-24T12:55:44Z</time>
      </trkpt>
      <trkpt lat="44.65014" lon="3.89011">
        <ele>984.77</ele>
        <time>2016-04-24T12:56:13Z</time>
      </trkpt>
      <trkpt lat="44.65014" lon="3.8901">
        <ele>984.64</ele>
        <time>2016-04-24T12:56:30Z</time>
      </trkpt>
      <trkpt lat="44.65013" lon="3.8901">
        <ele>984.12</ele>
        <time>2016-04-24T12:56:47Z</time>
      </trkpt>
      <trkpt lat="44.65014" lon="3.89009">
        <ele>983.81</ele>
        <time>2016-04-24T12:57:10Z</time>
      </trkpt>
      <trkpt lat="44.65015" lon="3.8901">
        <ele>984.22</ele>
        <time>2016-04-24T12:57:33Z</time>
      </trkpt>
      <trkpt lat="44.65015" lon="3.89011">
        <ele>984.19</ele>
        <time>2016-04-24T12:58:04Z</time>
      </trkpt>
      <trkpt lat="44.65015" lon="3.8901">
        <ele>984.51</ele>
        <time>2016-04-24T12:58:22Z</time>
      </trkpt>
      <trkpt lat="44.65015" lon="3.8901">
        <ele>984.22</ele>
        <time>2016-04-24T12:58:41Z</time>
      </trkpt>
      <trkpt lat="44.65014" lon="3.8901">
        <ele>983.69</ele>
        <time>2016-04-24T12:59:02Z</time>
      </trkpt>
      <trkpt lat="44.65015" lon="3.89009">
        <ele>984.46</ele>
        <time>2016-04-24T12:59:19Z</time>
      </trkpt>
      <trkpt lat="44.65015" lon="3.8901">
        <ele>984.7</ele>
        <time>2016-04-24T12:59:55Z</time>
      </trkpt>
      <trkpt lat="44.65015" lon="3.89009">
        <ele>984.77</ele>
        <time>2016-04-24T13:00:12Z</time>
      </trkpt>
      <trkpt lat="44.65016" lon="3.89009">
        <ele>983.48</ele>
        <time>2016-04-24T13:00:30Z</time>
      </trkpt>
      <trkpt lat="44.65016" lon="3.8901">
        <ele>984.6</ele>
        <time>2016-04-24T13:00:48Z</time>
      </trkpt>
      <trkpt lat="44.65016" lon="3.89011">
        <ele>983.54</ele>
        <time>2016-04-24T13:01:15Z</time>
      </trkpt>
      <trkpt lat="44.65016" lon="3.89011">
        <ele>984.74</ele>
        <time>2016-04-24T13:01:53Z</time>
      </trkpt>
      <trkpt lat="44.65012" lon="3.89008">
        <ele>984.91</ele>
        <time>2016-04-24T13:03:06Z</time>
      </trkpt>
      <trkpt lat="44.65011" lon="3.89008">
        <ele>984.59</ele>
        <time>2016-04-24T13:04:20Z</time>
      </trkpt>
      <trkpt lat="44.6501" lon="3.89011">
        <ele>984.62</ele>
        <time>2016-04-24T13:04:52Z</time>
      </trkpt>
      <trkpt lat="44.6501" lon="3.89011">
        <ele>984.08</ele>
        <time>2016-04-24T13:05:21Z</time>
      </trkpt>
      <trkpt lat="44.65007" lon="3.8901">
        <ele>984.76</ele>
        <time>2016-04-24T13:06:05Z</time>
      </trkpt>
      <trkpt lat="44.65008" lon="3.89008">
        <ele>985.29</ele>
        <time>2016-04-24T13:06:42Z</time>
      </trkpt>
      <trkpt lat="44.65008" lon="3.8901">
        <ele>984.46</ele>
        <time>2016-04-24T13:07:08Z</time>
      </trkpt>
      <trkpt lat="44.65009" lon="3.89009">
        <ele>984.61</ele>
        <time>2016-04-24T13:07:31Z</time>
      </trkpt>
      <trkpt lat="44.65009" lon="3.89008">
        <ele>984.55</ele>
        <time>2016-04-24T13:07:48Z</time>
      </trkpt>
      <trkpt lat="44.6501" lon="3.89008">
        <ele>984.57</ele>
        <time>2016-04-24T13:08:08Z</time>
      </trkpt>
      <trkpt lat="44.6501" lon="3.89007">
        <ele>984.83</ele>
        <time>2016-04-24T13:08:25Z</time>
      </trkpt>
      <trkpt lat="44.6501" lon="3.89007">
        <ele>984.77</ele>
        <time>2016-04-24T13:08:53Z</time>
      </trkpt>
      <trkpt lat="44.65011" lon="3.89007">
        <ele>984.11</ele>
        <time>2016-04-24T13:09:13Z</time>
      </trkpt>
      <trkpt lat="44.65013" lon="3.8901">
        <ele>984.68</ele>
        <time>2016-04-24T13:09:39Z</time>
      </trkpt>
      <trkpt lat="44.65012" lon="3.89011">
        <ele>985.18</ele>
        <time>2016-04-24T13:09:58Z</time>
      </trkpt>
      <trkpt lat="44.65013" lon="3.89009">
        <ele>984.66</ele>
        <time>2016-04-24T13:10:22Z</time>
      </trkpt>
      <trkpt lat="44.65012" lon="3.8901">
        <ele>984.72</ele>
        <time>2016-04-24T13:10:39Z</time>
      </trkpt>
      <trkpt lat="44.65012" lon="3.8901">
        <ele>984.28</ele>
        <time>2016-04-24T13:11:00Z</time>
      </trkpt>
      <trkpt lat="44.65011" lon="3.8901">
        <ele>985.05</ele>
        <time>2016-04-24T13:11:36Z</time>
      </trkpt>
      <trkpt lat="44.65009" lon="3.89011">
        <ele>984.29</ele>
        <time>2016-04-24T13:12:15Z</time>
      </trkpt>
      <trkpt lat="44.65009" lon="3.89011">
        <ele>986.34</ele>
        <time>2016-04-24T13:12:48Z</time>
      </trkpt>
      <trkpt lat="44.6501" lon="3.89011">
        <ele>985.24</ele>
        <time>2016-04-24T13:13:23Z</time>
      </trkpt>
      <trkpt lat="44.65012" lon="3.89012">
        <ele>986.59</ele>
        <time>2016-04-24T13:13:50Z</time>
      </trkpt>
      <trkpt lat="44.6501" lon="3.89009">
        <ele>985.91</ele>
        <time>2016-04-24T13:14:11Z</time>
      </trkpt>
      <trkpt lat="44.65013" lon="3.89021">
        <ele>985.66</ele>
        <time>2016-04-24T13:14:26Z</time>
      </trkpt>
      <trkpt lat="44.65027" lon="3.89027">
        <ele>985</ele>
        <time>2016-04-24T13:14:42Z</time>
      </trkpt>
      <trkpt lat="44.65037" lon="3.89035">
        <ele>983.8</ele>
        <time>2016-04-24T13:14:56Z</time>
      </trkpt>
      <trkpt lat="44.65053" lon="3.89043">
        <ele>981.76</ele>
        <time>2016-04-24T13:15:17Z</time>
      </trkpt>
      <trkpt lat="44.65057" lon="3.89044">
        <ele>980.7</ele>
        <time>2016-04-24T13:15:21Z</time>
      </trkpt>
      <trkpt lat="44.65071" lon="3.89056">
        <ele>980.53</ele>
        <time>2016-04-24T13:15:37Z</time>
      </trkpt>
      <trkpt lat="44.65075" lon="3.89059">
        <ele>980.04</ele>
        <time>2016-04-24T13:15:41Z</time>
      </trkpt>
      <trkpt lat="44.65079" lon="3.89064">
        <ele>978.35</ele>
        <time>2016-04-24T13:15:46Z</time>
      </trkpt>
      <trkpt lat="44.65082" lon="3.89067">
        <ele>977.38</ele>
        <time>2016-04-24T13:15:49Z</time>
      </trkpt>
      <trkpt lat="44.65091" lon="3.89072">
        <ele>975.58</ele>
        <time>2016-04-24T13:15:58Z</time>
      </trkpt>
      <trkpt lat="44.65107" lon="3.89075">
        <ele>973.68</ele>
        <time>2016-04-24T13:16:13Z</time>
      </trkpt>
      <trkpt lat="44.65113" lon="3.89076">
        <ele>973.49</ele>
        <time>2016-04-24T13:16:19Z</time>
      </trkpt>
      <trkpt lat="44.65121" lon="3.89078">
        <ele>973.01</ele>
        <time>2016-04-24T13:16:28Z</time>
      </trkpt>
      <trkpt lat="44.65136" lon="3.89079">
        <ele>972.19</ele>
        <time>2016-04-24T13:16:42Z</time>
      </trkpt>
      <trkpt lat="44.65139" lon="3.89078">
        <ele>972.22</ele>
        <time>2016-04-24T13:16:45Z</time>
      </trkpt>
      <trkpt lat="44.6515" lon="3.89073">
        <ele>971.99</ele>
        <time>2016-04-24T13:16:55Z</time>
      </trkpt>
      <trkpt lat="44.65156" lon="3.89072">
        <ele>972.25</ele>
        <time>2016-04-24T13:17:00Z</time>
      </trkpt>
      <trkpt lat="44.65159" lon="3.89072">
        <ele>972.13</ele>
        <time>2016-04-24T13:17:03Z</time>
      </trkpt>
      <trkpt lat="44.65165" lon="3.89071">
        <ele>971.95</ele>
        <time>2016-04-24T13:17:08Z</time>
      </trkpt>
      <trkpt lat="44.65178" lon="3.89071">
        <ele>971.97</ele>
        <time>2016-04-24T13:17:20Z</time>
      </trkpt>
      <trkpt lat="44.65188" lon="3.89075">
        <ele>971.36</ele>
        <time>2016-04-24T13:17:31Z</time>
      </trkpt>
      <trkpt lat="44.65195" lon="3.89077">
        <ele>970.85</ele>
        <time>2016-04-24T13:17:38Z</time>
      </trkpt>
      <trkpt lat="44.65197" lon="3.89078">
        <ele>970.61</ele>
        <time>2016-04-24T13:17:40Z</time>
      </trkpt>
      <trkpt lat="44.65208" lon="3.89077">
        <ele>969.81</ele>
        <time>2016-04-24T13:17:48Z</time>
      </trkpt>
      <trkpt lat="44.65215" lon="3.89078">
        <ele>969.24</ele>
        <time>2016-04-24T13:17:54Z</time>
      </trkpt>
      <trkpt lat="44.65227" lon="3.89078">
        <ele>967.78</ele>
        <time>2016-04-24T13:18:03Z</time>
      </trkpt>
      <trkpt lat="44.65244" lon="3.89088">
        <ele>966.32</ele>
        <time>2016-04-24T13:18:18Z</time>
      </trkpt>
      <trkpt lat="44.65247" lon="3.89087">
        <ele>966.03</ele>
        <time>2016-04-24T13:18:21Z</time>
      </trkpt>
      <trkpt lat="44.65258" lon="3.89096">
        <ele>964.41</ele>
        <time>2016-04-24T13:18:32Z</time>
      </trkpt>
      <trkpt lat="44.65275" lon="3.8911">
        <ele>961.07</ele>
        <time>2016-04-24T13:18:47Z</time>
      </trkpt>
      <trkpt lat="44.65291" lon="3.8912">
        <ele>959.5</ele>
        <time>2016-04-24T13:19:03Z</time>
      </trkpt>
      <trkpt lat="44.65301" lon="3.89127">
        <ele>958.21</ele>
        <time>2016-04-24T13:19:17Z</time>
      </trkpt>
      <trkpt lat="44.65303" lon="3.89132">
        <ele>954.89</ele>
        <time>2016-04-24T13:19:28Z</time>
      </trkpt>
      <trkpt lat="44.65306" lon="3.89138">
        <ele>951.86</ele>
        <time>2016-04-24T13:19:42Z</time>
      </trkpt>
      <trkpt lat="44.65304" lon="3.8914">
        <ele>951.57</ele>
        <time>2016-04-24T13:19:57Z</time>
      </trkpt>
      <trkpt lat="44.653" lon="3.89143">
        <ele>951.7</ele>
        <time>2016-04-24T13:20:16Z</time>
      </trkpt>
      <trkpt lat="44.65298" lon="3.89141">
        <ele>952.4</ele>
        <time>2016-04-24T13:20:35Z</time>
      </trkpt>
      <trkpt lat="44.6529" lon="3.89147">
        <ele>950.83</ele>
        <time>2016-04-24T13:20:50Z</time>
      </trkpt>
      <trkpt lat="44.65288" lon="3.89141">
        <ele>951.23</ele>
        <time>2016-04-24T13:21:04Z</time>
      </trkpt>
      <trkpt lat="44.65298" lon="3.89134">
        <ele>951.99</ele>
        <time>2016-04-24T13:21:19Z</time>
      </trkpt>
      <trkpt lat="44.65301" lon="3.89136">
        <ele>951.96</ele>
        <time>2016-04-24T13:21:49Z</time>
      </trkpt>
      <trkpt lat="44.65302" lon="3.89137">
        <ele>951.99</ele>
        <time>2016-04-24T13:22:17Z</time>
      </trkpt>
      <trkpt lat="44.65302" lon="3.89136">
        <ele>951.87</ele>
        <time>2016-04-24T13:22:42Z</time>
      </trkpt>
      <trkpt lat="44.65305" lon="3.89135">
        <ele>951.58</ele>
        <time>2016-04-24T13:23:06Z</time>
      </trkpt>
      <trkpt lat="44.65307" lon="3.8913">
        <ele>950.67</ele>
        <time>2016-04-24T13:23:21Z</time>
      </trkpt>
      <trkpt lat="44.65311" lon="3.89134">
        <ele>951.08</ele>
        <time>2016-04-24T13:23:55Z</time>
      </trkpt>
      <trkpt lat="44.65312" lon="3.89137">
        <ele>950.52</ele>
        <time>2016-04-24T13:24:30Z</time>
      </trkpt>
      <trkpt lat="44.65309" lon="3.89137">
        <ele>951.65</ele>
        <time>2016-04-24T13:25:01Z</time>
      </trkpt>
      <trkpt lat="44.65309" lon="3.89143">
        <ele>950.96</ele>
        <time>2016-04-24T13:25:28Z</time>
      </trkpt>
      <trkpt lat="44.65312" lon="3.89142">
        <ele>951.06</ele>
        <time>2016-04-24T13:25:52Z</time>
      </trkpt>
      <trkpt lat="44.65316" lon="3.89136">
        <ele>951.27</ele>
        <time>2016-04-24T13:26:12Z</time>
      </trkpt>
      <trkpt lat="44.65312" lon="3.89133">
        <ele>951.6</ele>
        <time>2016-04-24T13:26:32Z</time>
      </trkpt>
      <trkpt lat="44.6531" lon="3.89143">
        <ele>951.35</ele>
        <time>2016-04-24T13:26:47Z</time>
      </trkpt>
      <trkpt lat="44.65305" lon="3.89145">
        <ele>950.81</ele>
        <time>2016-04-24T13:26:58Z</time>
      </trkpt>
      <trkpt lat="44.65293" lon="3.89147">
        <ele>951.88</ele>
        <time>2016-04-24T13:27:10Z</time>
      </trkpt>
      <trkpt lat="44.65282" lon="3.89148">
        <ele>951.46</ele>
        <time>2016-04-24T13:27:23Z</time>
      </trkpt>
      <trkpt lat="44.65275" lon="3.89142">
        <ele>951.15</ele>
        <time>2016-04-24T13:27:40Z</time>
      </trkpt>
      <trkpt lat="44.65277" lon="3.89141">
        <ele>952.15</ele>
        <time>2016-04-24T13:28:02Z</time>
      </trkpt>
      <trkpt lat="44.65274" lon="3.89139">
        <ele>953.68</ele>
        <time>2016-04-24T13:28:28Z</time>
      </trkpt>
      <trkpt lat="44.65271" lon="3.89141">
        <ele>954.01</ele>
        <time>2016-04-24T13:28:56Z</time>
      </trkpt>
      <trkpt lat="44.65271" lon="3.89141">
        <ele>953.52</ele>
        <time>2016-04-24T13:29:05Z</time>
      </trkpt>
      <trkpt lat="44.65271" lon="3.89141">
        <ele>953.57</ele>
        <time>2016-04-24T13:29:12Z</time>
      </trkpt>
    </trkseg>
  </trk>
</gpx>